<?xml version="1.0" encoding="UTF-8" standalone="no" ?>
<gpx xmlns="http://www.topografix.com/GPX/1/1" xmlns:xsi="http://www.w3.org/2001/XMLSchema-instance" xsi:schemaLocation="http://www.topografix.com/GPX/1/1 http://www.topografix.com/GPX/1/1/gpx.xsd" version="1.1" creator="VisuGPX - https://www.visugpx.com">
  <metadata>
    <name>st pierre de Boeuf Condrieu</name>
  </metadata>
  <trk>
    <name><![CDATA[st pierre de Boeuf Condrieu_1]]></name>
    <trkseg>
      <trkpt lat="45.38281" lon="4.75381">
        <ele>193.6</ele>
        <time>2021-04-22T12:30:56Z</time>
      </trkpt>
      <trkpt lat="45.38281" lon="4.75381">
        <ele>192</ele>
        <time>2021-04-22T12:31:02Z</time>
      </trkpt>
      <trkpt lat="45.3828" lon="4.75381">
        <ele>192.1</ele>
        <time>2021-04-22T12:31:07Z</time>
      </trkpt>
      <trkpt lat="45.3828" lon="4.75381">
        <ele>192</ele>
        <time>2021-04-22T12:31:13Z</time>
      </trkpt>
      <trkpt lat="45.38278" lon="4.75381">
        <ele>192.1</ele>
        <time>2021-04-22T12:31:18Z</time>
      </trkpt>
      <trkpt lat="45.38278" lon="4.7538">
        <ele>191.3</ele>
        <time>2021-04-22T12:31:24Z</time>
      </trkpt>
      <trkpt lat="45.38278" lon="4.7538">
        <ele>191.2</ele>
        <time>2021-04-22T12:31:29Z</time>
      </trkpt>
      <trkpt lat="45.38277" lon="4.7538">
        <ele>191.2</ele>
        <time>2021-04-22T12:31:37Z</time>
      </trkpt>
      <trkpt lat="45.38276" lon="4.7538">
        <ele>191</ele>
        <time>2021-04-22T12:31:42Z</time>
      </trkpt>
      <trkpt lat="45.38275" lon="4.7538">
        <ele>191.1</ele>
        <time>2021-04-22T12:31:47Z</time>
      </trkpt>
      <trkpt lat="45.38273" lon="4.7538">
        <ele>191</ele>
        <time>2021-04-22T12:31:52Z</time>
      </trkpt>
      <trkpt lat="45.3827" lon="4.75381">
        <ele>191</ele>
        <time>2021-04-22T12:31:58Z</time>
      </trkpt>
      <trkpt lat="45.38261" lon="4.75358">
        <ele>191.2</ele>
        <time>2021-04-22T12:32:03Z</time>
      </trkpt>
      <trkpt lat="45.3827" lon="4.75304">
        <ele>191.1</ele>
        <time>2021-04-22T12:32:08Z</time>
      </trkpt>
      <trkpt lat="45.38284" lon="4.75281">
        <ele>191.2</ele>
        <time>2021-04-22T12:32:13Z</time>
      </trkpt>
      <trkpt lat="45.38301" lon="4.75258">
        <ele>191.1</ele>
        <time>2021-04-22T12:32:19Z</time>
      </trkpt>
      <trkpt lat="45.38322" lon="4.7525">
        <ele>191.1</ele>
        <time>2021-04-22T12:32:24Z</time>
      </trkpt>
      <trkpt lat="45.38346" lon="4.75243">
        <ele>191.2</ele>
        <time>2021-04-22T12:32:29Z</time>
      </trkpt>
      <trkpt lat="45.38364" lon="4.7524">
        <ele>191.1</ele>
        <time>2021-04-22T12:32:34Z</time>
      </trkpt>
      <trkpt lat="45.38387" lon="4.7522">
        <ele>186.2</ele>
        <time>2021-04-22T12:32:39Z</time>
      </trkpt>
      <trkpt lat="45.38409" lon="4.75189">
        <ele>185.5</ele>
        <time>2021-04-22T12:32:45Z</time>
      </trkpt>
      <trkpt lat="45.38422" lon="4.75148">
        <ele>185.2</ele>
        <time>2021-04-22T12:32:51Z</time>
      </trkpt>
      <trkpt lat="45.38428" lon="4.75125">
        <ele>187.2</ele>
        <time>2021-04-22T12:32:56Z</time>
      </trkpt>
      <trkpt lat="45.38422" lon="4.7508">
        <ele>184.9</ele>
        <time>2021-04-22T12:33:02Z</time>
      </trkpt>
      <trkpt lat="45.38407" lon="4.75041">
        <ele>187.5</ele>
        <time>2021-04-22T12:33:08Z</time>
      </trkpt>
      <trkpt lat="45.38396" lon="4.75033">
        <ele>185.7</ele>
        <time>2021-04-22T12:33:13Z</time>
      </trkpt>
      <trkpt lat="45.3841" lon="4.75015">
        <ele>185.3</ele>
        <time>2021-04-22T12:33:19Z</time>
      </trkpt>
      <trkpt lat="45.38432" lon="4.74999">
        <ele>187.1</ele>
        <time>2021-04-22T12:33:24Z</time>
      </trkpt>
      <trkpt lat="45.38461" lon="4.74988">
        <ele>187.4</ele>
        <time>2021-04-22T12:33:30Z</time>
      </trkpt>
      <trkpt lat="45.38483" lon="4.74969">
        <ele>187.9</ele>
        <time>2021-04-22T12:33:35Z</time>
      </trkpt>
      <trkpt lat="45.385" lon="4.74948">
        <ele>188.2</ele>
        <time>2021-04-22T12:33:41Z</time>
      </trkpt>
      <trkpt lat="45.3852" lon="4.74938">
        <ele>187.1</ele>
        <time>2021-04-22T12:33:46Z</time>
      </trkpt>
      <trkpt lat="45.38541" lon="4.74937">
        <ele>189.8</ele>
        <time>2021-04-22T12:33:51Z</time>
      </trkpt>
      <trkpt lat="45.3856" lon="4.74927">
        <ele>192.2</ele>
        <time>2021-04-22T12:33:57Z</time>
      </trkpt>
      <trkpt lat="45.38578" lon="4.74915">
        <ele>189.8</ele>
        <time>2021-04-22T12:34:02Z</time>
      </trkpt>
      <trkpt lat="45.38597" lon="4.74901">
        <ele>187.2</ele>
        <time>2021-04-22T12:34:08Z</time>
      </trkpt>
      <trkpt lat="45.3861" lon="4.74879">
        <ele>189.2</ele>
        <time>2021-04-22T12:34:13Z</time>
      </trkpt>
      <trkpt lat="45.38621" lon="4.74853">
        <ele>190.7</ele>
        <time>2021-04-22T12:34:18Z</time>
      </trkpt>
      <trkpt lat="45.38626" lon="4.74824">
        <ele>190.9</ele>
        <time>2021-04-22T12:34:23Z</time>
      </trkpt>
      <trkpt lat="45.3863" lon="4.74797">
        <ele>191.9</ele>
        <time>2021-04-22T12:34:28Z</time>
      </trkpt>
      <trkpt lat="45.38613" lon="4.74781">
        <ele>193</ele>
        <time>2021-04-22T12:34:34Z</time>
      </trkpt>
      <trkpt lat="45.38599" lon="4.74774">
        <ele>195.4</ele>
        <time>2021-04-22T12:34:40Z</time>
      </trkpt>
      <trkpt lat="45.38585" lon="4.7477">
        <ele>196.5</ele>
        <time>2021-04-22T12:34:45Z</time>
      </trkpt>
      <trkpt lat="45.38571" lon="4.7477">
        <ele>197.8</ele>
        <time>2021-04-22T12:34:50Z</time>
      </trkpt>
      <trkpt lat="45.38557" lon="4.7477">
        <ele>198.3</ele>
        <time>2021-04-22T12:34:56Z</time>
      </trkpt>
      <trkpt lat="45.38545" lon="4.74768">
        <ele>199.4</ele>
        <time>2021-04-22T12:35:02Z</time>
      </trkpt>
      <trkpt lat="45.38533" lon="4.74767">
        <ele>203.1</ele>
        <time>2021-04-22T12:35:07Z</time>
      </trkpt>
      <trkpt lat="45.38522" lon="4.74764">
        <ele>205.9</ele>
        <time>2021-04-22T12:35:12Z</time>
      </trkpt>
      <trkpt lat="45.38513" lon="4.74754">
        <ele>207.6</ele>
        <time>2021-04-22T12:35:17Z</time>
      </trkpt>
      <trkpt lat="45.38527" lon="4.74727">
        <ele>204.8</ele>
        <time>2021-04-22T12:35:23Z</time>
      </trkpt>
      <trkpt lat="45.38559" lon="4.74718">
        <ele>200</ele>
        <time>2021-04-22T12:35:28Z</time>
      </trkpt>
      <trkpt lat="45.38595" lon="4.74686">
        <ele>197.6</ele>
        <time>2021-04-22T12:35:34Z</time>
      </trkpt>
      <trkpt lat="45.3863" lon="4.74655">
        <ele>197.6</ele>
        <time>2021-04-22T12:35:40Z</time>
      </trkpt>
      <trkpt lat="45.38657" lon="4.74634">
        <ele>197.9</ele>
        <time>2021-04-22T12:35:45Z</time>
      </trkpt>
      <trkpt lat="45.38676" lon="4.7462">
        <ele>198.6</ele>
        <time>2021-04-22T12:35:50Z</time>
      </trkpt>
      <trkpt lat="45.387" lon="4.74608">
        <ele>197.9</ele>
        <time>2021-04-22T12:35:55Z</time>
      </trkpt>
      <trkpt lat="45.38732" lon="4.74592">
        <ele>196.7</ele>
        <time>2021-04-22T12:36:01Z</time>
      </trkpt>
      <trkpt lat="45.3876" lon="4.74571">
        <ele>196.6</ele>
        <time>2021-04-22T12:36:07Z</time>
      </trkpt>
      <trkpt lat="45.38787" lon="4.74552">
        <ele>196.6</ele>
        <time>2021-04-22T12:36:13Z</time>
      </trkpt>
      <trkpt lat="45.38796" lon="4.74517">
        <ele>195.5</ele>
        <time>2021-04-22T12:36:19Z</time>
      </trkpt>
      <trkpt lat="45.38773" lon="4.7451">
        <ele>196.8</ele>
        <time>2021-04-22T12:36:24Z</time>
      </trkpt>
      <trkpt lat="45.38747" lon="4.74498">
        <ele>198.2</ele>
        <time>2021-04-22T12:36:30Z</time>
      </trkpt>
      <trkpt lat="45.38735" lon="4.74484">
        <ele>197.8</ele>
        <time>2021-04-22T12:36:36Z</time>
      </trkpt>
      <trkpt lat="45.38741" lon="4.74491">
        <ele>198.2</ele>
        <time>2021-04-22T12:36:41Z</time>
      </trkpt>
      <trkpt lat="45.38759" lon="4.74502">
        <ele>197.5</ele>
        <time>2021-04-22T12:36:46Z</time>
      </trkpt>
      <trkpt lat="45.38723" lon="4.7445">
        <ele>195.3</ele>
        <time>2021-04-22T12:36:52Z</time>
      </trkpt>
      <trkpt lat="45.38699" lon="4.74413">
        <ele>195.3</ele>
        <time>2021-04-22T12:36:58Z</time>
      </trkpt>
      <trkpt lat="45.38677" lon="4.74378">
        <ele>196</ele>
        <time>2021-04-22T12:37:04Z</time>
      </trkpt>
      <trkpt lat="45.38656" lon="4.74348">
        <ele>198.1</ele>
        <time>2021-04-22T12:37:10Z</time>
      </trkpt>
      <trkpt lat="45.38646" lon="4.7433">
        <ele>199.6</ele>
        <time>2021-04-22T12:37:15Z</time>
      </trkpt>
      <trkpt lat="45.38638" lon="4.74314">
        <ele>199.6</ele>
        <time>2021-04-22T12:37:20Z</time>
      </trkpt>
      <trkpt lat="45.38622" lon="4.74307">
        <ele>199.6</ele>
        <time>2021-04-22T12:37:26Z</time>
      </trkpt>
      <trkpt lat="45.38613" lon="4.74289">
        <ele>199.6</ele>
        <time>2021-04-22T12:37:31Z</time>
      </trkpt>
      <trkpt lat="45.38619" lon="4.74257">
        <ele>199.6</ele>
        <time>2021-04-22T12:37:36Z</time>
      </trkpt>
      <trkpt lat="45.38629" lon="4.74227">
        <ele>199.4</ele>
        <time>2021-04-22T12:37:41Z</time>
      </trkpt>
      <trkpt lat="45.3864" lon="4.74197">
        <ele>199.4</ele>
        <time>2021-04-22T12:37:47Z</time>
      </trkpt>
      <trkpt lat="45.38649" lon="4.74172">
        <ele>199.3</ele>
        <time>2021-04-22T12:37:52Z</time>
      </trkpt>
      <trkpt lat="45.38648" lon="4.74141">
        <ele>199.4</ele>
        <time>2021-04-22T12:37:57Z</time>
      </trkpt>
      <trkpt lat="45.38642" lon="4.74113">
        <ele>199.4</ele>
        <time>2021-04-22T12:38:02Z</time>
      </trkpt>
      <trkpt lat="45.38628" lon="4.74087">
        <ele>199.4</ele>
        <time>2021-04-22T12:38:07Z</time>
      </trkpt>
      <trkpt lat="45.38616" lon="4.74068">
        <ele>202.3</ele>
        <time>2021-04-22T12:38:13Z</time>
      </trkpt>
      <trkpt lat="45.38608" lon="4.74039">
        <ele>202.9</ele>
        <time>2021-04-22T12:38:18Z</time>
      </trkpt>
      <trkpt lat="45.38604" lon="4.7401">
        <ele>204.7</ele>
        <time>2021-04-22T12:38:24Z</time>
      </trkpt>
      <trkpt lat="45.38604" lon="4.73984">
        <ele>205.3</ele>
        <time>2021-04-22T12:38:30Z</time>
      </trkpt>
      <trkpt lat="45.38605" lon="4.73955">
        <ele>206.3</ele>
        <time>2021-04-22T12:38:36Z</time>
      </trkpt>
      <trkpt lat="45.38609" lon="4.73924">
        <ele>205.2</ele>
        <time>2021-04-22T12:38:42Z</time>
      </trkpt>
      <trkpt lat="45.38614" lon="4.73893">
        <ele>205.9</ele>
        <time>2021-04-22T12:38:48Z</time>
      </trkpt>
      <trkpt lat="45.38615" lon="4.73864">
        <ele>208.3</ele>
        <time>2021-04-22T12:38:54Z</time>
      </trkpt>
      <trkpt lat="45.38613" lon="4.73836">
        <ele>207.9</ele>
        <time>2021-04-22T12:39:00Z</time>
      </trkpt>
      <trkpt lat="45.3861" lon="4.7381">
        <ele>206.9</ele>
        <time>2021-04-22T12:39:06Z</time>
      </trkpt>
      <trkpt lat="45.38608" lon="4.73804">
        <ele>206.1</ele>
        <time>2021-04-22T12:39:12Z</time>
      </trkpt>
      <trkpt lat="45.38609" lon="4.73799">
        <ele>208.3</ele>
        <time>2021-04-22T12:39:18Z</time>
      </trkpt>
      <trkpt lat="45.38611" lon="4.73796">
        <ele>208.3</ele>
        <time>2021-04-22T12:39:23Z</time>
      </trkpt>
      <trkpt lat="45.38609" lon="4.73792">
        <ele>208.3</ele>
        <time>2021-04-22T12:39:28Z</time>
      </trkpt>
      <trkpt lat="45.38607" lon="4.73788">
        <ele>208.3</ele>
        <time>2021-04-22T12:39:34Z</time>
      </trkpt>
      <trkpt lat="45.38607" lon="4.7378">
        <ele>208.3</ele>
        <time>2021-04-22T12:39:39Z</time>
      </trkpt>
      <trkpt lat="45.38607" lon="4.73776">
        <ele>208.3</ele>
        <time>2021-04-22T12:39:44Z</time>
      </trkpt>
      <trkpt lat="45.38607" lon="4.73771">
        <ele>208.2</ele>
        <time>2021-04-22T12:39:49Z</time>
      </trkpt>
      <trkpt lat="45.38607" lon="4.73768">
        <ele>208.3</ele>
        <time>2021-04-22T12:39:54Z</time>
      </trkpt>
      <trkpt lat="45.38604" lon="4.73761">
        <ele>208.3</ele>
        <time>2021-04-22T12:40:00Z</time>
      </trkpt>
      <trkpt lat="45.386" lon="4.73757">
        <ele>208.2</ele>
        <time>2021-04-22T12:40:05Z</time>
      </trkpt>
      <trkpt lat="45.38597" lon="4.73755">
        <ele>208.3</ele>
        <time>2021-04-22T12:40:10Z</time>
      </trkpt>
      <trkpt lat="45.38597" lon="4.73752">
        <ele>203.7</ele>
        <time>2021-04-22T12:40:16Z</time>
      </trkpt>
      <trkpt lat="45.38595" lon="4.73752">
        <ele>206.8</ele>
        <time>2021-04-22T12:40:21Z</time>
      </trkpt>
      <trkpt lat="45.38592" lon="4.73749">
        <ele>208</ele>
        <time>2021-04-22T12:40:27Z</time>
      </trkpt>
      <trkpt lat="45.38586" lon="4.73742">
        <ele>206.1</ele>
        <time>2021-04-22T12:40:32Z</time>
      </trkpt>
      <trkpt lat="45.38574" lon="4.7373">
        <ele>204.7</ele>
        <time>2021-04-22T12:40:38Z</time>
      </trkpt>
      <trkpt lat="45.38572" lon="4.73722">
        <ele>205.8</ele>
        <time>2021-04-22T12:40:43Z</time>
      </trkpt>
      <trkpt lat="45.38572" lon="4.73722">
        <ele>205.7</ele>
        <time>2021-04-22T12:40:49Z</time>
      </trkpt>
      <trkpt lat="45.38572" lon="4.73721">
        <ele>206.4</ele>
        <time>2021-04-22T12:40:55Z</time>
      </trkpt>
      <trkpt lat="45.38572" lon="4.7372">
        <ele>200.4</ele>
        <time>2021-04-22T12:41:00Z</time>
      </trkpt>
      <trkpt lat="45.38573" lon="4.73718">
        <ele>204.1</ele>
        <time>2021-04-22T12:41:05Z</time>
      </trkpt>
      <trkpt lat="45.38573" lon="4.73719">
        <ele>206.9</ele>
        <time>2021-04-22T12:41:10Z</time>
      </trkpt>
      <trkpt lat="45.38574" lon="4.73718">
        <ele>205.2</ele>
        <time>2021-04-22T12:41:16Z</time>
      </trkpt>
      <trkpt lat="45.38574" lon="4.73717">
        <ele>203.8</ele>
        <time>2021-04-22T12:41:21Z</time>
      </trkpt>
      <trkpt lat="45.38574" lon="4.73715">
        <ele>203.9</ele>
        <time>2021-04-22T12:41:26Z</time>
      </trkpt>
      <trkpt lat="45.38574" lon="4.73714">
        <ele>204.9</ele>
        <time>2021-04-22T12:41:32Z</time>
      </trkpt>
      <trkpt lat="45.38569" lon="4.73712">
        <ele>204.7</ele>
        <time>2021-04-22T12:41:37Z</time>
      </trkpt>
      <trkpt lat="45.38565" lon="4.73714">
        <ele>201.3</ele>
        <time>2021-04-22T12:41:42Z</time>
      </trkpt>
      <trkpt lat="45.38565" lon="4.73715">
        <ele>204</ele>
        <time>2021-04-22T12:41:47Z</time>
      </trkpt>
      <trkpt lat="45.38556" lon="4.73715">
        <ele>203.9</ele>
        <time>2021-04-22T12:41:52Z</time>
      </trkpt>
      <trkpt lat="45.38545" lon="4.73715">
        <ele>204.8</ele>
        <time>2021-04-22T12:41:57Z</time>
      </trkpt>
      <trkpt lat="45.38543" lon="4.73713">
        <ele>197.7</ele>
        <time>2021-04-22T12:42:03Z</time>
      </trkpt>
      <trkpt lat="45.38544" lon="4.73707">
        <ele>206.7</ele>
        <time>2021-04-22T12:42:08Z</time>
      </trkpt>
      <trkpt lat="45.38539" lon="4.73708">
        <ele>208.6</ele>
        <time>2021-04-22T12:42:14Z</time>
      </trkpt>
      <trkpt lat="45.38534" lon="4.73714">
        <ele>210.2</ele>
        <time>2021-04-22T12:42:20Z</time>
      </trkpt>
      <trkpt lat="45.3853" lon="4.73714">
        <ele>210.3</ele>
        <time>2021-04-22T12:42:25Z</time>
      </trkpt>
      <trkpt lat="45.38525" lon="4.73717">
        <ele>208.1</ele>
        <time>2021-04-22T12:42:30Z</time>
      </trkpt>
      <trkpt lat="45.38522" lon="4.73719">
        <ele>210.9</ele>
        <time>2021-04-22T12:42:35Z</time>
      </trkpt>
      <trkpt lat="45.38521" lon="4.7372">
        <ele>212.4</ele>
        <time>2021-04-22T12:42:41Z</time>
      </trkpt>
      <trkpt lat="45.38514" lon="4.73724">
        <ele>210.7</ele>
        <time>2021-04-22T12:42:46Z</time>
      </trkpt>
      <trkpt lat="45.38503" lon="4.73726">
        <ele>213.9</ele>
        <time>2021-04-22T12:42:52Z</time>
      </trkpt>
      <trkpt lat="45.38497" lon="4.73723">
        <ele>204.2</ele>
        <time>2021-04-22T12:42:57Z</time>
      </trkpt>
      <trkpt lat="45.38493" lon="4.73721">
        <ele>207.9</ele>
        <time>2021-04-22T12:43:03Z</time>
      </trkpt>
      <trkpt lat="45.38488" lon="4.73718">
        <ele>212</ele>
        <time>2021-04-22T12:43:08Z</time>
      </trkpt>
      <trkpt lat="45.38483" lon="4.73716">
        <ele>210.7</ele>
        <time>2021-04-22T12:43:13Z</time>
      </trkpt>
      <trkpt lat="45.38477" lon="4.73715">
        <ele>210.4</ele>
        <time>2021-04-22T12:43:18Z</time>
      </trkpt>
      <trkpt lat="45.38475" lon="4.73713">
        <ele>212.4</ele>
        <time>2021-04-22T12:43:23Z</time>
      </trkpt>
      <trkpt lat="45.38473" lon="4.7371">
        <ele>207.7</ele>
        <time>2021-04-22T12:43:29Z</time>
      </trkpt>
      <trkpt lat="45.38472" lon="4.73709">
        <ele>214.7</ele>
        <time>2021-04-22T12:43:34Z</time>
      </trkpt>
      <trkpt lat="45.3847" lon="4.73708">
        <ele>204.1</ele>
        <time>2021-04-22T12:43:39Z</time>
      </trkpt>
      <trkpt lat="45.38464" lon="4.73706">
        <ele>208.4</ele>
        <time>2021-04-22T12:43:44Z</time>
      </trkpt>
      <trkpt lat="45.38459" lon="4.73704">
        <ele>212.3</ele>
        <time>2021-04-22T12:43:50Z</time>
      </trkpt>
      <trkpt lat="45.38449" lon="4.73704">
        <ele>215.5</ele>
        <time>2021-04-22T12:43:55Z</time>
      </trkpt>
      <trkpt lat="45.38444" lon="4.73703">
        <ele>212.7</ele>
        <time>2021-04-22T12:44:01Z</time>
      </trkpt>
      <trkpt lat="45.38444" lon="4.73705">
        <ele>211.9</ele>
        <time>2021-04-22T12:44:07Z</time>
      </trkpt>
      <trkpt lat="45.38444" lon="4.73707">
        <ele>212.5</ele>
        <time>2021-04-22T12:44:13Z</time>
      </trkpt>
      <trkpt lat="45.38442" lon="4.73706">
        <ele>214.2</ele>
        <time>2021-04-22T12:44:18Z</time>
      </trkpt>
      <trkpt lat="45.38438" lon="4.73705">
        <ele>213.3</ele>
        <time>2021-04-22T12:44:24Z</time>
      </trkpt>
      <trkpt lat="45.38433" lon="4.737">
        <ele>213.1</ele>
        <time>2021-04-22T12:44:29Z</time>
      </trkpt>
      <trkpt lat="45.38432" lon="4.73699">
        <ele>217</ele>
        <time>2021-04-22T12:44:35Z</time>
      </trkpt>
      <trkpt lat="45.3843" lon="4.73699">
        <ele>216.7</ele>
        <time>2021-04-22T12:44:40Z</time>
      </trkpt>
      <trkpt lat="45.38429" lon="4.737">
        <ele>215.9</ele>
        <time>2021-04-22T12:44:46Z</time>
      </trkpt>
      <trkpt lat="45.38427" lon="4.73702">
        <ele>216.3</ele>
        <time>2021-04-22T12:44:51Z</time>
      </trkpt>
      <trkpt lat="45.38422" lon="4.73701">
        <ele>218.9</ele>
        <time>2021-04-22T12:44:56Z</time>
      </trkpt>
      <trkpt lat="45.38417" lon="4.73699">
        <ele>220.4</ele>
        <time>2021-04-22T12:45:02Z</time>
      </trkpt>
      <trkpt lat="45.38412" lon="4.73696">
        <ele>223.4</ele>
        <time>2021-04-22T12:45:07Z</time>
      </trkpt>
      <trkpt lat="45.38407" lon="4.73693">
        <ele>221.8</ele>
        <time>2021-04-22T12:45:13Z</time>
      </trkpt>
      <trkpt lat="45.38404" lon="4.7369">
        <ele>221.8</ele>
        <time>2021-04-22T12:45:18Z</time>
      </trkpt>
      <trkpt lat="45.38402" lon="4.73684">
        <ele>221.4</ele>
        <time>2021-04-22T12:45:23Z</time>
      </trkpt>
      <trkpt lat="45.38401" lon="4.73679">
        <ele>225.1</ele>
        <time>2021-04-22T12:45:28Z</time>
      </trkpt>
      <trkpt lat="45.384" lon="4.73676">
        <ele>226</ele>
        <time>2021-04-22T12:45:34Z</time>
      </trkpt>
      <trkpt lat="45.384" lon="4.73678">
        <ele>226.7</ele>
        <time>2021-04-22T12:45:39Z</time>
      </trkpt>
      <trkpt lat="45.384" lon="4.73678">
        <ele>227.3</ele>
        <time>2021-04-22T12:45:44Z</time>
      </trkpt>
      <trkpt lat="45.384" lon="4.73674">
        <ele>224.2</ele>
        <time>2021-04-22T12:45:49Z</time>
      </trkpt>
      <trkpt lat="45.38399" lon="4.73668">
        <ele>227.6</ele>
        <time>2021-04-22T12:45:55Z</time>
      </trkpt>
      <trkpt lat="45.38398" lon="4.73662">
        <ele>232.3</ele>
        <time>2021-04-22T12:46:00Z</time>
      </trkpt>
      <trkpt lat="45.38397" lon="4.73656">
        <ele>228.9</ele>
        <time>2021-04-22T12:46:05Z</time>
      </trkpt>
      <trkpt lat="45.38398" lon="4.7365">
        <ele>229.3</ele>
        <time>2021-04-22T12:46:10Z</time>
      </trkpt>
      <trkpt lat="45.38397" lon="4.73643">
        <ele>229.2</ele>
        <time>2021-04-22T12:46:16Z</time>
      </trkpt>
      <trkpt lat="45.38397" lon="4.73637">
        <ele>229.8</ele>
        <time>2021-04-22T12:46:22Z</time>
      </trkpt>
      <trkpt lat="45.38396" lon="4.73637">
        <ele>230.9</ele>
        <time>2021-04-22T12:46:27Z</time>
      </trkpt>
      <trkpt lat="45.38395" lon="4.73632">
        <ele>230.8</ele>
        <time>2021-04-22T12:46:32Z</time>
      </trkpt>
      <trkpt lat="45.38395" lon="4.7363">
        <ele>234</ele>
        <time>2021-04-22T12:46:38Z</time>
      </trkpt>
      <trkpt lat="45.38394" lon="4.73629">
        <ele>220.4</ele>
        <time>2021-04-22T12:46:43Z</time>
      </trkpt>
      <trkpt lat="45.38394" lon="4.73629">
        <ele>230.2</ele>
        <time>2021-04-22T12:46:48Z</time>
      </trkpt>
      <trkpt lat="45.38394" lon="4.7363">
        <ele>231.8</ele>
        <time>2021-04-22T12:46:53Z</time>
      </trkpt>
      <trkpt lat="45.38394" lon="4.7363">
        <ele>232.3</ele>
        <time>2021-04-22T12:46:58Z</time>
      </trkpt>
      <trkpt lat="45.38394" lon="4.7363">
        <ele>231.9</ele>
        <time>2021-04-22T12:47:04Z</time>
      </trkpt>
      <trkpt lat="45.38395" lon="4.7363">
        <ele>233.4</ele>
        <time>2021-04-22T12:47:09Z</time>
      </trkpt>
      <trkpt lat="45.38395" lon="4.7363">
        <ele>233.5</ele>
        <time>2021-04-22T12:47:15Z</time>
      </trkpt>
      <trkpt lat="45.38395" lon="4.73631">
        <ele>222.3</ele>
        <time>2021-04-22T12:47:21Z</time>
      </trkpt>
      <trkpt lat="45.38394" lon="4.73631">
        <ele>229.4</ele>
        <time>2021-04-22T12:47:26Z</time>
      </trkpt>
      <trkpt lat="45.38394" lon="4.73631">
        <ele>232.7</ele>
        <time>2021-04-22T12:47:32Z</time>
      </trkpt>
      <trkpt lat="45.38394" lon="4.73631">
        <ele>235.9</ele>
        <time>2021-04-22T12:47:38Z</time>
      </trkpt>
      <trkpt lat="45.38394" lon="4.73632">
        <ele>238.7</ele>
        <time>2021-04-22T12:47:44Z</time>
      </trkpt>
      <trkpt lat="45.38394" lon="4.73633">
        <ele>238.2</ele>
        <time>2021-04-22T12:47:50Z</time>
      </trkpt>
      <trkpt lat="45.38393" lon="4.73632">
        <ele>237.1</ele>
        <time>2021-04-22T12:47:56Z</time>
      </trkpt>
      <trkpt lat="45.38393" lon="4.73632">
        <ele>228.4</ele>
        <time>2021-04-22T12:48:01Z</time>
      </trkpt>
      <trkpt lat="45.38393" lon="4.73631">
        <ele>233.7</ele>
        <time>2021-04-22T12:48:06Z</time>
      </trkpt>
      <trkpt lat="45.38393" lon="4.73632">
        <ele>235.6</ele>
        <time>2021-04-22T12:48:11Z</time>
      </trkpt>
      <trkpt lat="45.38393" lon="4.73633">
        <ele>236.5</ele>
        <time>2021-04-22T12:48:16Z</time>
      </trkpt>
      <trkpt lat="45.38393" lon="4.73634">
        <ele>235.8</ele>
        <time>2021-04-22T12:48:21Z</time>
      </trkpt>
      <trkpt lat="45.38392" lon="4.73628">
        <ele>234.9</ele>
        <time>2021-04-22T12:48:27Z</time>
      </trkpt>
      <trkpt lat="45.38392" lon="4.73625">
        <ele>236.1</ele>
        <time>2021-04-22T12:48:33Z</time>
      </trkpt>
      <trkpt lat="45.38393" lon="4.73621">
        <ele>237.7</ele>
        <time>2021-04-22T12:48:38Z</time>
      </trkpt>
      <trkpt lat="45.38394" lon="4.73615">
        <ele>238.1</ele>
        <time>2021-04-22T12:48:43Z</time>
      </trkpt>
      <trkpt lat="45.38394" lon="4.73608">
        <ele>239.1</ele>
        <time>2021-04-22T12:48:49Z</time>
      </trkpt>
      <trkpt lat="45.38393" lon="4.73603">
        <ele>238.7</ele>
        <time>2021-04-22T12:48:54Z</time>
      </trkpt>
      <trkpt lat="45.38393" lon="4.73597">
        <ele>240.4</ele>
        <time>2021-04-22T12:49:00Z</time>
      </trkpt>
      <trkpt lat="45.38393" lon="4.73591">
        <ele>241</ele>
        <time>2021-04-22T12:49:05Z</time>
      </trkpt>
      <trkpt lat="45.38394" lon="4.73585">
        <ele>240.2</ele>
        <time>2021-04-22T12:49:11Z</time>
      </trkpt>
      <trkpt lat="45.38394" lon="4.73579">
        <ele>240.8</ele>
        <time>2021-04-22T12:49:16Z</time>
      </trkpt>
      <trkpt lat="45.38393" lon="4.73575">
        <ele>242.3</ele>
        <time>2021-04-22T12:49:22Z</time>
      </trkpt>
      <trkpt lat="45.38394" lon="4.73571">
        <ele>243.5</ele>
        <time>2021-04-22T12:49:27Z</time>
      </trkpt>
      <trkpt lat="45.38395" lon="4.73566">
        <ele>244</ele>
        <time>2021-04-22T12:49:32Z</time>
      </trkpt>
      <trkpt lat="45.38395" lon="4.73561">
        <ele>245.4</ele>
        <time>2021-04-22T12:49:37Z</time>
      </trkpt>
      <trkpt lat="45.38395" lon="4.73557">
        <ele>247.6</ele>
        <time>2021-04-22T12:49:42Z</time>
      </trkpt>
      <trkpt lat="45.38395" lon="4.73556">
        <ele>247</ele>
        <time>2021-04-22T12:49:48Z</time>
      </trkpt>
      <trkpt lat="45.38394" lon="4.73553">
        <ele>246.2</ele>
        <time>2021-04-22T12:49:53Z</time>
      </trkpt>
      <trkpt lat="45.38393" lon="4.73548">
        <ele>247.8</ele>
        <time>2021-04-22T12:49:58Z</time>
      </trkpt>
      <trkpt lat="45.38392" lon="4.73542">
        <ele>247.7</ele>
        <time>2021-04-22T12:50:04Z</time>
      </trkpt>
      <trkpt lat="45.38392" lon="4.73537">
        <ele>248.3</ele>
        <time>2021-04-22T12:50:09Z</time>
      </trkpt>
      <trkpt lat="45.38392" lon="4.73531">
        <ele>248.7</ele>
        <time>2021-04-22T12:50:14Z</time>
      </trkpt>
      <trkpt lat="45.38394" lon="4.73526">
        <ele>248.5</ele>
        <time>2021-04-22T12:50:20Z</time>
      </trkpt>
      <trkpt lat="45.38395" lon="4.73522">
        <ele>250.8</ele>
        <time>2021-04-22T12:50:26Z</time>
      </trkpt>
      <trkpt lat="45.38396" lon="4.7352">
        <ele>252.7</ele>
        <time>2021-04-22T12:50:31Z</time>
      </trkpt>
      <trkpt lat="45.38396" lon="4.73516">
        <ele>254.2</ele>
        <time>2021-04-22T12:50:36Z</time>
      </trkpt>
      <trkpt lat="45.38397" lon="4.7351">
        <ele>256.8</ele>
        <time>2021-04-22T12:50:42Z</time>
      </trkpt>
      <trkpt lat="45.38397" lon="4.73511">
        <ele>257.1</ele>
        <time>2021-04-22T12:50:47Z</time>
      </trkpt>
      <trkpt lat="45.38396" lon="4.7351">
        <ele>255.2</ele>
        <time>2021-04-22T12:50:53Z</time>
      </trkpt>
      <trkpt lat="45.38395" lon="4.73509">
        <ele>255.7</ele>
        <time>2021-04-22T12:50:59Z</time>
      </trkpt>
      <trkpt lat="45.38394" lon="4.73507">
        <ele>255.2</ele>
        <time>2021-04-22T12:51:04Z</time>
      </trkpt>
      <trkpt lat="45.38394" lon="4.73507">
        <ele>254.8</ele>
        <time>2021-04-22T12:51:10Z</time>
      </trkpt>
      <trkpt lat="45.38394" lon="4.73508">
        <ele>258.8</ele>
        <time>2021-04-22T12:51:16Z</time>
      </trkpt>
      <trkpt lat="45.38395" lon="4.73509">
        <ele>259.2</ele>
        <time>2021-04-22T12:51:21Z</time>
      </trkpt>
      <trkpt lat="45.38394" lon="4.73508">
        <ele>259.3</ele>
        <time>2021-04-22T12:51:27Z</time>
      </trkpt>
      <trkpt lat="45.38394" lon="4.73508">
        <ele>258.1</ele>
        <time>2021-04-22T12:51:33Z</time>
      </trkpt>
      <trkpt lat="45.38394" lon="4.73508">
        <ele>258</ele>
        <time>2021-04-22T12:51:39Z</time>
      </trkpt>
      <trkpt lat="45.38394" lon="4.73508">
        <ele>257.7</ele>
        <time>2021-04-22T12:51:45Z</time>
      </trkpt>
      <trkpt lat="45.38397" lon="4.73505">
        <ele>254.6</ele>
        <time>2021-04-22T12:51:51Z</time>
      </trkpt>
      <trkpt lat="45.38398" lon="4.73507">
        <ele>256.2</ele>
        <time>2021-04-22T12:51:56Z</time>
      </trkpt>
      <trkpt lat="45.38403" lon="4.73509">
        <ele>258.1</ele>
        <time>2021-04-22T12:52:01Z</time>
      </trkpt>
      <trkpt lat="45.3841" lon="4.73508">
        <ele>260.5</ele>
        <time>2021-04-22T12:52:06Z</time>
      </trkpt>
      <trkpt lat="45.38415" lon="4.73506">
        <ele>259.1</ele>
        <time>2021-04-22T12:52:12Z</time>
      </trkpt>
      <trkpt lat="45.38422" lon="4.73501">
        <ele>259.7</ele>
        <time>2021-04-22T12:52:17Z</time>
      </trkpt>
      <trkpt lat="45.38427" lon="4.73495">
        <ele>262.9</ele>
        <time>2021-04-22T12:52:23Z</time>
      </trkpt>
      <trkpt lat="45.38432" lon="4.73489">
        <ele>265.3</ele>
        <time>2021-04-22T12:52:28Z</time>
      </trkpt>
      <trkpt lat="45.38439" lon="4.73484">
        <ele>264.1</ele>
        <time>2021-04-22T12:52:34Z</time>
      </trkpt>
      <trkpt lat="45.38442" lon="4.73477">
        <ele>264.2</ele>
        <time>2021-04-22T12:52:39Z</time>
      </trkpt>
      <trkpt lat="45.38447" lon="4.73469">
        <ele>264.1</ele>
        <time>2021-04-22T12:52:45Z</time>
      </trkpt>
      <trkpt lat="45.38453" lon="4.73459">
        <ele>263.9</ele>
        <time>2021-04-22T12:52:50Z</time>
      </trkpt>
      <trkpt lat="45.3846" lon="4.73437">
        <ele>263.9</ele>
        <time>2021-04-22T12:52:56Z</time>
      </trkpt>
      <trkpt lat="45.3846" lon="4.73395">
        <ele>263.6</ele>
        <time>2021-04-22T12:53:02Z</time>
      </trkpt>
      <trkpt lat="45.38458" lon="4.73373">
        <ele>261.2</ele>
        <time>2021-04-22T12:53:07Z</time>
      </trkpt>
      <trkpt lat="45.38458" lon="4.73358">
        <ele>262.7</ele>
        <time>2021-04-22T12:53:12Z</time>
      </trkpt>
      <trkpt lat="45.38458" lon="4.73349">
        <ele>266.6</ele>
        <time>2021-04-22T12:53:17Z</time>
      </trkpt>
      <trkpt lat="45.38458" lon="4.7334">
        <ele>265.1</ele>
        <time>2021-04-22T12:53:22Z</time>
      </trkpt>
      <trkpt lat="45.38457" lon="4.73328">
        <ele>263.8</ele>
        <time>2021-04-22T12:53:28Z</time>
      </trkpt>
      <trkpt lat="45.38457" lon="4.73319">
        <ele>264.6</ele>
        <time>2021-04-22T12:53:33Z</time>
      </trkpt>
      <trkpt lat="45.38458" lon="4.73318">
        <ele>265.2</ele>
        <time>2021-04-22T12:53:38Z</time>
      </trkpt>
      <trkpt lat="45.38458" lon="4.73312">
        <ele>266.7</ele>
        <time>2021-04-22T12:53:44Z</time>
      </trkpt>
      <trkpt lat="45.38456" lon="4.73306">
        <ele>268</ele>
        <time>2021-04-22T12:53:49Z</time>
      </trkpt>
      <trkpt lat="45.38449" lon="4.733">
        <ele>268.6</ele>
        <time>2021-04-22T12:53:55Z</time>
      </trkpt>
      <trkpt lat="45.38445" lon="4.73297">
        <ele>269</ele>
        <time>2021-04-22T12:54:00Z</time>
      </trkpt>
      <trkpt lat="45.3844" lon="4.73291">
        <ele>269.4</ele>
        <time>2021-04-22T12:54:07Z</time>
      </trkpt>
      <trkpt lat="45.38437" lon="4.73285">
        <ele>271.1</ele>
        <time>2021-04-22T12:54:12Z</time>
      </trkpt>
      <trkpt lat="45.38436" lon="4.73281">
        <ele>272.8</ele>
        <time>2021-04-22T12:54:18Z</time>
      </trkpt>
      <trkpt lat="45.38435" lon="4.7328">
        <ele>272.9</ele>
        <time>2021-04-22T12:54:23Z</time>
      </trkpt>
      <trkpt lat="45.38433" lon="4.73279">
        <ele>273.6</ele>
        <time>2021-04-22T12:54:28Z</time>
      </trkpt>
      <trkpt lat="45.38429" lon="4.73274">
        <ele>272.5</ele>
        <time>2021-04-22T12:54:33Z</time>
      </trkpt>
      <trkpt lat="45.38427" lon="4.73268">
        <ele>272.8</ele>
        <time>2021-04-22T12:54:39Z</time>
      </trkpt>
      <trkpt lat="45.38427" lon="4.73268">
        <ele>273.3</ele>
        <time>2021-04-22T12:54:44Z</time>
      </trkpt>
      <trkpt lat="45.38427" lon="4.73263">
        <ele>274.1</ele>
        <time>2021-04-22T12:54:49Z</time>
      </trkpt>
      <trkpt lat="45.38426" lon="4.73258">
        <ele>274.5</ele>
        <time>2021-04-22T12:54:54Z</time>
      </trkpt>
      <trkpt lat="45.38424" lon="4.73255">
        <ele>274.2</ele>
        <time>2021-04-22T12:55:00Z</time>
      </trkpt>
      <trkpt lat="45.38421" lon="4.73251">
        <ele>275.2</ele>
        <time>2021-04-22T12:55:05Z</time>
      </trkpt>
      <trkpt lat="45.38418" lon="4.73244">
        <ele>276.6</ele>
        <time>2021-04-22T12:55:10Z</time>
      </trkpt>
      <trkpt lat="45.38415" lon="4.73237">
        <ele>276.4</ele>
        <time>2021-04-22T12:55:16Z</time>
      </trkpt>
      <trkpt lat="45.38413" lon="4.73229">
        <ele>276.7</ele>
        <time>2021-04-22T12:55:22Z</time>
      </trkpt>
      <trkpt lat="45.38411" lon="4.73224">
        <ele>278.6</ele>
        <time>2021-04-22T12:55:27Z</time>
      </trkpt>
      <trkpt lat="45.38408" lon="4.73218">
        <ele>279.2</ele>
        <time>2021-04-22T12:55:32Z</time>
      </trkpt>
      <trkpt lat="45.38406" lon="4.73212">
        <ele>279.1</ele>
        <time>2021-04-22T12:55:37Z</time>
      </trkpt>
      <trkpt lat="45.38403" lon="4.73208">
        <ele>280.4</ele>
        <time>2021-04-22T12:55:43Z</time>
      </trkpt>
      <trkpt lat="45.38399" lon="4.73204">
        <ele>282.1</ele>
        <time>2021-04-22T12:55:48Z</time>
      </trkpt>
      <trkpt lat="45.38397" lon="4.732">
        <ele>282.9</ele>
        <time>2021-04-22T12:55:53Z</time>
      </trkpt>
      <trkpt lat="45.38394" lon="4.73197">
        <ele>282.5</ele>
        <time>2021-04-22T12:55:58Z</time>
      </trkpt>
      <trkpt lat="45.38392" lon="4.73192">
        <ele>282.9</ele>
        <time>2021-04-22T12:56:03Z</time>
      </trkpt>
      <trkpt lat="45.38393" lon="4.7319">
        <ele>283.5</ele>
        <time>2021-04-22T12:56:09Z</time>
      </trkpt>
      <trkpt lat="45.38391" lon="4.73183">
        <ele>284.5</ele>
        <time>2021-04-22T12:56:14Z</time>
      </trkpt>
      <trkpt lat="45.38389" lon="4.73174">
        <ele>284.9</ele>
        <time>2021-04-22T12:56:19Z</time>
      </trkpt>
      <trkpt lat="45.38384" lon="4.73164">
        <ele>284.5</ele>
        <time>2021-04-22T12:56:24Z</time>
      </trkpt>
      <trkpt lat="45.38379" lon="4.73154">
        <ele>284.8</ele>
        <time>2021-04-22T12:56:30Z</time>
      </trkpt>
      <trkpt lat="45.38375" lon="4.73146">
        <ele>286.2</ele>
        <time>2021-04-22T12:56:35Z</time>
      </trkpt>
      <trkpt lat="45.38371" lon="4.73136">
        <ele>287.3</ele>
        <time>2021-04-22T12:56:41Z</time>
      </trkpt>
      <trkpt lat="45.38368" lon="4.73127">
        <ele>287.1</ele>
        <time>2021-04-22T12:56:46Z</time>
      </trkpt>
      <trkpt lat="45.38368" lon="4.73116">
        <ele>287.5</ele>
        <time>2021-04-22T12:56:51Z</time>
      </trkpt>
      <trkpt lat="45.38365" lon="4.73106">
        <ele>287.7</ele>
        <time>2021-04-22T12:56:57Z</time>
      </trkpt>
      <trkpt lat="45.38363" lon="4.73094">
        <ele>287.3</ele>
        <time>2021-04-22T12:57:02Z</time>
      </trkpt>
      <trkpt lat="45.38365" lon="4.73075">
        <ele>285.4</ele>
        <time>2021-04-22T12:57:07Z</time>
      </trkpt>
      <trkpt lat="45.38373" lon="4.73044">
        <ele>283.6</ele>
        <time>2021-04-22T12:57:13Z</time>
      </trkpt>
      <trkpt lat="45.38389" lon="4.73017">
        <ele>282.1</ele>
        <time>2021-04-22T12:57:18Z</time>
      </trkpt>
      <trkpt lat="45.38394" lon="4.72965">
        <ele>276.9</ele>
        <time>2021-04-22T12:57:24Z</time>
      </trkpt>
      <trkpt lat="45.38399" lon="4.72933">
        <ele>274.1</ele>
        <time>2021-04-22T12:57:29Z</time>
      </trkpt>
      <trkpt lat="45.38376" lon="4.7289">
        <ele>271.8</ele>
        <time>2021-04-22T12:57:35Z</time>
      </trkpt>
      <trkpt lat="45.38359" lon="4.72866">
        <ele>270.4</ele>
        <time>2021-04-22T12:57:41Z</time>
      </trkpt>
      <trkpt lat="45.38352" lon="4.72863">
        <ele>269.5</ele>
        <time>2021-04-22T12:57:46Z</time>
      </trkpt>
      <trkpt lat="45.38356" lon="4.72874">
        <ele>270.1</ele>
        <time>2021-04-22T12:57:51Z</time>
      </trkpt>
      <trkpt lat="45.38355" lon="4.72864">
        <ele>267.9</ele>
        <time>2021-04-22T12:57:57Z</time>
      </trkpt>
      <trkpt lat="45.38349" lon="4.72861">
        <ele>282.7</ele>
        <time>2021-04-22T12:58:02Z</time>
      </trkpt>
      <trkpt lat="45.38345" lon="4.72855">
        <ele>283.8</ele>
        <time>2021-04-22T12:58:08Z</time>
      </trkpt>
      <trkpt lat="45.38342" lon="4.72849">
        <ele>283.8</ele>
        <time>2021-04-22T12:58:13Z</time>
      </trkpt>
      <trkpt lat="45.38337" lon="4.72849">
        <ele>283.8</ele>
        <time>2021-04-22T12:58:18Z</time>
      </trkpt>
      <trkpt lat="45.38335" lon="4.72852">
        <ele>284.1</ele>
        <time>2021-04-22T12:58:23Z</time>
      </trkpt>
      <trkpt lat="45.38332" lon="4.72858">
        <ele>284.6</ele>
        <time>2021-04-22T12:58:28Z</time>
      </trkpt>
      <trkpt lat="45.38327" lon="4.72854">
        <ele>285.2</ele>
        <time>2021-04-22T12:58:33Z</time>
      </trkpt>
      <trkpt lat="45.38326" lon="4.72846">
        <ele>285.9</ele>
        <time>2021-04-22T12:58:38Z</time>
      </trkpt>
      <trkpt lat="45.38326" lon="4.72838">
        <ele>286.3</ele>
        <time>2021-04-22T12:58:43Z</time>
      </trkpt>
      <trkpt lat="45.38327" lon="4.7283">
        <ele>286.6</ele>
        <time>2021-04-22T12:58:49Z</time>
      </trkpt>
      <trkpt lat="45.38329" lon="4.72825">
        <ele>286.5</ele>
        <time>2021-04-22T12:58:54Z</time>
      </trkpt>
      <trkpt lat="45.3833" lon="4.7282">
        <ele>286.5</ele>
        <time>2021-04-22T12:59:00Z</time>
      </trkpt>
      <trkpt lat="45.38328" lon="4.72822">
        <ele>286.5</ele>
        <time>2021-04-22T12:59:05Z</time>
      </trkpt>
      <trkpt lat="45.38324" lon="4.72825">
        <ele>286.5</ele>
        <time>2021-04-22T12:59:11Z</time>
      </trkpt>
      <trkpt lat="45.38323" lon="4.72832">
        <ele>286.4</ele>
        <time>2021-04-22T12:59:16Z</time>
      </trkpt>
      <trkpt lat="45.38323" lon="4.72831">
        <ele>286.5</ele>
        <time>2021-04-22T12:59:22Z</time>
      </trkpt>
      <trkpt lat="45.38325" lon="4.72825">
        <ele>286.6</ele>
        <time>2021-04-22T12:59:28Z</time>
      </trkpt>
      <trkpt lat="45.38326" lon="4.72821">
        <ele>287.1</ele>
        <time>2021-04-22T12:59:33Z</time>
      </trkpt>
      <trkpt lat="45.38326" lon="4.72818">
        <ele>286.8</ele>
        <time>2021-04-22T12:59:38Z</time>
      </trkpt>
      <trkpt lat="45.38325" lon="4.72812">
        <ele>286.9</ele>
        <time>2021-04-22T12:59:44Z</time>
      </trkpt>
      <trkpt lat="45.38324" lon="4.72807">
        <ele>286.5</ele>
        <time>2021-04-22T12:59:49Z</time>
      </trkpt>
      <trkpt lat="45.38323" lon="4.72794">
        <ele>286.4</ele>
        <time>2021-04-22T12:59:55Z</time>
      </trkpt>
      <trkpt lat="45.38323" lon="4.72783">
        <ele>286.4</ele>
        <time>2021-04-22T13:00:01Z</time>
      </trkpt>
      <trkpt lat="45.38323" lon="4.72782">
        <ele>286.3</ele>
        <time>2021-04-22T13:00:06Z</time>
      </trkpt>
      <trkpt lat="45.38323" lon="4.72776">
        <ele>286.2</ele>
        <time>2021-04-22T13:00:12Z</time>
      </trkpt>
      <trkpt lat="45.38323" lon="4.72766">
        <ele>286.2</ele>
        <time>2021-04-22T13:00:17Z</time>
      </trkpt>
      <trkpt lat="45.38322" lon="4.72756">
        <ele>286.2</ele>
        <time>2021-04-22T13:00:22Z</time>
      </trkpt>
      <trkpt lat="45.38322" lon="4.72748">
        <ele>286.2</ele>
        <time>2021-04-22T13:00:28Z</time>
      </trkpt>
      <trkpt lat="45.38325" lon="4.72741">
        <ele>285.9</ele>
        <time>2021-04-22T13:00:33Z</time>
      </trkpt>
      <trkpt lat="45.38331" lon="4.72736">
        <ele>286.1</ele>
        <time>2021-04-22T13:00:39Z</time>
      </trkpt>
      <trkpt lat="45.38336" lon="4.72729">
        <ele>286.1</ele>
        <time>2021-04-22T13:00:44Z</time>
      </trkpt>
      <trkpt lat="45.38341" lon="4.72719">
        <ele>286.1</ele>
        <time>2021-04-22T13:00:50Z</time>
      </trkpt>
      <trkpt lat="45.3835" lon="4.72692">
        <ele>286</ele>
        <time>2021-04-22T13:00:56Z</time>
      </trkpt>
      <trkpt lat="45.38374" lon="4.72668">
        <ele>286</ele>
        <time>2021-04-22T13:01:01Z</time>
      </trkpt>
      <trkpt lat="45.38405" lon="4.72643">
        <ele>285.9</ele>
        <time>2021-04-22T13:01:07Z</time>
      </trkpt>
      <trkpt lat="45.38437" lon="4.72616">
        <ele>285.8</ele>
        <time>2021-04-22T13:01:13Z</time>
      </trkpt>
      <trkpt lat="45.38453" lon="4.72604">
        <ele>285.8</ele>
        <time>2021-04-22T13:01:18Z</time>
      </trkpt>
      <trkpt lat="45.38463" lon="4.72597">
        <ele>286.7</ele>
        <time>2021-04-22T13:01:23Z</time>
      </trkpt>
      <trkpt lat="45.38475" lon="4.72583">
        <ele>286.8</ele>
        <time>2021-04-22T13:01:28Z</time>
      </trkpt>
      <trkpt lat="45.38487" lon="4.72568">
        <ele>286.8</ele>
        <time>2021-04-22T13:01:34Z</time>
      </trkpt>
      <trkpt lat="45.38503" lon="4.72553">
        <ele>286.8</ele>
        <time>2021-04-22T13:01:39Z</time>
      </trkpt>
      <trkpt lat="45.38514" lon="4.72543">
        <ele>286.8</ele>
        <time>2021-04-22T13:01:44Z</time>
      </trkpt>
      <trkpt lat="45.38523" lon="4.72533">
        <ele>286.8</ele>
        <time>2021-04-22T13:01:50Z</time>
      </trkpt>
      <trkpt lat="45.38528" lon="4.72523">
        <ele>286.9</ele>
        <time>2021-04-22T13:01:55Z</time>
      </trkpt>
      <trkpt lat="45.38535" lon="4.72511">
        <ele>286.9</ele>
        <time>2021-04-22T13:02:01Z</time>
      </trkpt>
      <trkpt lat="45.3854" lon="4.72497">
        <ele>286.9</ele>
        <time>2021-04-22T13:02:07Z</time>
      </trkpt>
      <trkpt lat="45.38545" lon="4.72486">
        <ele>287</ele>
        <time>2021-04-22T13:02:12Z</time>
      </trkpt>
      <trkpt lat="45.38549" lon="4.72474">
        <ele>287.1</ele>
        <time>2021-04-22T13:02:18Z</time>
      </trkpt>
      <trkpt lat="45.38553" lon="4.72464">
        <ele>297.4</ele>
        <time>2021-04-22T13:02:24Z</time>
      </trkpt>
      <trkpt lat="45.38558" lon="4.72453">
        <ele>296.9</ele>
        <time>2021-04-22T13:02:30Z</time>
      </trkpt>
      <trkpt lat="45.38563" lon="4.72441">
        <ele>294.9</ele>
        <time>2021-04-22T13:02:35Z</time>
      </trkpt>
      <trkpt lat="45.38568" lon="4.7243">
        <ele>296.5</ele>
        <time>2021-04-22T13:02:41Z</time>
      </trkpt>
      <trkpt lat="45.38572" lon="4.7242">
        <ele>297.6</ele>
        <time>2021-04-22T13:02:46Z</time>
      </trkpt>
      <trkpt lat="45.38576" lon="4.72408">
        <ele>298.5</ele>
        <time>2021-04-22T13:02:52Z</time>
      </trkpt>
      <trkpt lat="45.3858" lon="4.72398">
        <ele>300.1</ele>
        <time>2021-04-22T13:02:57Z</time>
      </trkpt>
      <trkpt lat="45.38583" lon="4.72387">
        <ele>301.7</ele>
        <time>2021-04-22T13:03:03Z</time>
      </trkpt>
      <trkpt lat="45.38587" lon="4.72378">
        <ele>303.5</ele>
        <time>2021-04-22T13:03:09Z</time>
      </trkpt>
      <trkpt lat="45.38588" lon="4.72367">
        <ele>303.2</ele>
        <time>2021-04-22T13:03:14Z</time>
      </trkpt>
      <trkpt lat="45.3859" lon="4.72356">
        <ele>297.2</ele>
        <time>2021-04-22T13:03:20Z</time>
      </trkpt>
      <trkpt lat="45.38594" lon="4.72344">
        <ele>297.2</ele>
        <time>2021-04-22T13:03:26Z</time>
      </trkpt>
      <trkpt lat="45.38598" lon="4.72333">
        <ele>297.2</ele>
        <time>2021-04-22T13:03:31Z</time>
      </trkpt>
      <trkpt lat="45.38606" lon="4.72324">
        <ele>297.2</ele>
        <time>2021-04-22T13:03:37Z</time>
      </trkpt>
      <trkpt lat="45.38615" lon="4.72325">
        <ele>297.1</ele>
        <time>2021-04-22T13:03:43Z</time>
      </trkpt>
      <trkpt lat="45.38623" lon="4.72333">
        <ele>297.1</ele>
        <time>2021-04-22T13:03:48Z</time>
      </trkpt>
      <trkpt lat="45.38626" lon="4.72343">
        <ele>297.1</ele>
        <time>2021-04-22T13:03:54Z</time>
      </trkpt>
      <trkpt lat="45.38627" lon="4.72356">
        <ele>297.1</ele>
        <time>2021-04-22T13:03:59Z</time>
      </trkpt>
      <trkpt lat="45.38625" lon="4.72369">
        <ele>297</ele>
        <time>2021-04-22T13:04:05Z</time>
      </trkpt>
      <trkpt lat="45.38622" lon="4.7238">
        <ele>297</ele>
        <time>2021-04-22T13:04:10Z</time>
      </trkpt>
      <trkpt lat="45.38622" lon="4.7239">
        <ele>297</ele>
        <time>2021-04-22T13:04:15Z</time>
      </trkpt>
      <trkpt lat="45.38625" lon="4.72398">
        <ele>305.6</ele>
        <time>2021-04-22T13:04:20Z</time>
      </trkpt>
      <trkpt lat="45.38632" lon="4.72402">
        <ele>307</ele>
        <time>2021-04-22T13:04:26Z</time>
      </trkpt>
      <trkpt lat="45.38638" lon="4.72403">
        <ele>308.6</ele>
        <time>2021-04-22T13:04:31Z</time>
      </trkpt>
      <trkpt lat="45.38644" lon="4.72405">
        <ele>304.2</ele>
        <time>2021-04-22T13:04:37Z</time>
      </trkpt>
      <trkpt lat="45.38649" lon="4.72408">
        <ele>304.2</ele>
        <time>2021-04-22T13:04:43Z</time>
      </trkpt>
      <trkpt lat="45.38653" lon="4.72416">
        <ele>304.3</ele>
        <time>2021-04-22T13:04:48Z</time>
      </trkpt>
      <trkpt lat="45.38657" lon="4.7242">
        <ele>304.3</ele>
        <time>2021-04-22T13:04:53Z</time>
      </trkpt>
      <trkpt lat="45.38663" lon="4.72422">
        <ele>304.3</ele>
        <time>2021-04-22T13:04:59Z</time>
      </trkpt>
      <trkpt lat="45.38668" lon="4.72424">
        <ele>304.3</ele>
        <time>2021-04-22T13:05:05Z</time>
      </trkpt>
      <trkpt lat="45.38672" lon="4.72429">
        <ele>304.4</ele>
        <time>2021-04-22T13:05:10Z</time>
      </trkpt>
      <trkpt lat="45.38676" lon="4.72435">
        <ele>304.4</ele>
        <time>2021-04-22T13:05:15Z</time>
      </trkpt>
      <trkpt lat="45.3868" lon="4.72441">
        <ele>304.4</ele>
        <time>2021-04-22T13:05:21Z</time>
      </trkpt>
      <trkpt lat="45.38682" lon="4.72447">
        <ele>304.4</ele>
        <time>2021-04-22T13:05:26Z</time>
      </trkpt>
      <trkpt lat="45.38686" lon="4.72452">
        <ele>304.5</ele>
        <time>2021-04-22T13:05:31Z</time>
      </trkpt>
      <trkpt lat="45.38691" lon="4.72456">
        <ele>304.5</ele>
        <time>2021-04-22T13:05:37Z</time>
      </trkpt>
      <trkpt lat="45.38695" lon="4.72462">
        <ele>304.5</ele>
        <time>2021-04-22T13:05:42Z</time>
      </trkpt>
      <trkpt lat="45.38699" lon="4.72468">
        <ele>304.6</ele>
        <time>2021-04-22T13:05:48Z</time>
      </trkpt>
      <trkpt lat="45.38703" lon="4.72478">
        <ele>304.6</ele>
        <time>2021-04-22T13:05:53Z</time>
      </trkpt>
      <trkpt lat="45.38705" lon="4.72485">
        <ele>304.6</ele>
        <time>2021-04-22T13:05:59Z</time>
      </trkpt>
      <trkpt lat="45.38706" lon="4.72489">
        <ele>304.6</ele>
        <time>2021-04-22T13:06:04Z</time>
      </trkpt>
      <trkpt lat="45.38709" lon="4.72493">
        <ele>304.6</ele>
        <time>2021-04-22T13:06:10Z</time>
      </trkpt>
      <trkpt lat="45.38716" lon="4.72499">
        <ele>304.7</ele>
        <time>2021-04-22T13:06:16Z</time>
      </trkpt>
      <trkpt lat="45.3872" lon="4.72501">
        <ele>304.8</ele>
        <time>2021-04-22T13:06:21Z</time>
      </trkpt>
      <trkpt lat="45.3872" lon="4.725">
        <ele>304.8</ele>
        <time>2021-04-22T13:06:26Z</time>
      </trkpt>
      <trkpt lat="45.38723" lon="4.72501">
        <ele>304.8</ele>
        <time>2021-04-22T13:06:31Z</time>
      </trkpt>
      <trkpt lat="45.38727" lon="4.72504">
        <ele>304.8</ele>
        <time>2021-04-22T13:06:37Z</time>
      </trkpt>
      <trkpt lat="45.3873" lon="4.72508">
        <ele>304.9</ele>
        <time>2021-04-22T13:06:42Z</time>
      </trkpt>
      <trkpt lat="45.38732" lon="4.72512">
        <ele>305</ele>
        <time>2021-04-22T13:06:48Z</time>
      </trkpt>
      <trkpt lat="45.38731" lon="4.72511">
        <ele>304.9</ele>
        <time>2021-04-22T13:06:54Z</time>
      </trkpt>
      <trkpt lat="45.38731" lon="4.7251">
        <ele>304.8</ele>
        <time>2021-04-22T13:06:59Z</time>
      </trkpt>
      <trkpt lat="45.38731" lon="4.7251">
        <ele>304.8</ele>
        <time>2021-04-22T13:07:04Z</time>
      </trkpt>
      <trkpt lat="45.38729" lon="4.72508">
        <ele>304.8</ele>
        <time>2021-04-22T13:07:10Z</time>
      </trkpt>
      <trkpt lat="45.38726" lon="4.72512">
        <ele>304.9</ele>
        <time>2021-04-22T13:07:15Z</time>
      </trkpt>
      <trkpt lat="45.38727" lon="4.7251">
        <ele>305</ele>
        <time>2021-04-22T13:07:20Z</time>
      </trkpt>
      <trkpt lat="45.38727" lon="4.72511">
        <ele>304.9</ele>
        <time>2021-04-22T13:07:26Z</time>
      </trkpt>
      <trkpt lat="45.38727" lon="4.72511">
        <ele>304.8</ele>
        <time>2021-04-22T13:07:31Z</time>
      </trkpt>
      <trkpt lat="45.38728" lon="4.72511">
        <ele>304.8</ele>
        <time>2021-04-22T13:07:37Z</time>
      </trkpt>
      <trkpt lat="45.38729" lon="4.72511">
        <ele>304.8</ele>
        <time>2021-04-22T13:07:42Z</time>
      </trkpt>
      <trkpt lat="45.38729" lon="4.72512">
        <ele>304.9</ele>
        <time>2021-04-22T13:07:48Z</time>
      </trkpt>
      <trkpt lat="45.38734" lon="4.72512">
        <ele>304.9</ele>
        <time>2021-04-22T13:07:53Z</time>
      </trkpt>
      <trkpt lat="45.38738" lon="4.72516">
        <ele>305</ele>
        <time>2021-04-22T13:07:58Z</time>
      </trkpt>
      <trkpt lat="45.38742" lon="4.7252">
        <ele>304.9</ele>
        <time>2021-04-22T13:08:04Z</time>
      </trkpt>
      <trkpt lat="45.38746" lon="4.72527">
        <ele>305</ele>
        <time>2021-04-22T13:08:09Z</time>
      </trkpt>
      <trkpt lat="45.38749" lon="4.72531">
        <ele>305</ele>
        <time>2021-04-22T13:08:14Z</time>
      </trkpt>
      <trkpt lat="45.38753" lon="4.72536">
        <ele>305</ele>
        <time>2021-04-22T13:08:20Z</time>
      </trkpt>
      <trkpt lat="45.38757" lon="4.7254">
        <ele>304.9</ele>
        <time>2021-04-22T13:08:25Z</time>
      </trkpt>
      <trkpt lat="45.3876" lon="4.72543">
        <ele>305</ele>
        <time>2021-04-22T13:08:30Z</time>
      </trkpt>
      <trkpt lat="45.38765" lon="4.72547">
        <ele>304.9</ele>
        <time>2021-04-22T13:08:35Z</time>
      </trkpt>
      <trkpt lat="45.38769" lon="4.7255">
        <ele>304.9</ele>
        <time>2021-04-22T13:08:41Z</time>
      </trkpt>
      <trkpt lat="45.38774" lon="4.72553">
        <ele>304.9</ele>
        <time>2021-04-22T13:08:46Z</time>
      </trkpt>
      <trkpt lat="45.38778" lon="4.72554">
        <ele>304.9</ele>
        <time>2021-04-22T13:08:52Z</time>
      </trkpt>
      <trkpt lat="45.38782" lon="4.72557">
        <ele>305</ele>
        <time>2021-04-22T13:08:57Z</time>
      </trkpt>
      <trkpt lat="45.38785" lon="4.72563">
        <ele>305.1</ele>
        <time>2021-04-22T13:09:03Z</time>
      </trkpt>
      <trkpt lat="45.38789" lon="4.72569">
        <ele>305.2</ele>
        <time>2021-04-22T13:09:09Z</time>
      </trkpt>
      <trkpt lat="45.38792" lon="4.72575">
        <ele>305.2</ele>
        <time>2021-04-22T13:09:15Z</time>
      </trkpt>
      <trkpt lat="45.38796" lon="4.72581">
        <ele>305.3</ele>
        <time>2021-04-22T13:09:20Z</time>
      </trkpt>
      <trkpt lat="45.38798" lon="4.72586">
        <ele>305.4</ele>
        <time>2021-04-22T13:09:26Z</time>
      </trkpt>
      <trkpt lat="45.388" lon="4.7259">
        <ele>305.4</ele>
        <time>2021-04-22T13:09:31Z</time>
      </trkpt>
      <trkpt lat="45.38804" lon="4.72597">
        <ele>305.5</ele>
        <time>2021-04-22T13:09:37Z</time>
      </trkpt>
      <trkpt lat="45.3881" lon="4.72603">
        <ele>305.5</ele>
        <time>2021-04-22T13:09:42Z</time>
      </trkpt>
      <trkpt lat="45.38814" lon="4.72609">
        <ele>305.4</ele>
        <time>2021-04-22T13:09:48Z</time>
      </trkpt>
      <trkpt lat="45.38821" lon="4.72615">
        <ele>348.8</ele>
        <time>2021-04-22T13:09:53Z</time>
      </trkpt>
      <trkpt lat="45.38825" lon="4.72619">
        <ele>351.1</ele>
        <time>2021-04-22T13:09:58Z</time>
      </trkpt>
      <trkpt lat="45.38829" lon="4.72624">
        <ele>350.6</ele>
        <time>2021-04-22T13:10:04Z</time>
      </trkpt>
      <trkpt lat="45.38832" lon="4.72628">
        <ele>353.2</ele>
        <time>2021-04-22T13:10:09Z</time>
      </trkpt>
      <trkpt lat="45.38837" lon="4.72633">
        <ele>353.3</ele>
        <time>2021-04-22T13:10:14Z</time>
      </trkpt>
      <trkpt lat="45.38839" lon="4.7264">
        <ele>353.3</ele>
        <time>2021-04-22T13:10:19Z</time>
      </trkpt>
      <trkpt lat="45.3884" lon="4.72646">
        <ele>353.3</ele>
        <time>2021-04-22T13:10:25Z</time>
      </trkpt>
      <trkpt lat="45.38839" lon="4.72645">
        <ele>353.4</ele>
        <time>2021-04-22T13:10:30Z</time>
      </trkpt>
      <trkpt lat="45.3884" lon="4.72647">
        <ele>353.4</ele>
        <time>2021-04-22T13:10:36Z</time>
      </trkpt>
      <trkpt lat="45.38841" lon="4.7265">
        <ele>353.5</ele>
        <time>2021-04-22T13:10:41Z</time>
      </trkpt>
      <trkpt lat="45.38842" lon="4.7265">
        <ele>353.4</ele>
        <time>2021-04-22T13:10:46Z</time>
      </trkpt>
      <trkpt lat="45.38844" lon="4.7265">
        <ele>353.5</ele>
        <time>2021-04-22T13:10:51Z</time>
      </trkpt>
      <trkpt lat="45.38846" lon="4.72654">
        <ele>353.4</ele>
        <time>2021-04-22T13:10:57Z</time>
      </trkpt>
      <trkpt lat="45.3885" lon="4.72654">
        <ele>353.4</ele>
        <time>2021-04-22T13:11:03Z</time>
      </trkpt>
      <trkpt lat="45.38852" lon="4.72655">
        <ele>353.5</ele>
        <time>2021-04-22T13:11:08Z</time>
      </trkpt>
      <trkpt lat="45.38853" lon="4.72661">
        <ele>359.9</ele>
        <time>2021-04-22T13:11:14Z</time>
      </trkpt>
      <trkpt lat="45.38853" lon="4.72669">
        <ele>360.4</ele>
        <time>2021-04-22T13:11:19Z</time>
      </trkpt>
      <trkpt lat="45.38854" lon="4.72676">
        <ele>360.7</ele>
        <time>2021-04-22T13:11:25Z</time>
      </trkpt>
      <trkpt lat="45.38854" lon="4.72675">
        <ele>361</ele>
        <time>2021-04-22T13:11:30Z</time>
      </trkpt>
      <trkpt lat="45.38855" lon="4.72674">
        <ele>360.9</ele>
        <time>2021-04-22T13:11:36Z</time>
      </trkpt>
      <trkpt lat="45.38856" lon="4.72674">
        <ele>361</ele>
        <time>2021-04-22T13:11:42Z</time>
      </trkpt>
      <trkpt lat="45.38856" lon="4.72674">
        <ele>361.1</ele>
        <time>2021-04-22T13:11:48Z</time>
      </trkpt>
      <trkpt lat="45.38856" lon="4.72674">
        <ele>363</ele>
        <time>2021-04-22T13:11:53Z</time>
      </trkpt>
      <trkpt lat="45.38856" lon="4.72674">
        <ele>364.1</ele>
        <time>2021-04-22T13:11:59Z</time>
      </trkpt>
      <trkpt lat="45.38856" lon="4.72675">
        <ele>364.7</ele>
        <time>2021-04-22T13:12:05Z</time>
      </trkpt>
      <trkpt lat="45.38856" lon="4.72675">
        <ele>364.7</ele>
        <time>2021-04-22T13:12:10Z</time>
      </trkpt>
      <trkpt lat="45.38856" lon="4.72675">
        <ele>364.5</ele>
        <time>2021-04-22T13:12:16Z</time>
      </trkpt>
      <trkpt lat="45.38857" lon="4.72674">
        <ele>362.5</ele>
        <time>2021-04-22T13:12:21Z</time>
      </trkpt>
      <trkpt lat="45.38857" lon="4.72673">
        <ele>362.1</ele>
        <time>2021-04-22T13:12:27Z</time>
      </trkpt>
      <trkpt lat="45.38857" lon="4.72673">
        <ele>361.7</ele>
        <time>2021-04-22T13:12:33Z</time>
      </trkpt>
      <trkpt lat="45.38857" lon="4.72673">
        <ele>361.3</ele>
        <time>2021-04-22T13:12:38Z</time>
      </trkpt>
      <trkpt lat="45.38857" lon="4.72674">
        <ele>361.3</ele>
        <time>2021-04-22T13:12:43Z</time>
      </trkpt>
      <trkpt lat="45.38856" lon="4.72675">
        <ele>361.2</ele>
        <time>2021-04-22T13:12:49Z</time>
      </trkpt>
      <trkpt lat="45.38857" lon="4.72676">
        <ele>361.1</ele>
        <time>2021-04-22T13:12:54Z</time>
      </trkpt>
      <trkpt lat="45.38857" lon="4.72676">
        <ele>361.1</ele>
        <time>2021-04-22T13:12:59Z</time>
      </trkpt>
      <trkpt lat="45.38857" lon="4.72676">
        <ele>361.2</ele>
        <time>2021-04-22T13:13:04Z</time>
      </trkpt>
      <trkpt lat="45.38857" lon="4.72675">
        <ele>361.3</ele>
        <time>2021-04-22T13:13:09Z</time>
      </trkpt>
      <trkpt lat="45.38858" lon="4.72675">
        <ele>361.3</ele>
        <time>2021-04-22T13:13:15Z</time>
      </trkpt>
      <trkpt lat="45.38858" lon="4.72675">
        <ele>361.4</ele>
        <time>2021-04-22T13:13:20Z</time>
      </trkpt>
      <trkpt lat="45.38858" lon="4.72675">
        <ele>361.3</ele>
        <time>2021-04-22T13:13:26Z</time>
      </trkpt>
      <trkpt lat="45.38857" lon="4.72676">
        <ele>361.4</ele>
        <time>2021-04-22T13:13:31Z</time>
      </trkpt>
      <trkpt lat="45.38857" lon="4.72676">
        <ele>361.3</ele>
        <time>2021-04-22T13:13:37Z</time>
      </trkpt>
      <trkpt lat="45.38857" lon="4.72676">
        <ele>361.3</ele>
        <time>2021-04-22T13:13:43Z</time>
      </trkpt>
      <trkpt lat="45.38857" lon="4.72676">
        <ele>361.3</ele>
        <time>2021-04-22T13:13:49Z</time>
      </trkpt>
      <trkpt lat="45.38857" lon="4.72676">
        <ele>361.3</ele>
        <time>2021-04-22T13:13:54Z</time>
      </trkpt>
      <trkpt lat="45.38857" lon="4.72676">
        <ele>361.2</ele>
        <time>2021-04-22T13:14:00Z</time>
      </trkpt>
      <trkpt lat="45.38857" lon="4.72676">
        <ele>361.2</ele>
        <time>2021-04-22T13:14:06Z</time>
      </trkpt>
      <trkpt lat="45.38857" lon="4.72676">
        <ele>358.1</ele>
        <time>2021-04-22T13:14:12Z</time>
      </trkpt>
      <trkpt lat="45.38857" lon="4.72676">
        <ele>360.9</ele>
        <time>2021-04-22T13:14:18Z</time>
      </trkpt>
      <trkpt lat="45.38857" lon="4.72676">
        <ele>360.9</ele>
        <time>2021-04-22T13:14:23Z</time>
      </trkpt>
      <trkpt lat="45.38857" lon="4.72676">
        <ele>361.1</ele>
        <time>2021-04-22T13:14:29Z</time>
      </trkpt>
      <trkpt lat="45.38857" lon="4.72676">
        <ele>361.1</ele>
        <time>2021-04-22T13:14:34Z</time>
      </trkpt>
      <trkpt lat="45.38857" lon="4.72675">
        <ele>361.2</ele>
        <time>2021-04-22T13:14:39Z</time>
      </trkpt>
      <trkpt lat="45.38857" lon="4.72675">
        <ele>361.2</ele>
        <time>2021-04-22T13:14:44Z</time>
      </trkpt>
      <trkpt lat="45.38858" lon="4.72674">
        <ele>361.2</ele>
        <time>2021-04-22T13:14:50Z</time>
      </trkpt>
      <trkpt lat="45.38858" lon="4.72674">
        <ele>361.3</ele>
        <time>2021-04-22T13:14:55Z</time>
      </trkpt>
      <trkpt lat="45.38857" lon="4.72674">
        <ele>361.2</ele>
        <time>2021-04-22T13:15:00Z</time>
      </trkpt>
      <trkpt lat="45.38855" lon="4.72676">
        <ele>361.2</ele>
        <time>2021-04-22T13:15:06Z</time>
      </trkpt>
      <trkpt lat="45.38854" lon="4.72677">
        <ele>361.3</ele>
        <time>2021-04-22T13:15:11Z</time>
      </trkpt>
      <trkpt lat="45.38854" lon="4.72677">
        <ele>361.3</ele>
        <time>2021-04-22T13:15:17Z</time>
      </trkpt>
      <trkpt lat="45.38854" lon="4.72677">
        <ele>361.2</ele>
        <time>2021-04-22T13:15:22Z</time>
      </trkpt>
      <trkpt lat="45.38854" lon="4.72677">
        <ele>361.2</ele>
        <time>2021-04-22T13:15:27Z</time>
      </trkpt>
      <trkpt lat="45.38854" lon="4.72677">
        <ele>361.1</ele>
        <time>2021-04-22T13:15:32Z</time>
      </trkpt>
      <trkpt lat="45.38854" lon="4.72677">
        <ele>361.2</ele>
        <time>2021-04-22T13:15:38Z</time>
      </trkpt>
      <trkpt lat="45.38854" lon="4.72677">
        <ele>361.2</ele>
        <time>2021-04-22T13:15:44Z</time>
      </trkpt>
      <trkpt lat="45.38854" lon="4.72677">
        <ele>361.2</ele>
        <time>2021-04-22T13:15:49Z</time>
      </trkpt>
      <trkpt lat="45.38854" lon="4.72677">
        <ele>361.1</ele>
        <time>2021-04-22T13:15:54Z</time>
      </trkpt>
      <trkpt lat="45.38854" lon="4.72677">
        <ele>361.2</ele>
        <time>2021-04-22T13:15:59Z</time>
      </trkpt>
      <trkpt lat="45.38853" lon="4.72678">
        <ele>361.2</ele>
        <time>2021-04-22T13:16:05Z</time>
      </trkpt>
      <trkpt lat="45.38853" lon="4.72678">
        <ele>361.3</ele>
        <time>2021-04-22T13:16:10Z</time>
      </trkpt>
      <trkpt lat="45.38853" lon="4.72678">
        <ele>361.1</ele>
        <time>2021-04-22T13:16:16Z</time>
      </trkpt>
      <trkpt lat="45.38852" lon="4.72677">
        <ele>361.2</ele>
        <time>2021-04-22T13:16:22Z</time>
      </trkpt>
      <trkpt lat="45.38853" lon="4.72678">
        <ele>361.3</ele>
        <time>2021-04-22T13:16:28Z</time>
      </trkpt>
      <trkpt lat="45.38854" lon="4.72678">
        <ele>361.4</ele>
        <time>2021-04-22T13:16:33Z</time>
      </trkpt>
      <trkpt lat="45.38854" lon="4.72678">
        <ele>361.4</ele>
        <time>2021-04-22T13:16:39Z</time>
      </trkpt>
      <trkpt lat="45.38854" lon="4.72678">
        <ele>361.4</ele>
        <time>2021-04-22T13:16:44Z</time>
      </trkpt>
      <trkpt lat="45.38854" lon="4.72678">
        <ele>361.4</ele>
        <time>2021-04-22T13:16:49Z</time>
      </trkpt>
      <trkpt lat="45.38854" lon="4.72678">
        <ele>361.3</ele>
        <time>2021-04-22T13:16:54Z</time>
      </trkpt>
      <trkpt lat="45.38854" lon="4.72678">
        <ele>361.4</ele>
        <time>2021-04-22T13:16:59Z</time>
      </trkpt>
      <trkpt lat="45.38854" lon="4.72677">
        <ele>361.3</ele>
        <time>2021-04-22T13:17:04Z</time>
      </trkpt>
      <trkpt lat="45.38854" lon="4.72677">
        <ele>361.2</ele>
        <time>2021-04-22T13:17:10Z</time>
      </trkpt>
      <trkpt lat="45.38854" lon="4.72677">
        <ele>361.1</ele>
        <time>2021-04-22T13:17:15Z</time>
      </trkpt>
      <trkpt lat="45.38854" lon="4.72677">
        <ele>361.2</ele>
        <time>2021-04-22T13:17:21Z</time>
      </trkpt>
      <trkpt lat="45.38854" lon="4.72677">
        <ele>361.2</ele>
        <time>2021-04-22T13:17:26Z</time>
      </trkpt>
      <trkpt lat="45.38854" lon="4.72677">
        <ele>361.2</ele>
        <time>2021-04-22T13:17:32Z</time>
      </trkpt>
      <trkpt lat="45.38854" lon="4.72677">
        <ele>361.2</ele>
        <time>2021-04-22T13:17:37Z</time>
      </trkpt>
      <trkpt lat="45.38854" lon="4.72677">
        <ele>361.2</ele>
        <time>2021-04-22T13:17:42Z</time>
      </trkpt>
      <trkpt lat="45.38854" lon="4.72677">
        <ele>361.2</ele>
        <time>2021-04-22T13:17:47Z</time>
      </trkpt>
      <trkpt lat="45.38854" lon="4.72677">
        <ele>361.3</ele>
        <time>2021-04-22T13:17:53Z</time>
      </trkpt>
      <trkpt lat="45.38854" lon="4.72677">
        <ele>361.1</ele>
        <time>2021-04-22T13:17:59Z</time>
      </trkpt>
      <trkpt lat="45.38854" lon="4.72677">
        <ele>361.2</ele>
        <time>2021-04-22T13:18:04Z</time>
      </trkpt>
      <trkpt lat="45.38854" lon="4.72677">
        <ele>361.4</ele>
        <time>2021-04-22T13:18:09Z</time>
      </trkpt>
      <trkpt lat="45.38854" lon="4.72677">
        <ele>361.2</ele>
        <time>2021-04-22T13:18:14Z</time>
      </trkpt>
      <trkpt lat="45.38854" lon="4.72677">
        <ele>361.2</ele>
        <time>2021-04-22T13:18:19Z</time>
      </trkpt>
      <trkpt lat="45.38854" lon="4.72677">
        <ele>361.2</ele>
        <time>2021-04-22T13:18:25Z</time>
      </trkpt>
      <trkpt lat="45.38855" lon="4.72676">
        <ele>361.3</ele>
        <time>2021-04-22T13:18:31Z</time>
      </trkpt>
      <trkpt lat="45.38855" lon="4.72676">
        <ele>361.1</ele>
        <time>2021-04-22T13:18:37Z</time>
      </trkpt>
      <trkpt lat="45.38854" lon="4.72676">
        <ele>361.2</ele>
        <time>2021-04-22T13:18:43Z</time>
      </trkpt>
      <trkpt lat="45.38855" lon="4.72676">
        <ele>361.1</ele>
        <time>2021-04-22T13:18:48Z</time>
      </trkpt>
      <trkpt lat="45.38855" lon="4.72675">
        <ele>361.3</ele>
        <time>2021-04-22T13:18:54Z</time>
      </trkpt>
      <trkpt lat="45.38858" lon="4.72674">
        <ele>361.1</ele>
        <time>2021-04-22T13:19:00Z</time>
      </trkpt>
      <trkpt lat="45.38855" lon="4.72667">
        <ele>361.2</ele>
        <time>2021-04-22T13:19:05Z</time>
      </trkpt>
      <trkpt lat="45.38849" lon="4.72648">
        <ele>361.1</ele>
        <time>2021-04-22T13:19:10Z</time>
      </trkpt>
      <trkpt lat="45.38851" lon="4.72623">
        <ele>361.1</ele>
        <time>2021-04-22T13:19:16Z</time>
      </trkpt>
      <trkpt lat="45.38855" lon="4.72612">
        <ele>361</ele>
        <time>2021-04-22T13:19:21Z</time>
      </trkpt>
      <trkpt lat="45.3886" lon="4.72605">
        <ele>361.1</ele>
        <time>2021-04-22T13:19:27Z</time>
      </trkpt>
      <trkpt lat="45.38866" lon="4.72597">
        <ele>361.2</ele>
        <time>2021-04-22T13:19:32Z</time>
      </trkpt>
      <trkpt lat="45.38872" lon="4.72587">
        <ele>361.2</ele>
        <time>2021-04-22T13:19:38Z</time>
      </trkpt>
      <trkpt lat="45.38876" lon="4.72578">
        <ele>361.2</ele>
        <time>2021-04-22T13:19:43Z</time>
      </trkpt>
      <trkpt lat="45.38881" lon="4.72569">
        <ele>361.1</ele>
        <time>2021-04-22T13:19:48Z</time>
      </trkpt>
      <trkpt lat="45.38885" lon="4.72558">
        <ele>361.1</ele>
        <time>2021-04-22T13:19:53Z</time>
      </trkpt>
      <trkpt lat="45.3889" lon="4.72547">
        <ele>361</ele>
        <time>2021-04-22T13:19:59Z</time>
      </trkpt>
      <trkpt lat="45.38896" lon="4.72536">
        <ele>364.3</ele>
        <time>2021-04-22T13:20:04Z</time>
      </trkpt>
      <trkpt lat="45.38904" lon="4.72525">
        <ele>365.6</ele>
        <time>2021-04-22T13:20:10Z</time>
      </trkpt>
      <trkpt lat="45.38911" lon="4.72514">
        <ele>364.9</ele>
        <time>2021-04-22T13:20:15Z</time>
      </trkpt>
      <trkpt lat="45.38917" lon="4.72503">
        <ele>365.4</ele>
        <time>2021-04-22T13:20:21Z</time>
      </trkpt>
      <trkpt lat="45.38924" lon="4.72494">
        <ele>366.5</ele>
        <time>2021-04-22T13:20:26Z</time>
      </trkpt>
      <trkpt lat="45.38929" lon="4.72484">
        <ele>367.5</ele>
        <time>2021-04-22T13:20:31Z</time>
      </trkpt>
      <trkpt lat="45.38936" lon="4.72473">
        <ele>367.7</ele>
        <time>2021-04-22T13:20:36Z</time>
      </trkpt>
      <trkpt lat="45.38943" lon="4.72462">
        <ele>368.4</ele>
        <time>2021-04-22T13:20:42Z</time>
      </trkpt>
      <trkpt lat="45.38948" lon="4.72452">
        <ele>369.3</ele>
        <time>2021-04-22T13:20:47Z</time>
      </trkpt>
      <trkpt lat="45.38954" lon="4.72442">
        <ele>369.5</ele>
        <time>2021-04-22T13:20:52Z</time>
      </trkpt>
      <trkpt lat="45.38961" lon="4.7243">
        <ele>370.3</ele>
        <time>2021-04-22T13:20:57Z</time>
      </trkpt>
      <trkpt lat="45.38967" lon="4.72419">
        <ele>371.1</ele>
        <time>2021-04-22T13:21:03Z</time>
      </trkpt>
      <trkpt lat="45.38974" lon="4.72406">
        <ele>371.6</ele>
        <time>2021-04-22T13:21:09Z</time>
      </trkpt>
      <trkpt lat="45.38979" lon="4.72393">
        <ele>371.9</ele>
        <time>2021-04-22T13:21:14Z</time>
      </trkpt>
      <trkpt lat="45.38984" lon="4.7238">
        <ele>371.8</ele>
        <time>2021-04-22T13:21:19Z</time>
      </trkpt>
      <trkpt lat="45.38989" lon="4.72367">
        <ele>373.4</ele>
        <time>2021-04-22T13:21:25Z</time>
      </trkpt>
      <trkpt lat="45.38996" lon="4.7235">
        <ele>373.8</ele>
        <time>2021-04-22T13:21:30Z</time>
      </trkpt>
      <trkpt lat="45.39004" lon="4.72327">
        <ele>373</ele>
        <time>2021-04-22T13:21:35Z</time>
      </trkpt>
      <trkpt lat="45.3901" lon="4.72304">
        <ele>372.2</ele>
        <time>2021-04-22T13:21:40Z</time>
      </trkpt>
      <trkpt lat="45.39016" lon="4.72281">
        <ele>372.4</ele>
        <time>2021-04-22T13:21:46Z</time>
      </trkpt>
      <trkpt lat="45.39022" lon="4.72254">
        <ele>373.8</ele>
        <time>2021-04-22T13:21:52Z</time>
      </trkpt>
      <trkpt lat="45.39028" lon="4.72228">
        <ele>373.9</ele>
        <time>2021-04-22T13:21:57Z</time>
      </trkpt>
      <trkpt lat="45.39034" lon="4.722">
        <ele>374</ele>
        <time>2021-04-22T13:22:03Z</time>
      </trkpt>
      <trkpt lat="45.39038" lon="4.72174">
        <ele>374.7</ele>
        <time>2021-04-22T13:22:09Z</time>
      </trkpt>
      <trkpt lat="45.39045" lon="4.72152">
        <ele>375.8</ele>
        <time>2021-04-22T13:22:15Z</time>
      </trkpt>
      <trkpt lat="45.39049" lon="4.72127">
        <ele>375.8</ele>
        <time>2021-04-22T13:22:20Z</time>
      </trkpt>
      <trkpt lat="45.39053" lon="4.72104">
        <ele>376.3</ele>
        <time>2021-04-22T13:22:25Z</time>
      </trkpt>
      <trkpt lat="45.39056" lon="4.72081">
        <ele>377.3</ele>
        <time>2021-04-22T13:22:31Z</time>
      </trkpt>
      <trkpt lat="45.39059" lon="4.72061">
        <ele>378.5</ele>
        <time>2021-04-22T13:22:36Z</time>
      </trkpt>
      <trkpt lat="45.39063" lon="4.72038">
        <ele>378.9</ele>
        <time>2021-04-22T13:22:42Z</time>
      </trkpt>
      <trkpt lat="45.39066" lon="4.72019">
        <ele>380.1</ele>
        <time>2021-04-22T13:22:47Z</time>
      </trkpt>
      <trkpt lat="45.39068" lon="4.72002">
        <ele>381.2</ele>
        <time>2021-04-22T13:22:52Z</time>
      </trkpt>
      <trkpt lat="45.39069" lon="4.71985">
        <ele>382.7</ele>
        <time>2021-04-22T13:22:58Z</time>
      </trkpt>
      <trkpt lat="45.39067" lon="4.7197">
        <ele>383.3</ele>
        <time>2021-04-22T13:23:03Z</time>
      </trkpt>
      <trkpt lat="45.39069" lon="4.71954">
        <ele>384</ele>
        <time>2021-04-22T13:23:08Z</time>
      </trkpt>
      <trkpt lat="45.39072" lon="4.71938">
        <ele>384.1</ele>
        <time>2021-04-22T13:23:13Z</time>
      </trkpt>
      <trkpt lat="45.39072" lon="4.71924">
        <ele>386.1</ele>
        <time>2021-04-22T13:23:19Z</time>
      </trkpt>
      <trkpt lat="45.39074" lon="4.7191">
        <ele>386.8</ele>
        <time>2021-04-22T13:23:24Z</time>
      </trkpt>
      <trkpt lat="45.39077" lon="4.71894">
        <ele>387.2</ele>
        <time>2021-04-22T13:23:30Z</time>
      </trkpt>
      <trkpt lat="45.39081" lon="4.71876">
        <ele>387</ele>
        <time>2021-04-22T13:23:35Z</time>
      </trkpt>
      <trkpt lat="45.39086" lon="4.71856">
        <ele>385.9</ele>
        <time>2021-04-22T13:23:41Z</time>
      </trkpt>
      <trkpt lat="45.39093" lon="4.71839">
        <ele>386.8</ele>
        <time>2021-04-22T13:23:47Z</time>
      </trkpt>
      <trkpt lat="45.391" lon="4.71821">
        <ele>387</ele>
        <time>2021-04-22T13:23:52Z</time>
      </trkpt>
      <trkpt lat="45.39105" lon="4.71805">
        <ele>388.7</ele>
        <time>2021-04-22T13:23:57Z</time>
      </trkpt>
      <trkpt lat="45.39112" lon="4.71792">
        <ele>389.1</ele>
        <time>2021-04-22T13:24:03Z</time>
      </trkpt>
      <trkpt lat="45.39118" lon="4.71778">
        <ele>390.1</ele>
        <time>2021-04-22T13:24:08Z</time>
      </trkpt>
      <trkpt lat="45.39123" lon="4.71761">
        <ele>390.7</ele>
        <time>2021-04-22T13:24:13Z</time>
      </trkpt>
      <trkpt lat="45.39127" lon="4.71744">
        <ele>391.2</ele>
        <time>2021-04-22T13:24:19Z</time>
      </trkpt>
      <trkpt lat="45.39127" lon="4.71723">
        <ele>392</ele>
        <time>2021-04-22T13:24:25Z</time>
      </trkpt>
      <trkpt lat="45.39128" lon="4.71705">
        <ele>392.7</ele>
        <time>2021-04-22T13:24:30Z</time>
      </trkpt>
      <trkpt lat="45.39134" lon="4.71681">
        <ele>392.9</ele>
        <time>2021-04-22T13:24:35Z</time>
      </trkpt>
      <trkpt lat="45.3914" lon="4.71658">
        <ele>392.3</ele>
        <time>2021-04-22T13:24:40Z</time>
      </trkpt>
      <trkpt lat="45.39149" lon="4.71632">
        <ele>393</ele>
        <time>2021-04-22T13:24:46Z</time>
      </trkpt>
      <trkpt lat="45.39159" lon="4.71613">
        <ele>393.6</ele>
        <time>2021-04-22T13:24:51Z</time>
      </trkpt>
      <trkpt lat="45.39167" lon="4.71596">
        <ele>393.7</ele>
        <time>2021-04-22T13:24:56Z</time>
      </trkpt>
      <trkpt lat="45.39173" lon="4.71575">
        <ele>394.4</ele>
        <time>2021-04-22T13:25:02Z</time>
      </trkpt>
      <trkpt lat="45.39181" lon="4.71554">
        <ele>394.5</ele>
        <time>2021-04-22T13:25:07Z</time>
      </trkpt>
      <trkpt lat="45.39192" lon="4.71537">
        <ele>395.2</ele>
        <time>2021-04-22T13:25:12Z</time>
      </trkpt>
      <trkpt lat="45.39202" lon="4.71518">
        <ele>395.3</ele>
        <time>2021-04-22T13:25:18Z</time>
      </trkpt>
      <trkpt lat="45.39212" lon="4.71496">
        <ele>395.5</ele>
        <time>2021-04-22T13:25:23Z</time>
      </trkpt>
      <trkpt lat="45.39222" lon="4.71476">
        <ele>395.3</ele>
        <time>2021-04-22T13:25:28Z</time>
      </trkpt>
      <trkpt lat="45.39236" lon="4.71452">
        <ele>396</ele>
        <time>2021-04-22T13:25:34Z</time>
      </trkpt>
      <trkpt lat="45.39252" lon="4.71426">
        <ele>393.8</ele>
        <time>2021-04-22T13:25:40Z</time>
      </trkpt>
      <trkpt lat="45.39266" lon="4.71405">
        <ele>395</ele>
        <time>2021-04-22T13:25:45Z</time>
      </trkpt>
      <trkpt lat="45.39281" lon="4.71381">
        <ele>394.6</ele>
        <time>2021-04-22T13:25:50Z</time>
      </trkpt>
      <trkpt lat="45.39297" lon="4.71353">
        <ele>395.2</ele>
        <time>2021-04-22T13:25:56Z</time>
      </trkpt>
      <trkpt lat="45.39311" lon="4.7133">
        <ele>395.2</ele>
        <time>2021-04-22T13:26:01Z</time>
      </trkpt>
      <trkpt lat="45.39325" lon="4.71305">
        <ele>395.8</ele>
        <time>2021-04-22T13:26:07Z</time>
      </trkpt>
      <trkpt lat="45.39337" lon="4.71278">
        <ele>395.9</ele>
        <time>2021-04-22T13:26:12Z</time>
      </trkpt>
      <trkpt lat="45.3935" lon="4.71253">
        <ele>395.5</ele>
        <time>2021-04-22T13:26:17Z</time>
      </trkpt>
      <trkpt lat="45.39362" lon="4.71229">
        <ele>396.3</ele>
        <time>2021-04-22T13:26:22Z</time>
      </trkpt>
      <trkpt lat="45.39374" lon="4.71205">
        <ele>395.8</ele>
        <time>2021-04-22T13:26:28Z</time>
      </trkpt>
      <trkpt lat="45.39387" lon="4.71182">
        <ele>396.7</ele>
        <time>2021-04-22T13:26:33Z</time>
      </trkpt>
      <trkpt lat="45.39402" lon="4.71156">
        <ele>397</ele>
        <time>2021-04-22T13:26:39Z</time>
      </trkpt>
      <trkpt lat="45.39416" lon="4.71129">
        <ele>397.1</ele>
        <time>2021-04-22T13:26:44Z</time>
      </trkpt>
      <trkpt lat="45.39429" lon="4.71103">
        <ele>397.4</ele>
        <time>2021-04-22T13:26:50Z</time>
      </trkpt>
      <trkpt lat="45.39443" lon="4.71086">
        <ele>398.4</ele>
        <time>2021-04-22T13:26:55Z</time>
      </trkpt>
      <trkpt lat="45.39456" lon="4.71067">
        <ele>399.3</ele>
        <time>2021-04-22T13:27:00Z</time>
      </trkpt>
      <trkpt lat="45.39466" lon="4.71044">
        <ele>399.2</ele>
        <time>2021-04-22T13:27:06Z</time>
      </trkpt>
      <trkpt lat="45.39473" lon="4.71021">
        <ele>399.4</ele>
        <time>2021-04-22T13:27:11Z</time>
      </trkpt>
      <trkpt lat="45.39481" lon="4.70996">
        <ele>400.1</ele>
        <time>2021-04-22T13:27:17Z</time>
      </trkpt>
      <trkpt lat="45.39495" lon="4.70981">
        <ele>400.5</ele>
        <time>2021-04-22T13:27:22Z</time>
      </trkpt>
      <trkpt lat="45.39511" lon="4.70964">
        <ele>400.2</ele>
        <time>2021-04-22T13:27:27Z</time>
      </trkpt>
      <trkpt lat="45.39528" lon="4.70949">
        <ele>400.8</ele>
        <time>2021-04-22T13:27:33Z</time>
      </trkpt>
      <trkpt lat="45.39544" lon="4.70933">
        <ele>400.7</ele>
        <time>2021-04-22T13:27:38Z</time>
      </trkpt>
      <trkpt lat="45.39559" lon="4.7091">
        <ele>401.4</ele>
        <time>2021-04-22T13:27:44Z</time>
      </trkpt>
      <trkpt lat="45.39566" lon="4.70881">
        <ele>401.9</ele>
        <time>2021-04-22T13:27:49Z</time>
      </trkpt>
      <trkpt lat="45.39574" lon="4.70852">
        <ele>402.5</ele>
        <time>2021-04-22T13:27:55Z</time>
      </trkpt>
      <trkpt lat="45.39584" lon="4.70827">
        <ele>402.7</ele>
        <time>2021-04-22T13:28:00Z</time>
      </trkpt>
      <trkpt lat="45.39597" lon="4.708">
        <ele>402.9</ele>
        <time>2021-04-22T13:28:05Z</time>
      </trkpt>
      <trkpt lat="45.39608" lon="4.70776">
        <ele>403.1</ele>
        <time>2021-04-22T13:28:11Z</time>
      </trkpt>
      <trkpt lat="45.3962" lon="4.70751">
        <ele>403.1</ele>
        <time>2021-04-22T13:28:16Z</time>
      </trkpt>
      <trkpt lat="45.39629" lon="4.70732">
        <ele>404.3</ele>
        <time>2021-04-22T13:28:21Z</time>
      </trkpt>
      <trkpt lat="45.39641" lon="4.70713">
        <ele>403.6</ele>
        <time>2021-04-22T13:28:26Z</time>
      </trkpt>
      <trkpt lat="45.39653" lon="4.7069">
        <ele>403.6</ele>
        <time>2021-04-22T13:28:32Z</time>
      </trkpt>
      <trkpt lat="45.39675" lon="4.70672">
        <ele>404.2</ele>
        <time>2021-04-22T13:28:38Z</time>
      </trkpt>
      <trkpt lat="45.397" lon="4.70656">
        <ele>404.1</ele>
        <time>2021-04-22T13:28:44Z</time>
      </trkpt>
      <trkpt lat="45.39723" lon="4.7064">
        <ele>404.9</ele>
        <time>2021-04-22T13:28:50Z</time>
      </trkpt>
      <trkpt lat="45.39743" lon="4.70624">
        <ele>404.9</ele>
        <time>2021-04-22T13:28:56Z</time>
      </trkpt>
      <trkpt lat="45.39761" lon="4.70611">
        <ele>405.9</ele>
        <time>2021-04-22T13:29:02Z</time>
      </trkpt>
      <trkpt lat="45.39778" lon="4.70594">
        <ele>405.6</ele>
        <time>2021-04-22T13:29:07Z</time>
      </trkpt>
      <trkpt lat="45.39793" lon="4.70576">
        <ele>406</ele>
        <time>2021-04-22T13:29:12Z</time>
      </trkpt>
      <trkpt lat="45.39807" lon="4.70556">
        <ele>405.9</ele>
        <time>2021-04-22T13:29:18Z</time>
      </trkpt>
      <trkpt lat="45.39821" lon="4.70535">
        <ele>406</ele>
        <time>2021-04-22T13:29:23Z</time>
      </trkpt>
      <trkpt lat="45.39836" lon="4.70509">
        <ele>406.6</ele>
        <time>2021-04-22T13:29:29Z</time>
      </trkpt>
      <trkpt lat="45.39847" lon="4.70485">
        <ele>406.3</ele>
        <time>2021-04-22T13:29:34Z</time>
      </trkpt>
      <trkpt lat="45.39858" lon="4.70457">
        <ele>406.5</ele>
        <time>2021-04-22T13:29:39Z</time>
      </trkpt>
      <trkpt lat="45.39866" lon="4.70427">
        <ele>406.3</ele>
        <time>2021-04-22T13:29:45Z</time>
      </trkpt>
      <trkpt lat="45.39873" lon="4.70394">
        <ele>407.1</ele>
        <time>2021-04-22T13:29:51Z</time>
      </trkpt>
      <trkpt lat="45.39879" lon="4.70362">
        <ele>407.1</ele>
        <time>2021-04-22T13:29:56Z</time>
      </trkpt>
      <trkpt lat="45.39888" lon="4.70321">
        <ele>407.5</ele>
        <time>2021-04-22T13:30:02Z</time>
      </trkpt>
      <trkpt lat="45.39897" lon="4.70286">
        <ele>407.9</ele>
        <time>2021-04-22T13:30:07Z</time>
      </trkpt>
      <trkpt lat="45.39907" lon="4.70245">
        <ele>407.6</ele>
        <time>2021-04-22T13:30:13Z</time>
      </trkpt>
      <trkpt lat="45.39915" lon="4.70207">
        <ele>406.6</ele>
        <time>2021-04-22T13:30:19Z</time>
      </trkpt>
      <trkpt lat="45.39921" lon="4.70168">
        <ele>408.1</ele>
        <time>2021-04-22T13:30:25Z</time>
      </trkpt>
      <trkpt lat="45.39929" lon="4.70127">
        <ele>406.8</ele>
        <time>2021-04-22T13:30:31Z</time>
      </trkpt>
      <trkpt lat="45.39934" lon="4.70093">
        <ele>407</ele>
        <time>2021-04-22T13:30:36Z</time>
      </trkpt>
      <trkpt lat="45.39938" lon="4.7006">
        <ele>405.9</ele>
        <time>2021-04-22T13:30:41Z</time>
      </trkpt>
      <trkpt lat="45.39947" lon="4.70022">
        <ele>405.5</ele>
        <time>2021-04-22T13:30:47Z</time>
      </trkpt>
      <trkpt lat="45.39961" lon="4.69986">
        <ele>405.7</ele>
        <time>2021-04-22T13:30:53Z</time>
      </trkpt>
      <trkpt lat="45.39975" lon="4.69949">
        <ele>405.8</ele>
        <time>2021-04-22T13:30:59Z</time>
      </trkpt>
      <trkpt lat="45.39986" lon="4.69912">
        <ele>404.6</ele>
        <time>2021-04-22T13:31:04Z</time>
      </trkpt>
      <trkpt lat="45.39985" lon="4.69857">
        <ele>403.9</ele>
        <time>2021-04-22T13:31:10Z</time>
      </trkpt>
      <trkpt lat="45.39964" lon="4.69817">
        <ele>403.7</ele>
        <time>2021-04-22T13:31:16Z</time>
      </trkpt>
      <trkpt lat="45.39964" lon="4.69776">
        <ele>402.4</ele>
        <time>2021-04-22T13:31:22Z</time>
      </trkpt>
      <trkpt lat="45.39975" lon="4.69754">
        <ele>424.2</ele>
        <time>2021-04-22T13:31:28Z</time>
      </trkpt>
      <trkpt lat="45.3998" lon="4.69739">
        <ele>424.1</ele>
        <time>2021-04-22T13:31:33Z</time>
      </trkpt>
      <trkpt lat="45.39987" lon="4.69727">
        <ele>424.1</ele>
        <time>2021-04-22T13:31:38Z</time>
      </trkpt>
      <trkpt lat="45.39992" lon="4.69714">
        <ele>424.1</ele>
        <time>2021-04-22T13:31:43Z</time>
      </trkpt>
      <trkpt lat="45.39997" lon="4.69699">
        <ele>424</ele>
        <time>2021-04-22T13:31:48Z</time>
      </trkpt>
      <trkpt lat="45.40002" lon="4.69686">
        <ele>424.1</ele>
        <time>2021-04-22T13:31:54Z</time>
      </trkpt>
      <trkpt lat="45.40007" lon="4.69671">
        <ele>424.1</ele>
        <time>2021-04-22T13:32:00Z</time>
      </trkpt>
      <trkpt lat="45.40012" lon="4.69658">
        <ele>424</ele>
        <time>2021-04-22T13:32:05Z</time>
      </trkpt>
      <trkpt lat="45.40016" lon="4.69644">
        <ele>424</ele>
        <time>2021-04-22T13:32:11Z</time>
      </trkpt>
      <trkpt lat="45.40019" lon="4.69632">
        <ele>424</ele>
        <time>2021-04-22T13:32:16Z</time>
      </trkpt>
      <trkpt lat="45.40022" lon="4.6962">
        <ele>424</ele>
        <time>2021-04-22T13:32:21Z</time>
      </trkpt>
      <trkpt lat="45.40025" lon="4.6961">
        <ele>415.7</ele>
        <time>2021-04-22T13:32:26Z</time>
      </trkpt>
      <trkpt lat="45.40029" lon="4.696">
        <ele>416.6</ele>
        <time>2021-04-22T13:32:31Z</time>
      </trkpt>
      <trkpt lat="45.40031" lon="4.69589">
        <ele>417</ele>
        <time>2021-04-22T13:32:36Z</time>
      </trkpt>
      <trkpt lat="45.40037" lon="4.69578">
        <ele>417.7</ele>
        <time>2021-04-22T13:32:42Z</time>
      </trkpt>
      <trkpt lat="45.40041" lon="4.69567">
        <ele>418.9</ele>
        <time>2021-04-22T13:32:47Z</time>
      </trkpt>
      <trkpt lat="45.40044" lon="4.69556">
        <ele>419.3</ele>
        <time>2021-04-22T13:32:52Z</time>
      </trkpt>
      <trkpt lat="45.40049" lon="4.69545">
        <ele>419.9</ele>
        <time>2021-04-22T13:32:57Z</time>
      </trkpt>
      <trkpt lat="45.40054" lon="4.69531">
        <ele>420.6</ele>
        <time>2021-04-22T13:33:03Z</time>
      </trkpt>
      <trkpt lat="45.40056" lon="4.69519">
        <ele>421.9</ele>
        <time>2021-04-22T13:33:09Z</time>
      </trkpt>
      <trkpt lat="45.40059" lon="4.69508">
        <ele>423.6</ele>
        <time>2021-04-22T13:33:14Z</time>
      </trkpt>
      <trkpt lat="45.40061" lon="4.69496">
        <ele>424.9</ele>
        <time>2021-04-22T13:33:20Z</time>
      </trkpt>
      <trkpt lat="45.40063" lon="4.69485">
        <ele>425.6</ele>
        <time>2021-04-22T13:33:26Z</time>
      </trkpt>
      <trkpt lat="45.40066" lon="4.69475">
        <ele>426.1</ele>
        <time>2021-04-22T13:33:31Z</time>
      </trkpt>
      <trkpt lat="45.40068" lon="4.69464">
        <ele>427.3</ele>
        <time>2021-04-22T13:33:36Z</time>
      </trkpt>
      <trkpt lat="45.40069" lon="4.69454">
        <ele>428.2</ele>
        <time>2021-04-22T13:33:42Z</time>
      </trkpt>
      <trkpt lat="45.40071" lon="4.69441">
        <ele>429.6</ele>
        <time>2021-04-22T13:33:47Z</time>
      </trkpt>
      <trkpt lat="45.40073" lon="4.69431">
        <ele>430.7</ele>
        <time>2021-04-22T13:33:52Z</time>
      </trkpt>
      <trkpt lat="45.40075" lon="4.69421">
        <ele>431.6</ele>
        <time>2021-04-22T13:33:58Z</time>
      </trkpt>
      <trkpt lat="45.40077" lon="4.6941">
        <ele>432.6</ele>
        <time>2021-04-22T13:34:03Z</time>
      </trkpt>
      <trkpt lat="45.40079" lon="4.694">
        <ele>433.5</ele>
        <time>2021-04-22T13:34:08Z</time>
      </trkpt>
      <trkpt lat="45.40081" lon="4.69389">
        <ele>434.3</ele>
        <time>2021-04-22T13:34:14Z</time>
      </trkpt>
      <trkpt lat="45.40082" lon="4.69378">
        <ele>434.9</ele>
        <time>2021-04-22T13:34:19Z</time>
      </trkpt>
      <trkpt lat="45.40086" lon="4.69368">
        <ele>434.2</ele>
        <time>2021-04-22T13:34:24Z</time>
      </trkpt>
      <trkpt lat="45.40091" lon="4.69358">
        <ele>435.2</ele>
        <time>2021-04-22T13:34:30Z</time>
      </trkpt>
      <trkpt lat="45.40096" lon="4.69349">
        <ele>436.3</ele>
        <time>2021-04-22T13:34:35Z</time>
      </trkpt>
      <trkpt lat="45.40101" lon="4.69338">
        <ele>436</ele>
        <time>2021-04-22T13:34:40Z</time>
      </trkpt>
      <trkpt lat="45.40105" lon="4.69326">
        <ele>436.9</ele>
        <time>2021-04-22T13:34:45Z</time>
      </trkpt>
      <trkpt lat="45.4011" lon="4.69312">
        <ele>437.9</ele>
        <time>2021-04-22T13:34:51Z</time>
      </trkpt>
      <trkpt lat="45.40115" lon="4.69298">
        <ele>437.7</ele>
        <time>2021-04-22T13:34:56Z</time>
      </trkpt>
      <trkpt lat="45.40119" lon="4.69285">
        <ele>438.3</ele>
        <time>2021-04-22T13:35:01Z</time>
      </trkpt>
      <trkpt lat="45.40124" lon="4.69272">
        <ele>438.9</ele>
        <time>2021-04-22T13:35:06Z</time>
      </trkpt>
      <trkpt lat="45.40128" lon="4.69258">
        <ele>439.7</ele>
        <time>2021-04-22T13:35:11Z</time>
      </trkpt>
      <trkpt lat="45.40133" lon="4.69243">
        <ele>439.3</ele>
        <time>2021-04-22T13:35:17Z</time>
      </trkpt>
      <trkpt lat="45.40136" lon="4.69229">
        <ele>440.1</ele>
        <time>2021-04-22T13:35:22Z</time>
      </trkpt>
      <trkpt lat="45.40139" lon="4.69215">
        <ele>441</ele>
        <time>2021-04-22T13:35:28Z</time>
      </trkpt>
      <trkpt lat="45.40139" lon="4.69201">
        <ele>440.2</ele>
        <time>2021-04-22T13:35:33Z</time>
      </trkpt>
      <trkpt lat="45.40138" lon="4.69184">
        <ele>441</ele>
        <time>2021-04-22T13:35:38Z</time>
      </trkpt>
      <trkpt lat="45.40137" lon="4.69171">
        <ele>441.7</ele>
        <time>2021-04-22T13:35:43Z</time>
      </trkpt>
      <trkpt lat="45.40136" lon="4.69156">
        <ele>441.7</ele>
        <time>2021-04-22T13:35:49Z</time>
      </trkpt>
      <trkpt lat="45.40135" lon="4.6914">
        <ele>440.3</ele>
        <time>2021-04-22T13:35:55Z</time>
      </trkpt>
      <trkpt lat="45.40135" lon="4.69125">
        <ele>441.9</ele>
        <time>2021-04-22T13:36:00Z</time>
      </trkpt>
      <trkpt lat="45.40136" lon="4.69113">
        <ele>442.9</ele>
        <time>2021-04-22T13:36:05Z</time>
      </trkpt>
      <trkpt lat="45.40138" lon="4.691">
        <ele>444.7</ele>
        <time>2021-04-22T13:36:11Z</time>
      </trkpt>
      <trkpt lat="45.40145" lon="4.69084">
        <ele>445</ele>
        <time>2021-04-22T13:36:17Z</time>
      </trkpt>
      <trkpt lat="45.40154" lon="4.69068">
        <ele>444.6</ele>
        <time>2021-04-22T13:36:22Z</time>
      </trkpt>
      <trkpt lat="45.40165" lon="4.6905">
        <ele>443.9</ele>
        <time>2021-04-22T13:36:27Z</time>
      </trkpt>
      <trkpt lat="45.40176" lon="4.69037">
        <ele>444</ele>
        <time>2021-04-22T13:36:33Z</time>
      </trkpt>
      <trkpt lat="45.40194" lon="4.6902">
        <ele>444.8</ele>
        <time>2021-04-22T13:36:38Z</time>
      </trkpt>
      <trkpt lat="45.40207" lon="4.69005">
        <ele>446.2</ele>
        <time>2021-04-22T13:36:43Z</time>
      </trkpt>
      <trkpt lat="45.40219" lon="4.68989">
        <ele>446.5</ele>
        <time>2021-04-22T13:36:49Z</time>
      </trkpt>
      <trkpt lat="45.40227" lon="4.68968">
        <ele>445</ele>
        <time>2021-04-22T13:36:54Z</time>
      </trkpt>
      <trkpt lat="45.40237" lon="4.68949">
        <ele>445.5</ele>
        <time>2021-04-22T13:36:59Z</time>
      </trkpt>
      <trkpt lat="45.40248" lon="4.68934">
        <ele>446</ele>
        <time>2021-04-22T13:37:05Z</time>
      </trkpt>
      <trkpt lat="45.40257" lon="4.68919">
        <ele>445.7</ele>
        <time>2021-04-22T13:37:10Z</time>
      </trkpt>
      <trkpt lat="45.40266" lon="4.68904">
        <ele>446.5</ele>
        <time>2021-04-22T13:37:15Z</time>
      </trkpt>
      <trkpt lat="45.40275" lon="4.6889">
        <ele>447.8</ele>
        <time>2021-04-22T13:37:21Z</time>
      </trkpt>
      <trkpt lat="45.40282" lon="4.68876">
        <ele>448.6</ele>
        <time>2021-04-22T13:37:26Z</time>
      </trkpt>
      <trkpt lat="45.4029" lon="4.68861">
        <ele>448.3</ele>
        <time>2021-04-22T13:37:31Z</time>
      </trkpt>
      <trkpt lat="45.40297" lon="4.68848">
        <ele>449.1</ele>
        <time>2021-04-22T13:37:37Z</time>
      </trkpt>
      <trkpt lat="45.40303" lon="4.68835">
        <ele>450.7</ele>
        <time>2021-04-22T13:37:42Z</time>
      </trkpt>
      <trkpt lat="45.40306" lon="4.68823">
        <ele>452.5</ele>
        <time>2021-04-22T13:37:47Z</time>
      </trkpt>
      <trkpt lat="45.40306" lon="4.6882">
        <ele>452.6</ele>
        <time>2021-04-22T13:37:52Z</time>
      </trkpt>
      <trkpt lat="45.40306" lon="4.68821">
        <ele>449.1</ele>
        <time>2021-04-22T13:37:57Z</time>
      </trkpt>
      <trkpt lat="45.40306" lon="4.68822">
        <ele>449.1</ele>
        <time>2021-04-22T13:38:03Z</time>
      </trkpt>
      <trkpt lat="45.40305" lon="4.68823">
        <ele>449.1</ele>
        <time>2021-04-22T13:38:08Z</time>
      </trkpt>
      <trkpt lat="45.40304" lon="4.68824">
        <ele>449</ele>
        <time>2021-04-22T13:38:13Z</time>
      </trkpt>
      <trkpt lat="45.40304" lon="4.68824">
        <ele>449.1</ele>
        <time>2021-04-22T13:38:19Z</time>
      </trkpt>
      <trkpt lat="45.40305" lon="4.68824">
        <ele>449</ele>
        <time>2021-04-22T13:38:24Z</time>
      </trkpt>
      <trkpt lat="45.40305" lon="4.68823">
        <ele>449</ele>
        <time>2021-04-22T13:38:29Z</time>
      </trkpt>
      <trkpt lat="45.40305" lon="4.68823">
        <ele>449.7</ele>
        <time>2021-04-22T13:38:34Z</time>
      </trkpt>
      <trkpt lat="45.40304" lon="4.68822">
        <ele>455.3</ele>
        <time>2021-04-22T13:38:39Z</time>
      </trkpt>
      <trkpt lat="45.40304" lon="4.68822">
        <ele>456.2</ele>
        <time>2021-04-22T13:38:44Z</time>
      </trkpt>
      <trkpt lat="45.40304" lon="4.68822">
        <ele>456.2</ele>
        <time>2021-04-22T13:38:49Z</time>
      </trkpt>
      <trkpt lat="45.40304" lon="4.68822">
        <ele>457.7</ele>
        <time>2021-04-22T13:38:55Z</time>
      </trkpt>
      <trkpt lat="45.40304" lon="4.68822">
        <ele>457.5</ele>
        <time>2021-04-22T13:39:01Z</time>
      </trkpt>
      <trkpt lat="45.40304" lon="4.68822">
        <ele>458.4</ele>
        <time>2021-04-22T13:39:06Z</time>
      </trkpt>
      <trkpt lat="45.40304" lon="4.68823">
        <ele>458.5</ele>
        <time>2021-04-22T13:39:11Z</time>
      </trkpt>
      <trkpt lat="45.40305" lon="4.68822">
        <ele>459</ele>
        <time>2021-04-22T13:39:16Z</time>
      </trkpt>
      <trkpt lat="45.40305" lon="4.68822">
        <ele>459</ele>
        <time>2021-04-22T13:39:21Z</time>
      </trkpt>
      <trkpt lat="45.40305" lon="4.68823">
        <ele>459.1</ele>
        <time>2021-04-22T13:39:27Z</time>
      </trkpt>
      <trkpt lat="45.40305" lon="4.68822">
        <ele>459</ele>
        <time>2021-04-22T13:39:34Z</time>
      </trkpt>
      <trkpt lat="45.40305" lon="4.68822">
        <ele>459.1</ele>
        <time>2021-04-22T13:39:40Z</time>
      </trkpt>
      <trkpt lat="45.40306" lon="4.68821">
        <ele>459</ele>
        <time>2021-04-22T13:39:45Z</time>
      </trkpt>
      <trkpt lat="45.4032" lon="4.68819">
        <ele>458.9</ele>
        <time>2021-04-22T13:39:50Z</time>
      </trkpt>
      <trkpt lat="45.40341" lon="4.68808">
        <ele>458.9</ele>
        <time>2021-04-22T13:39:55Z</time>
      </trkpt>
      <trkpt lat="45.40369" lon="4.68799">
        <ele>458.9</ele>
        <time>2021-04-22T13:40:01Z</time>
      </trkpt>
      <trkpt lat="45.40395" lon="4.68787">
        <ele>458.9</ele>
        <time>2021-04-22T13:40:06Z</time>
      </trkpt>
      <trkpt lat="45.4042" lon="4.6878">
        <ele>458.9</ele>
        <time>2021-04-22T13:40:12Z</time>
      </trkpt>
      <trkpt lat="45.40446" lon="4.68759">
        <ele>458.9</ele>
        <time>2021-04-22T13:40:18Z</time>
      </trkpt>
      <trkpt lat="45.40473" lon="4.68735">
        <ele>458.8</ele>
        <time>2021-04-22T13:40:24Z</time>
      </trkpt>
      <trkpt lat="45.40496" lon="4.68715">
        <ele>458.8</ele>
        <time>2021-04-22T13:40:30Z</time>
      </trkpt>
      <trkpt lat="45.40513" lon="4.68696">
        <ele>459.1</ele>
        <time>2021-04-22T13:40:36Z</time>
      </trkpt>
      <trkpt lat="45.40527" lon="4.6868">
        <ele>459.1</ele>
        <time>2021-04-22T13:40:42Z</time>
      </trkpt>
      <trkpt lat="45.40537" lon="4.68669">
        <ele>459.2</ele>
        <time>2021-04-22T13:40:47Z</time>
      </trkpt>
      <trkpt lat="45.40547" lon="4.68657">
        <ele>459.2</ele>
        <time>2021-04-22T13:40:52Z</time>
      </trkpt>
      <trkpt lat="45.40556" lon="4.68646">
        <ele>459.3</ele>
        <time>2021-04-22T13:40:58Z</time>
      </trkpt>
      <trkpt lat="45.40564" lon="4.68636">
        <ele>459.3</ele>
        <time>2021-04-22T13:41:03Z</time>
      </trkpt>
      <trkpt lat="45.40572" lon="4.68624">
        <ele>459.2</ele>
        <time>2021-04-22T13:41:08Z</time>
      </trkpt>
      <trkpt lat="45.4058" lon="4.68614">
        <ele>459.2</ele>
        <time>2021-04-22T13:41:14Z</time>
      </trkpt>
      <trkpt lat="45.40589" lon="4.68605">
        <ele>459.3</ele>
        <time>2021-04-22T13:41:19Z</time>
      </trkpt>
      <trkpt lat="45.40599" lon="4.68596">
        <ele>459.2</ele>
        <time>2021-04-22T13:41:24Z</time>
      </trkpt>
      <trkpt lat="45.40609" lon="4.68586">
        <ele>459.3</ele>
        <time>2021-04-22T13:41:29Z</time>
      </trkpt>
      <trkpt lat="45.4062" lon="4.68578">
        <ele>459.2</ele>
        <time>2021-04-22T13:41:35Z</time>
      </trkpt>
      <trkpt lat="45.40631" lon="4.68569">
        <ele>455.8</ele>
        <time>2021-04-22T13:41:40Z</time>
      </trkpt>
      <trkpt lat="45.40642" lon="4.68561">
        <ele>456.3</ele>
        <time>2021-04-22T13:41:45Z</time>
      </trkpt>
      <trkpt lat="45.40654" lon="4.68556">
        <ele>456.8</ele>
        <time>2021-04-22T13:41:50Z</time>
      </trkpt>
      <trkpt lat="45.40666" lon="4.68543">
        <ele>457.5</ele>
        <time>2021-04-22T13:41:55Z</time>
      </trkpt>
      <trkpt lat="45.40675" lon="4.68533">
        <ele>459.9</ele>
        <time>2021-04-22T13:42:01Z</time>
      </trkpt>
      <trkpt lat="45.40683" lon="4.68525">
        <ele>460.5</ele>
        <time>2021-04-22T13:42:06Z</time>
      </trkpt>
      <trkpt lat="45.40689" lon="4.68514">
        <ele>460.6</ele>
        <time>2021-04-22T13:42:12Z</time>
      </trkpt>
      <trkpt lat="45.40696" lon="4.68504">
        <ele>461.3</ele>
        <time>2021-04-22T13:42:17Z</time>
      </trkpt>
      <trkpt lat="45.40703" lon="4.68497">
        <ele>462.2</ele>
        <time>2021-04-22T13:42:23Z</time>
      </trkpt>
      <trkpt lat="45.40715" lon="4.68508">
        <ele>462.1</ele>
        <time>2021-04-22T13:42:28Z</time>
      </trkpt>
      <trkpt lat="45.40724" lon="4.68527">
        <ele>461.2</ele>
        <time>2021-04-22T13:42:34Z</time>
      </trkpt>
      <trkpt lat="45.40736" lon="4.68546">
        <ele>460.4</ele>
        <time>2021-04-22T13:42:40Z</time>
      </trkpt>
      <trkpt lat="45.40749" lon="4.68567">
        <ele>459.5</ele>
        <time>2021-04-22T13:42:45Z</time>
      </trkpt>
      <trkpt lat="45.40761" lon="4.68586">
        <ele>459.9</ele>
        <time>2021-04-22T13:42:50Z</time>
      </trkpt>
      <trkpt lat="45.40773" lon="4.68604">
        <ele>459.9</ele>
        <time>2021-04-22T13:42:56Z</time>
      </trkpt>
      <trkpt lat="45.40788" lon="4.68619">
        <ele>460.3</ele>
        <time>2021-04-22T13:43:01Z</time>
      </trkpt>
      <trkpt lat="45.40805" lon="4.6863">
        <ele>461.4</ele>
        <time>2021-04-22T13:43:07Z</time>
      </trkpt>
      <trkpt lat="45.4082" lon="4.68641">
        <ele>462</ele>
        <time>2021-04-22T13:43:12Z</time>
      </trkpt>
      <trkpt lat="45.40832" lon="4.68637">
        <ele>462.6</ele>
        <time>2021-04-22T13:43:18Z</time>
      </trkpt>
      <trkpt lat="45.40835" lon="4.68618">
        <ele>464.4</ele>
        <time>2021-04-22T13:43:23Z</time>
      </trkpt>
      <trkpt lat="45.40839" lon="4.68601">
        <ele>464.7</ele>
        <time>2021-04-22T13:43:28Z</time>
      </trkpt>
      <trkpt lat="45.40843" lon="4.68584">
        <ele>466.5</ele>
        <time>2021-04-22T13:43:33Z</time>
      </trkpt>
      <trkpt lat="45.40847" lon="4.68568">
        <ele>466.3</ele>
        <time>2021-04-22T13:43:38Z</time>
      </trkpt>
      <trkpt lat="45.40852" lon="4.68551">
        <ele>467.5</ele>
        <time>2021-04-22T13:43:44Z</time>
      </trkpt>
      <trkpt lat="45.40856" lon="4.68537">
        <ele>468.8</ele>
        <time>2021-04-22T13:43:49Z</time>
      </trkpt>
      <trkpt lat="45.40861" lon="4.68522">
        <ele>469.8</ele>
        <time>2021-04-22T13:43:55Z</time>
      </trkpt>
      <trkpt lat="45.40866" lon="4.68507">
        <ele>470</ele>
        <time>2021-04-22T13:44:00Z</time>
      </trkpt>
      <trkpt lat="45.4087" lon="4.68494">
        <ele>470.9</ele>
        <time>2021-04-22T13:44:06Z</time>
      </trkpt>
      <trkpt lat="45.40874" lon="4.68481">
        <ele>470.8</ele>
        <time>2021-04-22T13:44:11Z</time>
      </trkpt>
      <trkpt lat="45.40878" lon="4.68468">
        <ele>472.7</ele>
        <time>2021-04-22T13:44:17Z</time>
      </trkpt>
      <trkpt lat="45.40882" lon="4.68456">
        <ele>473.5</ele>
        <time>2021-04-22T13:44:22Z</time>
      </trkpt>
      <trkpt lat="45.40887" lon="4.68445">
        <ele>472.9</ele>
        <time>2021-04-22T13:44:27Z</time>
      </trkpt>
      <trkpt lat="45.40892" lon="4.68433">
        <ele>473.7</ele>
        <time>2021-04-22T13:44:33Z</time>
      </trkpt>
      <trkpt lat="45.40896" lon="4.6842">
        <ele>473.5</ele>
        <time>2021-04-22T13:44:38Z</time>
      </trkpt>
      <trkpt lat="45.409" lon="4.68408">
        <ele>475.4</ele>
        <time>2021-04-22T13:44:44Z</time>
      </trkpt>
      <trkpt lat="45.40903" lon="4.68396">
        <ele>476.3</ele>
        <time>2021-04-22T13:44:49Z</time>
      </trkpt>
      <trkpt lat="45.40906" lon="4.68383">
        <ele>477.8</ele>
        <time>2021-04-22T13:44:54Z</time>
      </trkpt>
      <trkpt lat="45.40907" lon="4.6837">
        <ele>478.5</ele>
        <time>2021-04-22T13:45:00Z</time>
      </trkpt>
      <trkpt lat="45.40909" lon="4.68356">
        <ele>479.3</ele>
        <time>2021-04-22T13:45:05Z</time>
      </trkpt>
      <trkpt lat="45.40912" lon="4.68344">
        <ele>480.3</ele>
        <time>2021-04-22T13:45:10Z</time>
      </trkpt>
      <trkpt lat="45.40915" lon="4.68331">
        <ele>482.2</ele>
        <time>2021-04-22T13:45:16Z</time>
      </trkpt>
      <trkpt lat="45.40918" lon="4.68319">
        <ele>483</ele>
        <time>2021-04-22T13:45:21Z</time>
      </trkpt>
      <trkpt lat="45.40921" lon="4.68305">
        <ele>483.2</ele>
        <time>2021-04-22T13:45:26Z</time>
      </trkpt>
      <trkpt lat="45.40924" lon="4.68292">
        <ele>484.3</ele>
        <time>2021-04-22T13:45:31Z</time>
      </trkpt>
      <trkpt lat="45.40928" lon="4.68278">
        <ele>485.3</ele>
        <time>2021-04-22T13:45:38Z</time>
      </trkpt>
      <trkpt lat="45.40931" lon="4.68266">
        <ele>486.8</ele>
        <time>2021-04-22T13:45:43Z</time>
      </trkpt>
      <trkpt lat="45.40936" lon="4.68256">
        <ele>487.5</ele>
        <time>2021-04-22T13:45:48Z</time>
      </trkpt>
      <trkpt lat="45.40947" lon="4.68259">
        <ele>488.4</ele>
        <time>2021-04-22T13:45:54Z</time>
      </trkpt>
      <trkpt lat="45.40959" lon="4.68264">
        <ele>487.7</ele>
        <time>2021-04-22T13:46:00Z</time>
      </trkpt>
      <trkpt lat="45.40971" lon="4.68268">
        <ele>487.5</ele>
        <time>2021-04-22T13:46:05Z</time>
      </trkpt>
      <trkpt lat="45.40984" lon="4.68272">
        <ele>488.6</ele>
        <time>2021-04-22T13:46:11Z</time>
      </trkpt>
      <trkpt lat="45.40995" lon="4.68275">
        <ele>488.6</ele>
        <time>2021-04-22T13:46:16Z</time>
      </trkpt>
      <trkpt lat="45.41006" lon="4.68278">
        <ele>489.5</ele>
        <time>2021-04-22T13:46:21Z</time>
      </trkpt>
      <trkpt lat="45.41017" lon="4.68281">
        <ele>489.4</ele>
        <time>2021-04-22T13:46:27Z</time>
      </trkpt>
      <trkpt lat="45.41028" lon="4.68283">
        <ele>490.4</ele>
        <time>2021-04-22T13:46:32Z</time>
      </trkpt>
      <trkpt lat="45.4104" lon="4.68287">
        <ele>490.7</ele>
        <time>2021-04-22T13:46:38Z</time>
      </trkpt>
      <trkpt lat="45.4105" lon="4.68291">
        <ele>491</ele>
        <time>2021-04-22T13:46:43Z</time>
      </trkpt>
      <trkpt lat="45.41061" lon="4.68293">
        <ele>491.6</ele>
        <time>2021-04-22T13:46:48Z</time>
      </trkpt>
      <trkpt lat="45.41072" lon="4.68294">
        <ele>491.5</ele>
        <time>2021-04-22T13:46:54Z</time>
      </trkpt>
      <trkpt lat="45.41085" lon="4.68296">
        <ele>492.8</ele>
        <time>2021-04-22T13:46:59Z</time>
      </trkpt>
      <trkpt lat="45.411" lon="4.68296">
        <ele>493.5</ele>
        <time>2021-04-22T13:47:05Z</time>
      </trkpt>
      <trkpt lat="45.41114" lon="4.68295">
        <ele>493.7</ele>
        <time>2021-04-22T13:47:10Z</time>
      </trkpt>
      <trkpt lat="45.41132" lon="4.68293">
        <ele>493</ele>
        <time>2021-04-22T13:47:15Z</time>
      </trkpt>
      <trkpt lat="45.41148" lon="4.68284">
        <ele>493.4</ele>
        <time>2021-04-22T13:47:21Z</time>
      </trkpt>
      <trkpt lat="45.41166" lon="4.68272">
        <ele>492.8</ele>
        <time>2021-04-22T13:47:27Z</time>
      </trkpt>
      <trkpt lat="45.4118" lon="4.68262">
        <ele>492</ele>
        <time>2021-04-22T13:47:32Z</time>
      </trkpt>
      <trkpt lat="45.41205" lon="4.6824">
        <ele>492.2</ele>
        <time>2021-04-22T13:47:38Z</time>
      </trkpt>
      <trkpt lat="45.41223" lon="4.68215">
        <ele>491.1</ele>
        <time>2021-04-22T13:47:43Z</time>
      </trkpt>
      <trkpt lat="45.41236" lon="4.68194">
        <ele>490.7</ele>
        <time>2021-04-22T13:47:48Z</time>
      </trkpt>
      <trkpt lat="45.41254" lon="4.68155">
        <ele>488.1</ele>
        <time>2021-04-22T13:47:54Z</time>
      </trkpt>
      <trkpt lat="45.41267" lon="4.68112">
        <ele>487.6</ele>
        <time>2021-04-22T13:48:00Z</time>
      </trkpt>
      <trkpt lat="45.41274" lon="4.68061">
        <ele>485.9</ele>
        <time>2021-04-22T13:48:06Z</time>
      </trkpt>
      <trkpt lat="45.4128" lon="4.68018">
        <ele>483.6</ele>
        <time>2021-04-22T13:48:11Z</time>
      </trkpt>
      <trkpt lat="45.41285" lon="4.67968">
        <ele>482.6</ele>
        <time>2021-04-22T13:48:17Z</time>
      </trkpt>
      <trkpt lat="45.413" lon="4.67923">
        <ele>482.8</ele>
        <time>2021-04-22T13:48:23Z</time>
      </trkpt>
      <trkpt lat="45.41315" lon="4.67885">
        <ele>482.1</ele>
        <time>2021-04-22T13:48:29Z</time>
      </trkpt>
      <trkpt lat="45.41323" lon="4.67879">
        <ele>482.7</ele>
        <time>2021-04-22T13:48:34Z</time>
      </trkpt>
      <trkpt lat="45.41334" lon="4.67862">
        <ele>479.9</ele>
        <time>2021-04-22T13:48:39Z</time>
      </trkpt>
      <trkpt lat="45.41353" lon="4.67845">
        <ele>479.8</ele>
        <time>2021-04-22T13:48:44Z</time>
      </trkpt>
      <trkpt lat="45.41371" lon="4.67833">
        <ele>479.8</ele>
        <time>2021-04-22T13:48:50Z</time>
      </trkpt>
      <trkpt lat="45.41389" lon="4.67829">
        <ele>479.7</ele>
        <time>2021-04-22T13:48:55Z</time>
      </trkpt>
      <trkpt lat="45.41402" lon="4.67828">
        <ele>479.7</ele>
        <time>2021-04-22T13:49:01Z</time>
      </trkpt>
      <trkpt lat="45.41416" lon="4.67828">
        <ele>479.7</ele>
        <time>2021-04-22T13:49:06Z</time>
      </trkpt>
      <trkpt lat="45.4144" lon="4.67829">
        <ele>479.6</ele>
        <time>2021-04-22T13:49:11Z</time>
      </trkpt>
      <trkpt lat="45.41459" lon="4.67834">
        <ele>479.6</ele>
        <time>2021-04-22T13:49:17Z</time>
      </trkpt>
      <trkpt lat="45.4148" lon="4.67842">
        <ele>479.7</ele>
        <time>2021-04-22T13:49:22Z</time>
      </trkpt>
      <trkpt lat="45.41497" lon="4.67849">
        <ele>479.6</ele>
        <time>2021-04-22T13:49:28Z</time>
      </trkpt>
      <trkpt lat="45.41512" lon="4.67853">
        <ele>479.6</ele>
        <time>2021-04-22T13:49:33Z</time>
      </trkpt>
      <trkpt lat="45.41527" lon="4.67859">
        <ele>480.9</ele>
        <time>2021-04-22T13:49:38Z</time>
      </trkpt>
      <trkpt lat="45.41542" lon="4.67863">
        <ele>481.3</ele>
        <time>2021-04-22T13:49:43Z</time>
      </trkpt>
      <trkpt lat="45.41557" lon="4.67868">
        <ele>481.6</ele>
        <time>2021-04-22T13:49:49Z</time>
      </trkpt>
      <trkpt lat="45.41574" lon="4.67873">
        <ele>482.7</ele>
        <time>2021-04-22T13:49:54Z</time>
      </trkpt>
      <trkpt lat="45.41588" lon="4.67877">
        <ele>483.3</ele>
        <time>2021-04-22T13:50:00Z</time>
      </trkpt>
      <trkpt lat="45.41603" lon="4.6788">
        <ele>483.7</ele>
        <time>2021-04-22T13:50:05Z</time>
      </trkpt>
      <trkpt lat="45.41619" lon="4.67884">
        <ele>484.4</ele>
        <time>2021-04-22T13:50:10Z</time>
      </trkpt>
      <trkpt lat="45.41635" lon="4.67889">
        <ele>484.7</ele>
        <time>2021-04-22T13:50:16Z</time>
      </trkpt>
      <trkpt lat="45.41652" lon="4.67895">
        <ele>485</ele>
        <time>2021-04-22T13:50:21Z</time>
      </trkpt>
      <trkpt lat="45.41667" lon="4.679">
        <ele>485.8</ele>
        <time>2021-04-22T13:50:27Z</time>
      </trkpt>
      <trkpt lat="45.41682" lon="4.67902">
        <ele>486</ele>
        <time>2021-04-22T13:50:32Z</time>
      </trkpt>
      <trkpt lat="45.417" lon="4.67902">
        <ele>487.3</ele>
        <time>2021-04-22T13:50:37Z</time>
      </trkpt>
      <trkpt lat="45.41715" lon="4.67912">
        <ele>486.5</ele>
        <time>2021-04-22T13:50:42Z</time>
      </trkpt>
      <trkpt lat="45.41731" lon="4.67919">
        <ele>490</ele>
        <time>2021-04-22T13:50:48Z</time>
      </trkpt>
      <trkpt lat="45.41744" lon="4.67924">
        <ele>490.8</ele>
        <time>2021-04-22T13:50:53Z</time>
      </trkpt>
      <trkpt lat="45.41754" lon="4.67925">
        <ele>491.4</ele>
        <time>2021-04-22T13:50:59Z</time>
      </trkpt>
      <trkpt lat="45.41752" lon="4.67956">
        <ele>488.6</ele>
        <time>2021-04-22T13:51:04Z</time>
      </trkpt>
      <trkpt lat="45.41746" lon="4.68006">
        <ele>484.3</ele>
        <time>2021-04-22T13:51:10Z</time>
      </trkpt>
      <trkpt lat="45.41752" lon="4.68057">
        <ele>479.5</ele>
        <time>2021-04-22T13:51:16Z</time>
      </trkpt>
      <trkpt lat="45.41765" lon="4.68101">
        <ele>477.3</ele>
        <time>2021-04-22T13:51:22Z</time>
      </trkpt>
      <trkpt lat="45.41774" lon="4.68123">
        <ele>475.5</ele>
        <time>2021-04-22T13:51:27Z</time>
      </trkpt>
      <trkpt lat="45.41788" lon="4.68165">
        <ele>472.8</ele>
        <time>2021-04-22T13:51:33Z</time>
      </trkpt>
      <trkpt lat="45.41802" lon="4.68211">
        <ele>472.2</ele>
        <time>2021-04-22T13:51:39Z</time>
      </trkpt>
      <trkpt lat="45.41819" lon="4.68259">
        <ele>468.9</ele>
        <time>2021-04-22T13:51:45Z</time>
      </trkpt>
      <trkpt lat="45.41831" lon="4.68292">
        <ele>467.8</ele>
        <time>2021-04-22T13:51:50Z</time>
      </trkpt>
      <trkpt lat="45.41844" lon="4.68307">
        <ele>468.6</ele>
        <time>2021-04-22T13:51:55Z</time>
      </trkpt>
      <trkpt lat="45.41849" lon="4.68304">
        <ele>468.6</ele>
        <time>2021-04-22T13:52:00Z</time>
      </trkpt>
      <trkpt lat="45.41849" lon="4.68306">
        <ele>469</ele>
        <time>2021-04-22T13:52:06Z</time>
      </trkpt>
      <trkpt lat="45.41847" lon="4.68307">
        <ele>469</ele>
        <time>2021-04-22T13:52:11Z</time>
      </trkpt>
      <trkpt lat="45.41846" lon="4.68306">
        <ele>469.1</ele>
        <time>2021-04-22T13:52:17Z</time>
      </trkpt>
      <trkpt lat="45.41846" lon="4.68306">
        <ele>469.1</ele>
        <time>2021-04-22T13:52:23Z</time>
      </trkpt>
      <trkpt lat="45.41845" lon="4.68306">
        <ele>469.1</ele>
        <time>2021-04-22T13:52:29Z</time>
      </trkpt>
      <trkpt lat="45.41844" lon="4.68306">
        <ele>469.1</ele>
        <time>2021-04-22T13:52:34Z</time>
      </trkpt>
      <trkpt lat="45.41844" lon="4.68308">
        <ele>468.9</ele>
        <time>2021-04-22T13:52:40Z</time>
      </trkpt>
      <trkpt lat="45.41844" lon="4.68309">
        <ele>468.9</ele>
        <time>2021-04-22T13:52:46Z</time>
      </trkpt>
      <trkpt lat="45.41845" lon="4.68309">
        <ele>468.9</ele>
        <time>2021-04-22T13:52:51Z</time>
      </trkpt>
      <trkpt lat="45.41845" lon="4.68309">
        <ele>469</ele>
        <time>2021-04-22T13:52:57Z</time>
      </trkpt>
      <trkpt lat="45.41845" lon="4.68309">
        <ele>469</ele>
        <time>2021-04-22T13:53:02Z</time>
      </trkpt>
      <trkpt lat="45.41845" lon="4.68309">
        <ele>469.1</ele>
        <time>2021-04-22T13:53:07Z</time>
      </trkpt>
      <trkpt lat="45.41847" lon="4.6831">
        <ele>469.3</ele>
        <time>2021-04-22T13:53:12Z</time>
      </trkpt>
      <trkpt lat="45.41847" lon="4.68307">
        <ele>469.3</ele>
        <time>2021-04-22T13:53:18Z</time>
      </trkpt>
      <trkpt lat="45.41847" lon="4.68306">
        <ele>469.1</ele>
        <time>2021-04-22T13:53:23Z</time>
      </trkpt>
      <trkpt lat="45.41847" lon="4.68305">
        <ele>469.2</ele>
        <time>2021-04-22T13:53:29Z</time>
      </trkpt>
      <trkpt lat="45.41847" lon="4.68305">
        <ele>469.2</ele>
        <time>2021-04-22T13:53:34Z</time>
      </trkpt>
      <trkpt lat="45.41847" lon="4.68305">
        <ele>469.2</ele>
        <time>2021-04-22T13:53:39Z</time>
      </trkpt>
      <trkpt lat="45.41847" lon="4.68306">
        <ele>469.2</ele>
        <time>2021-04-22T13:53:45Z</time>
      </trkpt>
      <trkpt lat="45.41848" lon="4.68308">
        <ele>469.2</ele>
        <time>2021-04-22T13:53:50Z</time>
      </trkpt>
      <trkpt lat="45.41848" lon="4.68308">
        <ele>469.3</ele>
        <time>2021-04-22T13:53:56Z</time>
      </trkpt>
      <trkpt lat="45.41848" lon="4.68308">
        <ele>469.3</ele>
        <time>2021-04-22T13:54:02Z</time>
      </trkpt>
      <trkpt lat="45.41847" lon="4.68306">
        <ele>469.2</ele>
        <time>2021-04-22T13:54:08Z</time>
      </trkpt>
      <trkpt lat="45.41847" lon="4.68305">
        <ele>469.2</ele>
        <time>2021-04-22T13:54:14Z</time>
      </trkpt>
      <trkpt lat="45.41846" lon="4.68305">
        <ele>469.2</ele>
        <time>2021-04-22T13:54:19Z</time>
      </trkpt>
      <trkpt lat="45.41847" lon="4.68305">
        <ele>469.2</ele>
        <time>2021-04-22T13:54:24Z</time>
      </trkpt>
      <trkpt lat="45.41847" lon="4.68304">
        <ele>469.2</ele>
        <time>2021-04-22T13:54:30Z</time>
      </trkpt>
      <trkpt lat="45.41847" lon="4.68304">
        <ele>469.2</ele>
        <time>2021-04-22T13:54:36Z</time>
      </trkpt>
      <trkpt lat="45.41847" lon="4.68304">
        <ele>469.3</ele>
        <time>2021-04-22T13:54:42Z</time>
      </trkpt>
      <trkpt lat="45.41847" lon="4.68306">
        <ele>469.2</ele>
        <time>2021-04-22T13:54:47Z</time>
      </trkpt>
      <trkpt lat="45.41846" lon="4.68309">
        <ele>469.3</ele>
        <time>2021-04-22T13:54:53Z</time>
      </trkpt>
      <trkpt lat="45.41847" lon="4.68309">
        <ele>469.4</ele>
        <time>2021-04-22T13:54:59Z</time>
      </trkpt>
      <trkpt lat="45.41847" lon="4.68309">
        <ele>469.3</ele>
        <time>2021-04-22T13:55:04Z</time>
      </trkpt>
      <trkpt lat="45.41847" lon="4.68309">
        <ele>469.3</ele>
        <time>2021-04-22T13:55:09Z</time>
      </trkpt>
      <trkpt lat="45.41847" lon="4.68309">
        <ele>469.3</ele>
        <time>2021-04-22T13:55:14Z</time>
      </trkpt>
      <trkpt lat="45.41847" lon="4.68309">
        <ele>469.3</ele>
        <time>2021-04-22T13:55:19Z</time>
      </trkpt>
      <trkpt lat="45.41847" lon="4.68309">
        <ele>469.3</ele>
        <time>2021-04-22T13:55:25Z</time>
      </trkpt>
      <trkpt lat="45.41847" lon="4.68309">
        <ele>469.4</ele>
        <time>2021-04-22T13:55:30Z</time>
      </trkpt>
      <trkpt lat="45.41847" lon="4.68309">
        <ele>469.3</ele>
        <time>2021-04-22T13:55:35Z</time>
      </trkpt>
      <trkpt lat="45.41848" lon="4.6831">
        <ele>469.2</ele>
        <time>2021-04-22T13:55:41Z</time>
      </trkpt>
      <trkpt lat="45.41848" lon="4.6831">
        <ele>469.4</ele>
        <time>2021-04-22T13:55:46Z</time>
      </trkpt>
      <trkpt lat="45.41848" lon="4.6831">
        <ele>469.3</ele>
        <time>2021-04-22T13:55:51Z</time>
      </trkpt>
      <trkpt lat="45.41848" lon="4.6831">
        <ele>469.2</ele>
        <time>2021-04-22T13:55:57Z</time>
      </trkpt>
      <trkpt lat="45.41848" lon="4.6831">
        <ele>469.2</ele>
        <time>2021-04-22T13:56:02Z</time>
      </trkpt>
      <trkpt lat="45.41849" lon="4.68311">
        <ele>469.2</ele>
        <time>2021-04-22T13:56:07Z</time>
      </trkpt>
      <trkpt lat="45.4185" lon="4.68313">
        <ele>469.2</ele>
        <time>2021-04-22T13:56:13Z</time>
      </trkpt>
      <trkpt lat="45.4185" lon="4.68312">
        <ele>469.2</ele>
        <time>2021-04-22T13:56:19Z</time>
      </trkpt>
      <trkpt lat="45.41849" lon="4.6831">
        <ele>469.2</ele>
        <time>2021-04-22T13:56:25Z</time>
      </trkpt>
      <trkpt lat="45.41849" lon="4.68309">
        <ele>469.2</ele>
        <time>2021-04-22T13:56:30Z</time>
      </trkpt>
      <trkpt lat="45.41849" lon="4.68311">
        <ele>469.2</ele>
        <time>2021-04-22T13:56:35Z</time>
      </trkpt>
      <trkpt lat="45.41849" lon="4.68311">
        <ele>469.1</ele>
        <time>2021-04-22T13:56:41Z</time>
      </trkpt>
      <trkpt lat="45.41849" lon="4.6831">
        <ele>469.3</ele>
        <time>2021-04-22T13:56:46Z</time>
      </trkpt>
      <trkpt lat="45.41849" lon="4.6831">
        <ele>469.3</ele>
        <time>2021-04-22T13:56:52Z</time>
      </trkpt>
      <trkpt lat="45.41849" lon="4.68308">
        <ele>469.3</ele>
        <time>2021-04-22T13:56:57Z</time>
      </trkpt>
      <trkpt lat="45.41849" lon="4.68308">
        <ele>469.4</ele>
        <time>2021-04-22T13:57:02Z</time>
      </trkpt>
      <trkpt lat="45.41849" lon="4.68308">
        <ele>469.3</ele>
        <time>2021-04-22T13:57:07Z</time>
      </trkpt>
      <trkpt lat="45.41849" lon="4.68308">
        <ele>469.4</ele>
        <time>2021-04-22T13:57:12Z</time>
      </trkpt>
      <trkpt lat="45.41849" lon="4.68308">
        <ele>469.3</ele>
        <time>2021-04-22T13:57:18Z</time>
      </trkpt>
      <trkpt lat="45.41849" lon="4.68308">
        <ele>469.2</ele>
        <time>2021-04-22T13:57:24Z</time>
      </trkpt>
      <trkpt lat="45.41849" lon="4.68308">
        <ele>469.2</ele>
        <time>2021-04-22T13:57:30Z</time>
      </trkpt>
      <trkpt lat="45.41849" lon="4.68308">
        <ele>469.2</ele>
        <time>2021-04-22T13:57:36Z</time>
      </trkpt>
      <trkpt lat="45.4185" lon="4.68308">
        <ele>469.1</ele>
        <time>2021-04-22T13:57:41Z</time>
      </trkpt>
      <trkpt lat="45.41848" lon="4.68306">
        <ele>469.1</ele>
        <time>2021-04-22T13:57:47Z</time>
      </trkpt>
      <trkpt lat="45.41847" lon="4.68305">
        <ele>469.2</ele>
        <time>2021-04-22T13:57:53Z</time>
      </trkpt>
      <trkpt lat="45.41847" lon="4.68304">
        <ele>469.2</ele>
        <time>2021-04-22T13:57:59Z</time>
      </trkpt>
      <trkpt lat="45.41847" lon="4.68304">
        <ele>469.2</ele>
        <time>2021-04-22T13:58:04Z</time>
      </trkpt>
      <trkpt lat="45.41847" lon="4.68304">
        <ele>469.3</ele>
        <time>2021-04-22T13:58:09Z</time>
      </trkpt>
      <trkpt lat="45.41848" lon="4.68305">
        <ele>469.4</ele>
        <time>2021-04-22T13:58:15Z</time>
      </trkpt>
      <trkpt lat="45.41848" lon="4.68305">
        <ele>469.3</ele>
        <time>2021-04-22T13:58:20Z</time>
      </trkpt>
      <trkpt lat="45.41848" lon="4.68304">
        <ele>469.1</ele>
        <time>2021-04-22T13:58:25Z</time>
      </trkpt>
      <trkpt lat="45.41847" lon="4.68303">
        <ele>469.1</ele>
        <time>2021-04-22T13:58:31Z</time>
      </trkpt>
      <trkpt lat="45.41847" lon="4.68303">
        <ele>469.1</ele>
        <time>2021-04-22T13:58:37Z</time>
      </trkpt>
      <trkpt lat="45.41847" lon="4.68303">
        <ele>469.2</ele>
        <time>2021-04-22T13:58:42Z</time>
      </trkpt>
      <trkpt lat="45.41846" lon="4.68303">
        <ele>469.1</ele>
        <time>2021-04-22T13:58:47Z</time>
      </trkpt>
      <trkpt lat="45.41846" lon="4.68303">
        <ele>469.1</ele>
        <time>2021-04-22T13:58:53Z</time>
      </trkpt>
      <trkpt lat="45.41846" lon="4.68303">
        <ele>469.1</ele>
        <time>2021-04-22T13:58:58Z</time>
      </trkpt>
      <trkpt lat="45.41846" lon="4.68303">
        <ele>469.1</ele>
        <time>2021-04-22T13:59:03Z</time>
      </trkpt>
      <trkpt lat="45.41846" lon="4.68304">
        <ele>469.2</ele>
        <time>2021-04-22T13:59:08Z</time>
      </trkpt>
      <trkpt lat="45.41847" lon="4.68304">
        <ele>469.1</ele>
        <time>2021-04-22T13:59:14Z</time>
      </trkpt>
      <trkpt lat="45.41847" lon="4.68304">
        <ele>469.2</ele>
        <time>2021-04-22T13:59:20Z</time>
      </trkpt>
      <trkpt lat="45.41846" lon="4.68304">
        <ele>469.1</ele>
        <time>2021-04-22T13:59:25Z</time>
      </trkpt>
      <trkpt lat="45.41846" lon="4.68304">
        <ele>469.2</ele>
        <time>2021-04-22T13:59:30Z</time>
      </trkpt>
      <trkpt lat="45.41846" lon="4.68304">
        <ele>469.2</ele>
        <time>2021-04-22T13:59:36Z</time>
      </trkpt>
      <trkpt lat="45.41846" lon="4.68304">
        <ele>469.3</ele>
        <time>2021-04-22T13:59:42Z</time>
      </trkpt>
      <trkpt lat="45.41847" lon="4.68304">
        <ele>469.3</ele>
        <time>2021-04-22T13:59:48Z</time>
      </trkpt>
      <trkpt lat="45.41847" lon="4.68305">
        <ele>469.3</ele>
        <time>2021-04-22T13:59:54Z</time>
      </trkpt>
      <trkpt lat="45.41847" lon="4.68305">
        <ele>469.2</ele>
        <time>2021-04-22T13:59:59Z</time>
      </trkpt>
      <trkpt lat="45.41847" lon="4.68305">
        <ele>469.2</ele>
        <time>2021-04-22T14:00:04Z</time>
      </trkpt>
      <trkpt lat="45.41847" lon="4.68305">
        <ele>469.2</ele>
        <time>2021-04-22T14:00:09Z</time>
      </trkpt>
      <trkpt lat="45.41847" lon="4.68306">
        <ele>469.2</ele>
        <time>2021-04-22T14:00:14Z</time>
      </trkpt>
      <trkpt lat="45.41847" lon="4.68307">
        <ele>469.2</ele>
        <time>2021-04-22T14:00:20Z</time>
      </trkpt>
      <trkpt lat="45.41848" lon="4.68307">
        <ele>469.2</ele>
        <time>2021-04-22T14:00:25Z</time>
      </trkpt>
      <trkpt lat="45.41848" lon="4.68305">
        <ele>469.1</ele>
        <time>2021-04-22T14:00:30Z</time>
      </trkpt>
      <trkpt lat="45.41848" lon="4.68305">
        <ele>469.1</ele>
        <time>2021-04-22T14:00:35Z</time>
      </trkpt>
      <trkpt lat="45.41847" lon="4.68305">
        <ele>469</ele>
        <time>2021-04-22T14:00:41Z</time>
      </trkpt>
      <trkpt lat="45.41847" lon="4.68305">
        <ele>469.1</ele>
        <time>2021-04-22T14:00:47Z</time>
      </trkpt>
      <trkpt lat="45.41847" lon="4.68306">
        <ele>469.3</ele>
        <time>2021-04-22T14:00:53Z</time>
      </trkpt>
      <trkpt lat="45.41848" lon="4.68307">
        <ele>469.2</ele>
        <time>2021-04-22T14:00:58Z</time>
      </trkpt>
      <trkpt lat="45.41849" lon="4.68306">
        <ele>469.1</ele>
        <time>2021-04-22T14:01:03Z</time>
      </trkpt>
      <trkpt lat="45.41857" lon="4.68294">
        <ele>469</ele>
        <time>2021-04-22T14:01:09Z</time>
      </trkpt>
      <trkpt lat="45.41871" lon="4.6828">
        <ele>469.1</ele>
        <time>2021-04-22T14:01:14Z</time>
      </trkpt>
      <trkpt lat="45.41893" lon="4.68257">
        <ele>469</ele>
        <time>2021-04-22T14:01:20Z</time>
      </trkpt>
      <trkpt lat="45.41917" lon="4.68236">
        <ele>469.1</ele>
        <time>2021-04-22T14:01:26Z</time>
      </trkpt>
      <trkpt lat="45.41942" lon="4.68227">
        <ele>469.1</ele>
        <time>2021-04-22T14:01:31Z</time>
      </trkpt>
      <trkpt lat="45.41967" lon="4.68231">
        <ele>469.1</ele>
        <time>2021-04-22T14:01:36Z</time>
      </trkpt>
      <trkpt lat="45.41991" lon="4.68245">
        <ele>469.1</ele>
        <time>2021-04-22T14:01:41Z</time>
      </trkpt>
      <trkpt lat="45.42032" lon="4.68268">
        <ele>469.1</ele>
        <time>2021-04-22T14:01:47Z</time>
      </trkpt>
      <trkpt lat="45.42072" lon="4.68294">
        <ele>469.1</ele>
        <time>2021-04-22T14:01:53Z</time>
      </trkpt>
      <trkpt lat="45.42108" lon="4.68334">
        <ele>469</ele>
        <time>2021-04-22T14:01:59Z</time>
      </trkpt>
      <trkpt lat="45.42135" lon="4.68369">
        <ele>453</ele>
        <time>2021-04-22T14:02:04Z</time>
      </trkpt>
      <trkpt lat="45.42155" lon="4.68413">
        <ele>453.1</ele>
        <time>2021-04-22T14:02:10Z</time>
      </trkpt>
      <trkpt lat="45.42163" lon="4.6845">
        <ele>453</ele>
        <time>2021-04-22T14:02:15Z</time>
      </trkpt>
      <trkpt lat="45.42177" lon="4.68499">
        <ele>451.7</ele>
        <time>2021-04-22T14:02:21Z</time>
      </trkpt>
      <trkpt lat="45.4219" lon="4.68546">
        <ele>447.6</ele>
        <time>2021-04-22T14:02:27Z</time>
      </trkpt>
      <trkpt lat="45.42209" lon="4.68598">
        <ele>443.4</ele>
        <time>2021-04-22T14:02:33Z</time>
      </trkpt>
      <trkpt lat="45.42233" lon="4.68658">
        <ele>437.9</ele>
        <time>2021-04-22T14:02:39Z</time>
      </trkpt>
      <trkpt lat="45.4223" lon="4.68736">
        <ele>434.5</ele>
        <time>2021-04-22T14:02:45Z</time>
      </trkpt>
      <trkpt lat="45.4223" lon="4.68801">
        <ele>431.1</ele>
        <time>2021-04-22T14:02:51Z</time>
      </trkpt>
      <trkpt lat="45.42249" lon="4.68865">
        <ele>427.5</ele>
        <time>2021-04-22T14:02:57Z</time>
      </trkpt>
      <trkpt lat="45.42274" lon="4.68931">
        <ele>421.7</ele>
        <time>2021-04-22T14:03:03Z</time>
      </trkpt>
      <trkpt lat="45.42288" lon="4.68967">
        <ele>419.5</ele>
        <time>2021-04-22T14:03:09Z</time>
      </trkpt>
      <trkpt lat="45.42289" lon="4.68972">
        <ele>419.4</ele>
        <time>2021-04-22T14:03:14Z</time>
      </trkpt>
      <trkpt lat="45.42288" lon="4.6897">
        <ele>419.5</ele>
        <time>2021-04-22T14:03:19Z</time>
      </trkpt>
      <trkpt lat="45.42293" lon="4.68963">
        <ele>419.4</ele>
        <time>2021-04-22T14:03:24Z</time>
      </trkpt>
      <trkpt lat="45.42289" lon="4.69003">
        <ele>419.3</ele>
        <time>2021-04-22T14:03:30Z</time>
      </trkpt>
      <trkpt lat="45.42279" lon="4.69044">
        <ele>419.3</ele>
        <time>2021-04-22T14:03:35Z</time>
      </trkpt>
      <trkpt lat="45.42279" lon="4.69092">
        <ele>419.1</ele>
        <time>2021-04-22T14:03:41Z</time>
      </trkpt>
      <trkpt lat="45.4228" lon="4.69117">
        <ele>419.2</ele>
        <time>2021-04-22T14:03:46Z</time>
      </trkpt>
      <trkpt lat="45.42274" lon="4.6915">
        <ele>422.3</ele>
        <time>2021-04-22T14:03:52Z</time>
      </trkpt>
      <trkpt lat="45.42268" lon="4.6918">
        <ele>422.3</ele>
        <time>2021-04-22T14:03:57Z</time>
      </trkpt>
      <trkpt lat="45.42258" lon="4.6922">
        <ele>422.2</ele>
        <time>2021-04-22T14:04:03Z</time>
      </trkpt>
      <trkpt lat="45.42254" lon="4.69249">
        <ele>422.2</ele>
        <time>2021-04-22T14:04:08Z</time>
      </trkpt>
      <trkpt lat="45.42285" lon="4.69256">
        <ele>422.1</ele>
        <time>2021-04-22T14:04:14Z</time>
      </trkpt>
      <trkpt lat="45.42319" lon="4.69249">
        <ele>422.1</ele>
        <time>2021-04-22T14:04:19Z</time>
      </trkpt>
      <trkpt lat="45.42361" lon="4.69212">
        <ele>422.2</ele>
        <time>2021-04-22T14:04:25Z</time>
      </trkpt>
      <trkpt lat="45.4238" lon="4.69155">
        <ele>422.1</ele>
        <time>2021-04-22T14:04:30Z</time>
      </trkpt>
      <trkpt lat="45.4239" lon="4.69076">
        <ele>422.2</ele>
        <time>2021-04-22T14:04:36Z</time>
      </trkpt>
      <trkpt lat="45.42375" lon="4.68995">
        <ele>422.1</ele>
        <time>2021-04-22T14:04:42Z</time>
      </trkpt>
      <trkpt lat="45.42365" lon="4.6891">
        <ele>397.1</ele>
        <time>2021-04-22T14:04:48Z</time>
      </trkpt>
      <trkpt lat="45.42385" lon="4.68834">
        <ele>393.5</ele>
        <time>2021-04-22T14:04:54Z</time>
      </trkpt>
      <trkpt lat="45.42426" lon="4.68836">
        <ele>390.4</ele>
        <time>2021-04-22T14:04:59Z</time>
      </trkpt>
      <trkpt lat="45.42456" lon="4.6888">
        <ele>390.5</ele>
        <time>2021-04-22T14:05:05Z</time>
      </trkpt>
      <trkpt lat="45.42465" lon="4.68901">
        <ele>391.9</ele>
        <time>2021-04-22T14:05:11Z</time>
      </trkpt>
      <trkpt lat="45.42466" lon="4.68912">
        <ele>393.5</ele>
        <time>2021-04-22T14:05:16Z</time>
      </trkpt>
      <trkpt lat="45.42466" lon="4.68924">
        <ele>393.6</ele>
        <time>2021-04-22T14:05:22Z</time>
      </trkpt>
      <trkpt lat="45.42467" lon="4.68933">
        <ele>393.7</ele>
        <time>2021-04-22T14:05:27Z</time>
      </trkpt>
      <trkpt lat="45.42468" lon="4.68943">
        <ele>393.6</ele>
        <time>2021-04-22T14:05:32Z</time>
      </trkpt>
      <trkpt lat="45.42471" lon="4.68954">
        <ele>393.6</ele>
        <time>2021-04-22T14:05:38Z</time>
      </trkpt>
      <trkpt lat="45.42471" lon="4.68965">
        <ele>393.6</ele>
        <time>2021-04-22T14:05:44Z</time>
      </trkpt>
      <trkpt lat="45.42474" lon="4.68976">
        <ele>393.6</ele>
        <time>2021-04-22T14:05:50Z</time>
      </trkpt>
      <trkpt lat="45.42476" lon="4.68986">
        <ele>393.5</ele>
        <time>2021-04-22T14:05:55Z</time>
      </trkpt>
      <trkpt lat="45.42479" lon="4.68995">
        <ele>393.7</ele>
        <time>2021-04-22T14:06:01Z</time>
      </trkpt>
      <trkpt lat="45.42481" lon="4.69004">
        <ele>393.8</ele>
        <time>2021-04-22T14:06:06Z</time>
      </trkpt>
      <trkpt lat="45.42484" lon="4.69012">
        <ele>393.8</ele>
        <time>2021-04-22T14:06:11Z</time>
      </trkpt>
      <trkpt lat="45.42487" lon="4.69023">
        <ele>393.9</ele>
        <time>2021-04-22T14:06:16Z</time>
      </trkpt>
      <trkpt lat="45.4249" lon="4.69033">
        <ele>393.9</ele>
        <time>2021-04-22T14:06:21Z</time>
      </trkpt>
      <trkpt lat="45.42493" lon="4.6904">
        <ele>393.9</ele>
        <time>2021-04-22T14:06:27Z</time>
      </trkpt>
      <trkpt lat="45.42497" lon="4.6905">
        <ele>393.8</ele>
        <time>2021-04-22T14:06:33Z</time>
      </trkpt>
      <trkpt lat="45.425" lon="4.69059">
        <ele>393.9</ele>
        <time>2021-04-22T14:06:38Z</time>
      </trkpt>
      <trkpt lat="45.425" lon="4.69068">
        <ele>393.9</ele>
        <time>2021-04-22T14:06:43Z</time>
      </trkpt>
      <trkpt lat="45.42501" lon="4.69078">
        <ele>394</ele>
        <time>2021-04-22T14:06:48Z</time>
      </trkpt>
      <trkpt lat="45.42505" lon="4.69087">
        <ele>394</ele>
        <time>2021-04-22T14:06:53Z</time>
      </trkpt>
      <trkpt lat="45.42506" lon="4.69097">
        <ele>393.8</ele>
        <time>2021-04-22T14:06:59Z</time>
      </trkpt>
      <trkpt lat="45.42508" lon="4.69108">
        <ele>393.8</ele>
        <time>2021-04-22T14:07:04Z</time>
      </trkpt>
      <trkpt lat="45.4251" lon="4.6912">
        <ele>393.7</ele>
        <time>2021-04-22T14:07:10Z</time>
      </trkpt>
      <trkpt lat="45.42512" lon="4.69134">
        <ele>393.7</ele>
        <time>2021-04-22T14:07:15Z</time>
      </trkpt>
      <trkpt lat="45.42518" lon="4.69139">
        <ele>393.7</ele>
        <time>2021-04-22T14:07:21Z</time>
      </trkpt>
      <trkpt lat="45.42527" lon="4.69134">
        <ele>393.7</ele>
        <time>2021-04-22T14:07:26Z</time>
      </trkpt>
      <trkpt lat="45.42534" lon="4.69131">
        <ele>393.8</ele>
        <time>2021-04-22T14:07:31Z</time>
      </trkpt>
      <trkpt lat="45.42544" lon="4.6913">
        <ele>393.8</ele>
        <time>2021-04-22T14:07:37Z</time>
      </trkpt>
      <trkpt lat="45.42554" lon="4.69129">
        <ele>393.7</ele>
        <time>2021-04-22T14:07:42Z</time>
      </trkpt>
      <trkpt lat="45.42562" lon="4.69131">
        <ele>393.7</ele>
        <time>2021-04-22T14:07:48Z</time>
      </trkpt>
      <trkpt lat="45.42568" lon="4.69131">
        <ele>393.7</ele>
        <time>2021-04-22T14:07:53Z</time>
      </trkpt>
      <trkpt lat="45.42574" lon="4.69134">
        <ele>422.2</ele>
        <time>2021-04-22T14:07:59Z</time>
      </trkpt>
      <trkpt lat="45.4258" lon="4.69135">
        <ele>422.3</ele>
        <time>2021-04-22T14:08:04Z</time>
      </trkpt>
      <trkpt lat="45.42587" lon="4.69132">
        <ele>422.3</ele>
        <time>2021-04-22T14:08:09Z</time>
      </trkpt>
      <trkpt lat="45.42591" lon="4.69133">
        <ele>422.3</ele>
        <time>2021-04-22T14:08:15Z</time>
      </trkpt>
      <trkpt lat="45.42597" lon="4.69134">
        <ele>422.6</ele>
        <time>2021-04-22T14:08:20Z</time>
      </trkpt>
      <trkpt lat="45.42604" lon="4.69136">
        <ele>422.6</ele>
        <time>2021-04-22T14:08:25Z</time>
      </trkpt>
      <trkpt lat="45.4261" lon="4.69137">
        <ele>422.6</ele>
        <time>2021-04-22T14:08:30Z</time>
      </trkpt>
      <trkpt lat="45.42616" lon="4.6914">
        <ele>422.5</ele>
        <time>2021-04-22T14:08:36Z</time>
      </trkpt>
      <trkpt lat="45.42622" lon="4.69141">
        <ele>422.4</ele>
        <time>2021-04-22T14:08:41Z</time>
      </trkpt>
      <trkpt lat="45.42628" lon="4.69144">
        <ele>422.4</ele>
        <time>2021-04-22T14:08:46Z</time>
      </trkpt>
      <trkpt lat="45.42634" lon="4.69145">
        <ele>422.4</ele>
        <time>2021-04-22T14:08:52Z</time>
      </trkpt>
      <trkpt lat="45.4264" lon="4.69147">
        <ele>422.3</ele>
        <time>2021-04-22T14:08:57Z</time>
      </trkpt>
      <trkpt lat="45.42645" lon="4.69149">
        <ele>422.2</ele>
        <time>2021-04-22T14:09:02Z</time>
      </trkpt>
      <trkpt lat="45.42651" lon="4.69148">
        <ele>422.3</ele>
        <time>2021-04-22T14:09:08Z</time>
      </trkpt>
      <trkpt lat="45.42656" lon="4.69149">
        <ele>422.3</ele>
        <time>2021-04-22T14:09:13Z</time>
      </trkpt>
      <trkpt lat="45.42662" lon="4.69151">
        <ele>422.3</ele>
        <time>2021-04-22T14:09:18Z</time>
      </trkpt>
      <trkpt lat="45.42667" lon="4.69153">
        <ele>422.2</ele>
        <time>2021-04-22T14:09:23Z</time>
      </trkpt>
      <trkpt lat="45.42672" lon="4.69155">
        <ele>422.1</ele>
        <time>2021-04-22T14:09:29Z</time>
      </trkpt>
      <trkpt lat="45.42678" lon="4.69155">
        <ele>422.1</ele>
        <time>2021-04-22T14:09:34Z</time>
      </trkpt>
      <trkpt lat="45.42683" lon="4.69156">
        <ele>422</ele>
        <time>2021-04-22T14:09:39Z</time>
      </trkpt>
      <trkpt lat="45.42689" lon="4.6916">
        <ele>422</ele>
        <time>2021-04-22T14:09:46Z</time>
      </trkpt>
      <trkpt lat="45.42696" lon="4.69165">
        <ele>422.1</ele>
        <time>2021-04-22T14:09:51Z</time>
      </trkpt>
      <trkpt lat="45.42702" lon="4.69168">
        <ele>422</ele>
        <time>2021-04-22T14:09:57Z</time>
      </trkpt>
      <trkpt lat="45.42708" lon="4.69173">
        <ele>422</ele>
        <time>2021-04-22T14:10:02Z</time>
      </trkpt>
      <trkpt lat="45.42713" lon="4.69177">
        <ele>422</ele>
        <time>2021-04-22T14:10:08Z</time>
      </trkpt>
      <trkpt lat="45.42717" lon="4.6918">
        <ele>427.9</ele>
        <time>2021-04-22T14:10:13Z</time>
      </trkpt>
      <trkpt lat="45.42725" lon="4.69181">
        <ele>428.7</ele>
        <time>2021-04-22T14:10:19Z</time>
      </trkpt>
      <trkpt lat="45.42731" lon="4.69182">
        <ele>429.4</ele>
        <time>2021-04-22T14:10:24Z</time>
      </trkpt>
      <trkpt lat="45.42738" lon="4.69183">
        <ele>429.7</ele>
        <time>2021-04-22T14:10:30Z</time>
      </trkpt>
      <trkpt lat="45.42744" lon="4.69188">
        <ele>429.8</ele>
        <time>2021-04-22T14:10:35Z</time>
      </trkpt>
      <trkpt lat="45.42749" lon="4.69192">
        <ele>429.9</ele>
        <time>2021-04-22T14:10:41Z</time>
      </trkpt>
      <trkpt lat="45.42755" lon="4.69194">
        <ele>429.9</ele>
        <time>2021-04-22T14:10:46Z</time>
      </trkpt>
      <trkpt lat="45.42762" lon="4.69197">
        <ele>429.9</ele>
        <time>2021-04-22T14:10:51Z</time>
      </trkpt>
      <trkpt lat="45.42768" lon="4.69197">
        <ele>429.9</ele>
        <time>2021-04-22T14:10:56Z</time>
      </trkpt>
      <trkpt lat="45.42774" lon="4.69199">
        <ele>429.9</ele>
        <time>2021-04-22T14:11:02Z</time>
      </trkpt>
      <trkpt lat="45.4278" lon="4.69201">
        <ele>429.9</ele>
        <time>2021-04-22T14:11:07Z</time>
      </trkpt>
      <trkpt lat="45.42787" lon="4.69204">
        <ele>429.9</ele>
        <time>2021-04-22T14:11:12Z</time>
      </trkpt>
      <trkpt lat="45.42793" lon="4.69206">
        <ele>429.9</ele>
        <time>2021-04-22T14:11:18Z</time>
      </trkpt>
      <trkpt lat="45.42799" lon="4.69207">
        <ele>429.8</ele>
        <time>2021-04-22T14:11:23Z</time>
      </trkpt>
      <trkpt lat="45.42806" lon="4.69209">
        <ele>429.8</ele>
        <time>2021-04-22T14:11:28Z</time>
      </trkpt>
      <trkpt lat="45.42811" lon="4.6921">
        <ele>429.8</ele>
        <time>2021-04-22T14:11:34Z</time>
      </trkpt>
      <trkpt lat="45.42817" lon="4.69213">
        <ele>429.9</ele>
        <time>2021-04-22T14:11:39Z</time>
      </trkpt>
      <trkpt lat="45.42822" lon="4.69216">
        <ele>429.9</ele>
        <time>2021-04-22T14:11:45Z</time>
      </trkpt>
      <trkpt lat="45.42821" lon="4.69216">
        <ele>429.9</ele>
        <time>2021-04-22T14:11:51Z</time>
      </trkpt>
      <trkpt lat="45.42821" lon="4.69215">
        <ele>429.9</ele>
        <time>2021-04-22T14:11:57Z</time>
      </trkpt>
      <trkpt lat="45.42825" lon="4.69216">
        <ele>429.8</ele>
        <time>2021-04-22T14:12:02Z</time>
      </trkpt>
      <trkpt lat="45.42828" lon="4.69218">
        <ele>429.8</ele>
        <time>2021-04-22T14:12:08Z</time>
      </trkpt>
      <trkpt lat="45.42832" lon="4.69218">
        <ele>429.8</ele>
        <time>2021-04-22T14:12:13Z</time>
      </trkpt>
      <trkpt lat="45.42836" lon="4.69221">
        <ele>429.8</ele>
        <time>2021-04-22T14:12:19Z</time>
      </trkpt>
      <trkpt lat="45.4284" lon="4.69223">
        <ele>429.8</ele>
        <time>2021-04-22T14:12:25Z</time>
      </trkpt>
      <trkpt lat="45.42844" lon="4.69223">
        <ele>429.8</ele>
        <time>2021-04-22T14:12:30Z</time>
      </trkpt>
      <trkpt lat="45.42848" lon="4.69222">
        <ele>429.9</ele>
        <time>2021-04-22T14:12:35Z</time>
      </trkpt>
      <trkpt lat="45.42851" lon="4.69222">
        <ele>430</ele>
        <time>2021-04-22T14:12:41Z</time>
      </trkpt>
      <trkpt lat="45.42855" lon="4.69224">
        <ele>429.9</ele>
        <time>2021-04-22T14:12:46Z</time>
      </trkpt>
      <trkpt lat="45.42859" lon="4.69227">
        <ele>429.9</ele>
        <time>2021-04-22T14:12:52Z</time>
      </trkpt>
      <trkpt lat="45.42859" lon="4.69227">
        <ele>423.5</ele>
        <time>2021-04-22T14:12:57Z</time>
      </trkpt>
      <trkpt lat="45.42862" lon="4.6923">
        <ele>423</ele>
        <time>2021-04-22T14:13:02Z</time>
      </trkpt>
      <trkpt lat="45.42867" lon="4.69233">
        <ele>422.7</ele>
        <time>2021-04-22T14:13:08Z</time>
      </trkpt>
      <trkpt lat="45.42872" lon="4.69234">
        <ele>422.5</ele>
        <time>2021-04-22T14:13:13Z</time>
      </trkpt>
      <trkpt lat="45.42877" lon="4.69236">
        <ele>422.6</ele>
        <time>2021-04-22T14:13:18Z</time>
      </trkpt>
      <trkpt lat="45.42881" lon="4.69237">
        <ele>422.6</ele>
        <time>2021-04-22T14:13:23Z</time>
      </trkpt>
      <trkpt lat="45.42886" lon="4.69238">
        <ele>422.7</ele>
        <time>2021-04-22T14:13:28Z</time>
      </trkpt>
      <trkpt lat="45.4289" lon="4.69239">
        <ele>422.8</ele>
        <time>2021-04-22T14:13:34Z</time>
      </trkpt>
      <trkpt lat="45.42895" lon="4.6924">
        <ele>422.7</ele>
        <time>2021-04-22T14:13:39Z</time>
      </trkpt>
      <trkpt lat="45.42899" lon="4.69241">
        <ele>422.6</ele>
        <time>2021-04-22T14:13:45Z</time>
      </trkpt>
      <trkpt lat="45.42904" lon="4.69243">
        <ele>422.5</ele>
        <time>2021-04-22T14:13:50Z</time>
      </trkpt>
      <trkpt lat="45.42909" lon="4.69244">
        <ele>424.6</ele>
        <time>2021-04-22T14:13:56Z</time>
      </trkpt>
      <trkpt lat="45.42913" lon="4.69246">
        <ele>424.9</ele>
        <time>2021-04-22T14:14:01Z</time>
      </trkpt>
      <trkpt lat="45.42917" lon="4.69247">
        <ele>425</ele>
        <time>2021-04-22T14:14:06Z</time>
      </trkpt>
      <trkpt lat="45.4292" lon="4.69249">
        <ele>425</ele>
        <time>2021-04-22T14:14:11Z</time>
      </trkpt>
      <trkpt lat="45.42921" lon="4.69249">
        <ele>425</ele>
        <time>2021-04-22T14:14:17Z</time>
      </trkpt>
      <trkpt lat="45.42921" lon="4.69249">
        <ele>425</ele>
        <time>2021-04-22T14:14:22Z</time>
      </trkpt>
      <trkpt lat="45.4292" lon="4.69249">
        <ele>424.9</ele>
        <time>2021-04-22T14:14:28Z</time>
      </trkpt>
      <trkpt lat="45.42922" lon="4.69249">
        <ele>425</ele>
        <time>2021-04-22T14:14:33Z</time>
      </trkpt>
      <trkpt lat="45.42928" lon="4.69252">
        <ele>424.9</ele>
        <time>2021-04-22T14:14:38Z</time>
      </trkpt>
      <trkpt lat="45.42936" lon="4.69254">
        <ele>424.8</ele>
        <time>2021-04-22T14:14:43Z</time>
      </trkpt>
      <trkpt lat="45.42942" lon="4.69257">
        <ele>424.8</ele>
        <time>2021-04-22T14:14:49Z</time>
      </trkpt>
      <trkpt lat="45.42948" lon="4.6926">
        <ele>424.8</ele>
        <time>2021-04-22T14:14:54Z</time>
      </trkpt>
      <trkpt lat="45.42953" lon="4.69263">
        <ele>424.8</ele>
        <time>2021-04-22T14:14:59Z</time>
      </trkpt>
      <trkpt lat="45.42961" lon="4.69264">
        <ele>424.9</ele>
        <time>2021-04-22T14:15:05Z</time>
      </trkpt>
      <trkpt lat="45.42967" lon="4.69265">
        <ele>424.9</ele>
        <time>2021-04-22T14:15:11Z</time>
      </trkpt>
      <trkpt lat="45.42974" lon="4.69266">
        <ele>424.9</ele>
        <time>2021-04-22T14:15:16Z</time>
      </trkpt>
      <trkpt lat="45.42979" lon="4.69266">
        <ele>424.8</ele>
        <time>2021-04-22T14:15:21Z</time>
      </trkpt>
      <trkpt lat="45.42985" lon="4.69265">
        <ele>424.8</ele>
        <time>2021-04-22T14:15:26Z</time>
      </trkpt>
      <trkpt lat="45.4299" lon="4.69265">
        <ele>424.7</ele>
        <time>2021-04-22T14:15:31Z</time>
      </trkpt>
      <trkpt lat="45.42995" lon="4.69266">
        <ele>424.7</ele>
        <time>2021-04-22T14:15:36Z</time>
      </trkpt>
      <trkpt lat="45.43001" lon="4.69267">
        <ele>424.7</ele>
        <time>2021-04-22T14:15:42Z</time>
      </trkpt>
      <trkpt lat="45.43008" lon="4.69267">
        <ele>424.6</ele>
        <time>2021-04-22T14:15:47Z</time>
      </trkpt>
      <trkpt lat="45.43014" lon="4.69268">
        <ele>424.7</ele>
        <time>2021-04-22T14:15:53Z</time>
      </trkpt>
      <trkpt lat="45.4302" lon="4.69269">
        <ele>424.8</ele>
        <time>2021-04-22T14:15:58Z</time>
      </trkpt>
      <trkpt lat="45.43026" lon="4.6927">
        <ele>424.7</ele>
        <time>2021-04-22T14:16:03Z</time>
      </trkpt>
      <trkpt lat="45.43032" lon="4.69273">
        <ele>424.7</ele>
        <time>2021-04-22T14:16:08Z</time>
      </trkpt>
      <trkpt lat="45.43039" lon="4.69274">
        <ele>414.7</ele>
        <time>2021-04-22T14:16:14Z</time>
      </trkpt>
      <trkpt lat="45.43044" lon="4.69276">
        <ele>414.4</ele>
        <time>2021-04-22T14:16:19Z</time>
      </trkpt>
      <trkpt lat="45.4305" lon="4.69277">
        <ele>414.1</ele>
        <time>2021-04-22T14:16:25Z</time>
      </trkpt>
      <trkpt lat="45.43057" lon="4.69277">
        <ele>413.7</ele>
        <time>2021-04-22T14:16:30Z</time>
      </trkpt>
      <trkpt lat="45.43063" lon="4.69278">
        <ele>413.8</ele>
        <time>2021-04-22T14:16:35Z</time>
      </trkpt>
      <trkpt lat="45.4307" lon="4.69279">
        <ele>413.9</ele>
        <time>2021-04-22T14:16:41Z</time>
      </trkpt>
      <trkpt lat="45.43078" lon="4.69281">
        <ele>413.9</ele>
        <time>2021-04-22T14:16:47Z</time>
      </trkpt>
      <trkpt lat="45.43083" lon="4.69282">
        <ele>413.8</ele>
        <time>2021-04-22T14:16:52Z</time>
      </trkpt>
      <trkpt lat="45.43089" lon="4.69285">
        <ele>413.8</ele>
        <time>2021-04-22T14:16:57Z</time>
      </trkpt>
      <trkpt lat="45.43096" lon="4.69286">
        <ele>413.8</ele>
        <time>2021-04-22T14:17:02Z</time>
      </trkpt>
      <trkpt lat="45.43103" lon="4.69288">
        <ele>413.8</ele>
        <time>2021-04-22T14:17:07Z</time>
      </trkpt>
      <trkpt lat="45.43109" lon="4.69289">
        <ele>413.8</ele>
        <time>2021-04-22T14:17:12Z</time>
      </trkpt>
      <trkpt lat="45.43117" lon="4.69291">
        <ele>413.8</ele>
        <time>2021-04-22T14:17:18Z</time>
      </trkpt>
      <trkpt lat="45.43122" lon="4.69292">
        <ele>413.8</ele>
        <time>2021-04-22T14:17:23Z</time>
      </trkpt>
      <trkpt lat="45.43128" lon="4.69293">
        <ele>413.8</ele>
        <time>2021-04-22T14:17:28Z</time>
      </trkpt>
      <trkpt lat="45.43134" lon="4.69292">
        <ele>413.8</ele>
        <time>2021-04-22T14:17:34Z</time>
      </trkpt>
      <trkpt lat="45.43141" lon="4.69292">
        <ele>413.8</ele>
        <time>2021-04-22T14:17:39Z</time>
      </trkpt>
      <trkpt lat="45.43148" lon="4.69292">
        <ele>413.8</ele>
        <time>2021-04-22T14:17:45Z</time>
      </trkpt>
      <trkpt lat="45.43154" lon="4.69294">
        <ele>413.8</ele>
        <time>2021-04-22T14:17:50Z</time>
      </trkpt>
      <trkpt lat="45.43161" lon="4.69296">
        <ele>413.8</ele>
        <time>2021-04-22T14:17:56Z</time>
      </trkpt>
      <trkpt lat="45.43166" lon="4.69301">
        <ele>413.7</ele>
        <time>2021-04-22T14:18:01Z</time>
      </trkpt>
      <trkpt lat="45.4317" lon="4.69309">
        <ele>413.6</ele>
        <time>2021-04-22T14:18:06Z</time>
      </trkpt>
      <trkpt lat="45.43174" lon="4.69316">
        <ele>413.7</ele>
        <time>2021-04-22T14:18:12Z</time>
      </trkpt>
      <trkpt lat="45.43178" lon="4.6932">
        <ele>413.9</ele>
        <time>2021-04-22T14:18:17Z</time>
      </trkpt>
      <trkpt lat="45.43184" lon="4.69324">
        <ele>413.9</ele>
        <time>2021-04-22T14:18:22Z</time>
      </trkpt>
      <trkpt lat="45.43189" lon="4.69326">
        <ele>413.9</ele>
        <time>2021-04-22T14:18:27Z</time>
      </trkpt>
      <trkpt lat="45.43195" lon="4.6933">
        <ele>413.8</ele>
        <time>2021-04-22T14:18:33Z</time>
      </trkpt>
      <trkpt lat="45.43201" lon="4.69334">
        <ele>420.2</ele>
        <time>2021-04-22T14:18:38Z</time>
      </trkpt>
      <trkpt lat="45.43208" lon="4.69338">
        <ele>420.3</ele>
        <time>2021-04-22T14:18:43Z</time>
      </trkpt>
      <trkpt lat="45.43213" lon="4.69343">
        <ele>420.3</ele>
        <time>2021-04-22T14:18:48Z</time>
      </trkpt>
      <trkpt lat="45.4322" lon="4.69348">
        <ele>420.2</ele>
        <time>2021-04-22T14:18:54Z</time>
      </trkpt>
      <trkpt lat="45.43227" lon="4.69353">
        <ele>420.2</ele>
        <time>2021-04-22T14:18:59Z</time>
      </trkpt>
      <trkpt lat="45.43235" lon="4.69358">
        <ele>420.1</ele>
        <time>2021-04-22T14:19:05Z</time>
      </trkpt>
      <trkpt lat="45.43241" lon="4.69363">
        <ele>420.2</ele>
        <time>2021-04-22T14:19:10Z</time>
      </trkpt>
      <trkpt lat="45.43247" lon="4.69367">
        <ele>420.3</ele>
        <time>2021-04-22T14:19:15Z</time>
      </trkpt>
      <trkpt lat="45.43254" lon="4.6937">
        <ele>420.2</ele>
        <time>2021-04-22T14:19:20Z</time>
      </trkpt>
      <trkpt lat="45.4326" lon="4.69374">
        <ele>420.2</ele>
        <time>2021-04-22T14:19:25Z</time>
      </trkpt>
      <trkpt lat="45.43267" lon="4.69378">
        <ele>420.1</ele>
        <time>2021-04-22T14:19:30Z</time>
      </trkpt>
      <trkpt lat="45.43274" lon="4.69382">
        <ele>420.1</ele>
        <time>2021-04-22T14:19:36Z</time>
      </trkpt>
      <trkpt lat="45.43282" lon="4.69382">
        <ele>513.6</ele>
        <time>2021-04-22T14:19:41Z</time>
      </trkpt>
      <trkpt lat="45.4329" lon="4.69383">
        <ele>514.2</ele>
        <time>2021-04-22T14:19:47Z</time>
      </trkpt>
      <trkpt lat="45.43297" lon="4.69383">
        <ele>514.2</ele>
        <time>2021-04-22T14:19:53Z</time>
      </trkpt>
      <trkpt lat="45.43303" lon="4.69385">
        <ele>514.4</ele>
        <time>2021-04-22T14:19:58Z</time>
      </trkpt>
      <trkpt lat="45.4331" lon="4.69386">
        <ele>514.3</ele>
        <time>2021-04-22T14:20:03Z</time>
      </trkpt>
      <trkpt lat="45.43317" lon="4.69387">
        <ele>514.4</ele>
        <time>2021-04-22T14:20:09Z</time>
      </trkpt>
      <trkpt lat="45.43324" lon="4.69391">
        <ele>514.3</ele>
        <time>2021-04-22T14:20:14Z</time>
      </trkpt>
      <trkpt lat="45.43331" lon="4.69394">
        <ele>514.3</ele>
        <time>2021-04-22T14:20:19Z</time>
      </trkpt>
      <trkpt lat="45.43338" lon="4.69394">
        <ele>514.3</ele>
        <time>2021-04-22T14:20:25Z</time>
      </trkpt>
      <trkpt lat="45.43346" lon="4.69394">
        <ele>514.2</ele>
        <time>2021-04-22T14:20:30Z</time>
      </trkpt>
      <trkpt lat="45.43353" lon="4.69394">
        <ele>514.2</ele>
        <time>2021-04-22T14:20:36Z</time>
      </trkpt>
      <trkpt lat="45.4336" lon="4.69394">
        <ele>514.2</ele>
        <time>2021-04-22T14:20:41Z</time>
      </trkpt>
      <trkpt lat="45.43367" lon="4.69394">
        <ele>514.2</ele>
        <time>2021-04-22T14:20:46Z</time>
      </trkpt>
      <trkpt lat="45.43374" lon="4.69394">
        <ele>514.3</ele>
        <time>2021-04-22T14:20:52Z</time>
      </trkpt>
      <trkpt lat="45.43382" lon="4.69394">
        <ele>514.4</ele>
        <time>2021-04-22T14:20:57Z</time>
      </trkpt>
      <trkpt lat="45.4339" lon="4.69393">
        <ele>514.4</ele>
        <time>2021-04-22T14:21:02Z</time>
      </trkpt>
      <trkpt lat="45.43398" lon="4.69393">
        <ele>514.4</ele>
        <time>2021-04-22T14:21:08Z</time>
      </trkpt>
      <trkpt lat="45.43406" lon="4.69393">
        <ele>514.3</ele>
        <time>2021-04-22T14:21:13Z</time>
      </trkpt>
      <trkpt lat="45.43413" lon="4.69391">
        <ele>514.3</ele>
        <time>2021-04-22T14:21:18Z</time>
      </trkpt>
      <trkpt lat="45.43421" lon="4.69393">
        <ele>514.3</ele>
        <time>2021-04-22T14:21:24Z</time>
      </trkpt>
      <trkpt lat="45.43427" lon="4.69393">
        <ele>514.4</ele>
        <time>2021-04-22T14:21:29Z</time>
      </trkpt>
      <trkpt lat="45.43434" lon="4.69393">
        <ele>514.3</ele>
        <time>2021-04-22T14:21:34Z</time>
      </trkpt>
      <trkpt lat="45.43443" lon="4.69394">
        <ele>528.1</ele>
        <time>2021-04-22T14:21:39Z</time>
      </trkpt>
      <trkpt lat="45.43449" lon="4.69392">
        <ele>529.2</ele>
        <time>2021-04-22T14:21:45Z</time>
      </trkpt>
      <trkpt lat="45.43457" lon="4.69394">
        <ele>530</ele>
        <time>2021-04-22T14:21:50Z</time>
      </trkpt>
      <trkpt lat="45.43463" lon="4.69399">
        <ele>531.5</ele>
        <time>2021-04-22T14:21:56Z</time>
      </trkpt>
      <trkpt lat="45.43467" lon="4.69408">
        <ele>532.5</ele>
        <time>2021-04-22T14:22:01Z</time>
      </trkpt>
      <trkpt lat="45.43471" lon="4.69418">
        <ele>532.7</ele>
        <time>2021-04-22T14:22:06Z</time>
      </trkpt>
      <trkpt lat="45.43477" lon="4.69427">
        <ele>532.9</ele>
        <time>2021-04-22T14:22:12Z</time>
      </trkpt>
      <trkpt lat="45.43487" lon="4.69438">
        <ele>532.9</ele>
        <time>2021-04-22T14:22:18Z</time>
      </trkpt>
      <trkpt lat="45.435" lon="4.69449">
        <ele>534.6</ele>
        <time>2021-04-22T14:22:23Z</time>
      </trkpt>
      <trkpt lat="45.43513" lon="4.69466">
        <ele>534.7</ele>
        <time>2021-04-22T14:22:29Z</time>
      </trkpt>
      <trkpt lat="45.43529" lon="4.69483">
        <ele>532.8</ele>
        <time>2021-04-22T14:22:35Z</time>
      </trkpt>
      <trkpt lat="45.43547" lon="4.69495">
        <ele>533.8</ele>
        <time>2021-04-22T14:22:40Z</time>
      </trkpt>
      <trkpt lat="45.43565" lon="4.69504">
        <ele>532.5</ele>
        <time>2021-04-22T14:22:45Z</time>
      </trkpt>
      <trkpt lat="45.43585" lon="4.69501">
        <ele>532.9</ele>
        <time>2021-04-22T14:22:51Z</time>
      </trkpt>
      <trkpt lat="45.43605" lon="4.69497">
        <ele>530.9</ele>
        <time>2021-04-22T14:22:57Z</time>
      </trkpt>
      <trkpt lat="45.43633" lon="4.69491">
        <ele>529.2</ele>
        <time>2021-04-22T14:23:03Z</time>
      </trkpt>
      <trkpt lat="45.43667" lon="4.69488">
        <ele>525.9</ele>
        <time>2021-04-22T14:23:09Z</time>
      </trkpt>
      <trkpt lat="45.437" lon="4.69476">
        <ele>523.4</ele>
        <time>2021-04-22T14:23:15Z</time>
      </trkpt>
      <trkpt lat="45.4373" lon="4.69463">
        <ele>522.7</ele>
        <time>2021-04-22T14:23:21Z</time>
      </trkpt>
      <trkpt lat="45.43753" lon="4.69454">
        <ele>521.9</ele>
        <time>2021-04-22T14:23:26Z</time>
      </trkpt>
      <trkpt lat="45.43765" lon="4.69451">
        <ele>521.8</ele>
        <time>2021-04-22T14:23:32Z</time>
      </trkpt>
      <trkpt lat="45.43767" lon="4.69452">
        <ele>522.2</ele>
        <time>2021-04-22T14:23:37Z</time>
      </trkpt>
      <trkpt lat="45.43767" lon="4.69451">
        <ele>522.5</ele>
        <time>2021-04-22T14:23:43Z</time>
      </trkpt>
      <trkpt lat="45.43767" lon="4.69451">
        <ele>522.4</ele>
        <time>2021-04-22T14:23:49Z</time>
      </trkpt>
      <trkpt lat="45.43767" lon="4.69452">
        <ele>522.4</ele>
        <time>2021-04-22T14:23:54Z</time>
      </trkpt>
      <trkpt lat="45.43766" lon="4.69451">
        <ele>523</ele>
        <time>2021-04-22T14:23:59Z</time>
      </trkpt>
      <trkpt lat="45.43766" lon="4.69451">
        <ele>522.4</ele>
        <time>2021-04-22T14:24:05Z</time>
      </trkpt>
      <trkpt lat="45.43766" lon="4.6945">
        <ele>522.4</ele>
        <time>2021-04-22T14:24:11Z</time>
      </trkpt>
      <trkpt lat="45.43766" lon="4.6945">
        <ele>522.4</ele>
        <time>2021-04-22T14:24:16Z</time>
      </trkpt>
      <trkpt lat="45.43765" lon="4.6945">
        <ele>522.5</ele>
        <time>2021-04-22T14:24:21Z</time>
      </trkpt>
      <trkpt lat="45.43765" lon="4.6945">
        <ele>522.5</ele>
        <time>2021-04-22T14:24:27Z</time>
      </trkpt>
      <trkpt lat="45.43765" lon="4.6945">
        <ele>522.5</ele>
        <time>2021-04-22T14:24:33Z</time>
      </trkpt>
      <trkpt lat="45.43765" lon="4.6945">
        <ele>522.5</ele>
        <time>2021-04-22T14:24:38Z</time>
      </trkpt>
      <trkpt lat="45.43765" lon="4.6945">
        <ele>522.4</ele>
        <time>2021-04-22T14:24:44Z</time>
      </trkpt>
      <trkpt lat="45.43765" lon="4.6945">
        <ele>522.4</ele>
        <time>2021-04-22T14:24:49Z</time>
      </trkpt>
      <trkpt lat="45.43765" lon="4.6945">
        <ele>522.4</ele>
        <time>2021-04-22T14:24:54Z</time>
      </trkpt>
      <trkpt lat="45.43765" lon="4.6945">
        <ele>522.3</ele>
        <time>2021-04-22T14:24:59Z</time>
      </trkpt>
      <trkpt lat="45.43765" lon="4.6945">
        <ele>522.4</ele>
        <time>2021-04-22T14:25:04Z</time>
      </trkpt>
      <trkpt lat="45.43765" lon="4.6945">
        <ele>522.4</ele>
        <time>2021-04-22T14:25:10Z</time>
      </trkpt>
      <trkpt lat="45.43765" lon="4.6945">
        <ele>522.3</ele>
        <time>2021-04-22T14:25:16Z</time>
      </trkpt>
      <trkpt lat="45.43765" lon="4.6945">
        <ele>522.3</ele>
        <time>2021-04-22T14:25:21Z</time>
      </trkpt>
      <trkpt lat="45.43765" lon="4.6945">
        <ele>522.4</ele>
        <time>2021-04-22T14:25:27Z</time>
      </trkpt>
      <trkpt lat="45.43765" lon="4.6945">
        <ele>522.4</ele>
        <time>2021-04-22T14:25:32Z</time>
      </trkpt>
      <trkpt lat="45.43765" lon="4.69451">
        <ele>522.3</ele>
        <time>2021-04-22T14:25:37Z</time>
      </trkpt>
      <trkpt lat="45.43765" lon="4.69452">
        <ele>522.3</ele>
        <time>2021-04-22T14:25:43Z</time>
      </trkpt>
      <trkpt lat="45.43765" lon="4.69452">
        <ele>522.4</ele>
        <time>2021-04-22T14:25:48Z</time>
      </trkpt>
      <trkpt lat="45.43764" lon="4.69452">
        <ele>522.4</ele>
        <time>2021-04-22T14:25:54Z</time>
      </trkpt>
      <trkpt lat="45.43766" lon="4.69451">
        <ele>522.5</ele>
        <time>2021-04-22T14:25:59Z</time>
      </trkpt>
      <trkpt lat="45.43766" lon="4.6945">
        <ele>522.5</ele>
        <time>2021-04-22T14:26:04Z</time>
      </trkpt>
      <trkpt lat="45.43766" lon="4.6945">
        <ele>522.4</ele>
        <time>2021-04-22T14:26:10Z</time>
      </trkpt>
      <trkpt lat="45.43766" lon="4.6945">
        <ele>522.5</ele>
        <time>2021-04-22T14:26:16Z</time>
      </trkpt>
      <trkpt lat="45.43766" lon="4.6945">
        <ele>522.4</ele>
        <time>2021-04-22T14:26:21Z</time>
      </trkpt>
      <trkpt lat="45.43766" lon="4.6945">
        <ele>522.5</ele>
        <time>2021-04-22T14:26:27Z</time>
      </trkpt>
      <trkpt lat="45.43766" lon="4.6945">
        <ele>522.4</ele>
        <time>2021-04-22T14:26:33Z</time>
      </trkpt>
      <trkpt lat="45.43766" lon="4.6945">
        <ele>522.5</ele>
        <time>2021-04-22T14:26:39Z</time>
      </trkpt>
      <trkpt lat="45.43766" lon="4.6945">
        <ele>522.6</ele>
        <time>2021-04-22T14:26:44Z</time>
      </trkpt>
      <trkpt lat="45.43766" lon="4.6945">
        <ele>522.7</ele>
        <time>2021-04-22T14:26:49Z</time>
      </trkpt>
      <trkpt lat="45.43766" lon="4.6945">
        <ele>522.7</ele>
        <time>2021-04-22T14:26:55Z</time>
      </trkpt>
      <trkpt lat="45.43766" lon="4.6945">
        <ele>522.6</ele>
        <time>2021-04-22T14:27:00Z</time>
      </trkpt>
      <trkpt lat="45.43767" lon="4.6945">
        <ele>522.6</ele>
        <time>2021-04-22T14:27:06Z</time>
      </trkpt>
      <trkpt lat="45.43767" lon="4.69451">
        <ele>522.5</ele>
        <time>2021-04-22T14:27:12Z</time>
      </trkpt>
      <trkpt lat="45.43767" lon="4.69451">
        <ele>522.6</ele>
        <time>2021-04-22T14:27:18Z</time>
      </trkpt>
      <trkpt lat="45.43767" lon="4.69451">
        <ele>522.6</ele>
        <time>2021-04-22T14:27:23Z</time>
      </trkpt>
      <trkpt lat="45.43767" lon="4.69451">
        <ele>522.7</ele>
        <time>2021-04-22T14:27:29Z</time>
      </trkpt>
      <trkpt lat="45.43767" lon="4.69451">
        <ele>522.7</ele>
        <time>2021-04-22T14:27:35Z</time>
      </trkpt>
      <trkpt lat="45.43767" lon="4.69451">
        <ele>522.7</ele>
        <time>2021-04-22T14:27:41Z</time>
      </trkpt>
      <trkpt lat="45.43767" lon="4.69451">
        <ele>522.8</ele>
        <time>2021-04-22T14:27:47Z</time>
      </trkpt>
      <trkpt lat="45.43767" lon="4.69452">
        <ele>522.8</ele>
        <time>2021-04-22T14:27:53Z</time>
      </trkpt>
      <trkpt lat="45.43767" lon="4.69452">
        <ele>522.8</ele>
        <time>2021-04-22T14:27:58Z</time>
      </trkpt>
      <trkpt lat="45.43767" lon="4.69452">
        <ele>526.3</ele>
        <time>2021-04-22T14:28:03Z</time>
      </trkpt>
      <trkpt lat="45.43767" lon="4.69452">
        <ele>526.1</ele>
        <time>2021-04-22T14:28:09Z</time>
      </trkpt>
      <trkpt lat="45.43766" lon="4.69451">
        <ele>525.9</ele>
        <time>2021-04-22T14:28:14Z</time>
      </trkpt>
      <trkpt lat="45.43766" lon="4.69451">
        <ele>525.9</ele>
        <time>2021-04-22T14:28:20Z</time>
      </trkpt>
      <trkpt lat="45.43766" lon="4.6945">
        <ele>525.6</ele>
        <time>2021-04-22T14:28:26Z</time>
      </trkpt>
      <trkpt lat="45.43766" lon="4.6945">
        <ele>525.7</ele>
        <time>2021-04-22T14:28:32Z</time>
      </trkpt>
      <trkpt lat="45.43766" lon="4.6945">
        <ele>525.8</ele>
        <time>2021-04-22T14:28:38Z</time>
      </trkpt>
      <trkpt lat="45.43767" lon="4.69451">
        <ele>526</ele>
        <time>2021-04-22T14:28:43Z</time>
      </trkpt>
      <trkpt lat="45.43767" lon="4.6945">
        <ele>526.1</ele>
        <time>2021-04-22T14:28:49Z</time>
      </trkpt>
      <trkpt lat="45.43767" lon="4.6945">
        <ele>526.2</ele>
        <time>2021-04-22T14:28:54Z</time>
      </trkpt>
      <trkpt lat="45.43767" lon="4.6945">
        <ele>526.2</ele>
        <time>2021-04-22T14:29:00Z</time>
      </trkpt>
      <trkpt lat="45.43767" lon="4.6945">
        <ele>526.1</ele>
        <time>2021-04-22T14:29:05Z</time>
      </trkpt>
      <trkpt lat="45.43768" lon="4.69449">
        <ele>526.1</ele>
        <time>2021-04-22T14:29:11Z</time>
      </trkpt>
      <trkpt lat="45.43768" lon="4.69449">
        <ele>526.1</ele>
        <time>2021-04-22T14:29:17Z</time>
      </trkpt>
      <trkpt lat="45.43768" lon="4.69449">
        <ele>526</ele>
        <time>2021-04-22T14:29:22Z</time>
      </trkpt>
      <trkpt lat="45.43768" lon="4.69449">
        <ele>526</ele>
        <time>2021-04-22T14:29:27Z</time>
      </trkpt>
      <trkpt lat="45.43768" lon="4.69449">
        <ele>526.1</ele>
        <time>2021-04-22T14:29:33Z</time>
      </trkpt>
      <trkpt lat="45.43768" lon="4.69449">
        <ele>526.1</ele>
        <time>2021-04-22T14:29:38Z</time>
      </trkpt>
      <trkpt lat="45.43768" lon="4.69449">
        <ele>526.1</ele>
        <time>2021-04-22T14:29:44Z</time>
      </trkpt>
      <trkpt lat="45.43768" lon="4.69449">
        <ele>526.1</ele>
        <time>2021-04-22T14:29:49Z</time>
      </trkpt>
      <trkpt lat="45.43768" lon="4.69449">
        <ele>526.1</ele>
        <time>2021-04-22T14:29:55Z</time>
      </trkpt>
      <trkpt lat="45.43768" lon="4.69449">
        <ele>526</ele>
        <time>2021-04-22T14:30:01Z</time>
      </trkpt>
      <trkpt lat="45.43768" lon="4.69449">
        <ele>526</ele>
        <time>2021-04-22T14:30:07Z</time>
      </trkpt>
      <trkpt lat="45.43768" lon="4.69449">
        <ele>526</ele>
        <time>2021-04-22T14:30:12Z</time>
      </trkpt>
      <trkpt lat="45.43768" lon="4.69449">
        <ele>525.9</ele>
        <time>2021-04-22T14:30:18Z</time>
      </trkpt>
      <trkpt lat="45.43768" lon="4.69449">
        <ele>525.9</ele>
        <time>2021-04-22T14:30:24Z</time>
      </trkpt>
      <trkpt lat="45.43768" lon="4.69449">
        <ele>525.8</ele>
        <time>2021-04-22T14:30:29Z</time>
      </trkpt>
      <trkpt lat="45.43768" lon="4.69449">
        <ele>525.8</ele>
        <time>2021-04-22T14:30:35Z</time>
      </trkpt>
      <trkpt lat="45.43768" lon="4.69449">
        <ele>525.8</ele>
        <time>2021-04-22T14:30:41Z</time>
      </trkpt>
      <trkpt lat="45.43768" lon="4.69449">
        <ele>525.9</ele>
        <time>2021-04-22T14:30:47Z</time>
      </trkpt>
      <trkpt lat="45.43768" lon="4.69449">
        <ele>525.8</ele>
        <time>2021-04-22T14:30:53Z</time>
      </trkpt>
      <trkpt lat="45.43768" lon="4.69449">
        <ele>526</ele>
        <time>2021-04-22T14:30:58Z</time>
      </trkpt>
      <trkpt lat="45.43768" lon="4.69449">
        <ele>526</ele>
        <time>2021-04-22T14:31:03Z</time>
      </trkpt>
      <trkpt lat="45.43767" lon="4.6945">
        <ele>526</ele>
        <time>2021-04-22T14:31:09Z</time>
      </trkpt>
      <trkpt lat="45.43766" lon="4.6945">
        <ele>526.1</ele>
        <time>2021-04-22T14:31:15Z</time>
      </trkpt>
      <trkpt lat="45.43766" lon="4.6945">
        <ele>526.1</ele>
        <time>2021-04-22T14:31:21Z</time>
      </trkpt>
      <trkpt lat="45.43766" lon="4.6945">
        <ele>526.1</ele>
        <time>2021-04-22T14:31:26Z</time>
      </trkpt>
      <trkpt lat="45.43767" lon="4.69451">
        <ele>525.3</ele>
        <time>2021-04-22T14:31:32Z</time>
      </trkpt>
      <trkpt lat="45.43766" lon="4.69451">
        <ele>525</ele>
        <time>2021-04-22T14:31:38Z</time>
      </trkpt>
      <trkpt lat="45.43763" lon="4.69453">
        <ele>524.6</ele>
        <time>2021-04-22T14:31:44Z</time>
      </trkpt>
      <trkpt lat="45.43764" lon="4.69452">
        <ele>524.4</ele>
        <time>2021-04-22T14:31:50Z</time>
      </trkpt>
      <trkpt lat="45.43765" lon="4.69452">
        <ele>524.6</ele>
        <time>2021-04-22T14:31:55Z</time>
      </trkpt>
      <trkpt lat="45.43765" lon="4.69452">
        <ele>524.6</ele>
        <time>2021-04-22T14:32:01Z</time>
      </trkpt>
      <trkpt lat="45.43765" lon="4.69452">
        <ele>524.2</ele>
        <time>2021-04-22T14:32:06Z</time>
      </trkpt>
      <trkpt lat="45.43764" lon="4.69447">
        <ele>524.5</ele>
        <time>2021-04-22T14:32:11Z</time>
      </trkpt>
      <trkpt lat="45.43769" lon="4.69471">
        <ele>524.3</ele>
        <time>2021-04-22T14:32:17Z</time>
      </trkpt>
      <trkpt lat="45.43781" lon="4.69503">
        <ele>524</ele>
        <time>2021-04-22T14:32:23Z</time>
      </trkpt>
      <trkpt lat="45.43789" lon="4.69526">
        <ele>522.4</ele>
        <time>2021-04-22T14:32:28Z</time>
      </trkpt>
      <trkpt lat="45.43802" lon="4.69564">
        <ele>522.2</ele>
        <time>2021-04-22T14:32:34Z</time>
      </trkpt>
      <trkpt lat="45.43812" lon="4.69597">
        <ele>522.5</ele>
        <time>2021-04-22T14:32:39Z</time>
      </trkpt>
      <trkpt lat="45.43825" lon="4.69628">
        <ele>521.1</ele>
        <time>2021-04-22T14:32:44Z</time>
      </trkpt>
      <trkpt lat="45.43841" lon="4.6967">
        <ele>521.7</ele>
        <time>2021-04-22T14:32:50Z</time>
      </trkpt>
      <trkpt lat="45.43867" lon="4.69716">
        <ele>515.7</ele>
        <time>2021-04-22T14:32:55Z</time>
      </trkpt>
      <trkpt lat="45.43897" lon="4.69772">
        <ele>512.6</ele>
        <time>2021-04-22T14:33:01Z</time>
      </trkpt>
      <trkpt lat="45.43921" lon="4.69833">
        <ele>512</ele>
        <time>2021-04-22T14:33:07Z</time>
      </trkpt>
      <trkpt lat="45.43939" lon="4.69903">
        <ele>507.4</ele>
        <time>2021-04-22T14:33:13Z</time>
      </trkpt>
      <trkpt lat="45.43961" lon="4.69977">
        <ele>506.5</ele>
        <time>2021-04-22T14:33:19Z</time>
      </trkpt>
      <trkpt lat="45.43972" lon="4.7002">
        <ele>504.7</ele>
        <time>2021-04-22T14:33:24Z</time>
      </trkpt>
      <trkpt lat="45.43987" lon="4.70062">
        <ele>503</ele>
        <time>2021-04-22T14:33:30Z</time>
      </trkpt>
      <trkpt lat="45.44" lon="4.70109">
        <ele>501.2</ele>
        <time>2021-04-22T14:33:36Z</time>
      </trkpt>
      <trkpt lat="45.44012" lon="4.70154">
        <ele>498.9</ele>
        <time>2021-04-22T14:33:42Z</time>
      </trkpt>
      <trkpt lat="45.44015" lon="4.70206">
        <ele>497.6</ele>
        <time>2021-04-22T14:33:48Z</time>
      </trkpt>
      <trkpt lat="45.44036" lon="4.70257">
        <ele>496.2</ele>
        <time>2021-04-22T14:33:54Z</time>
      </trkpt>
      <trkpt lat="45.44053" lon="4.703">
        <ele>493.8</ele>
        <time>2021-04-22T14:33:59Z</time>
      </trkpt>
      <trkpt lat="45.44069" lon="4.70343">
        <ele>493.7</ele>
        <time>2021-04-22T14:34:04Z</time>
      </trkpt>
      <trkpt lat="45.44085" lon="4.70394">
        <ele>493.3</ele>
        <time>2021-04-22T14:34:10Z</time>
      </trkpt>
      <trkpt lat="45.44101" lon="4.70439">
        <ele>490.7</ele>
        <time>2021-04-22T14:34:16Z</time>
      </trkpt>
      <trkpt lat="45.44117" lon="4.70483">
        <ele>489.5</ele>
        <time>2021-04-22T14:34:22Z</time>
      </trkpt>
      <trkpt lat="45.4413" lon="4.70519">
        <ele>489.7</ele>
        <time>2021-04-22T14:34:27Z</time>
      </trkpt>
      <trkpt lat="45.44146" lon="4.70558">
        <ele>491.5</ele>
        <time>2021-04-22T14:34:33Z</time>
      </trkpt>
      <trkpt lat="45.44156" lon="4.70591">
        <ele>493</ele>
        <time>2021-04-22T14:34:39Z</time>
      </trkpt>
      <trkpt lat="45.44161" lon="4.70611">
        <ele>492.6</ele>
        <time>2021-04-22T14:34:44Z</time>
      </trkpt>
      <trkpt lat="45.44173" lon="4.70641">
        <ele>492.1</ele>
        <time>2021-04-22T14:34:50Z</time>
      </trkpt>
      <trkpt lat="45.4418" lon="4.70667">
        <ele>492.2</ele>
        <time>2021-04-22T14:34:55Z</time>
      </trkpt>
      <trkpt lat="45.44185" lon="4.70694">
        <ele>492.2</ele>
        <time>2021-04-22T14:35:01Z</time>
      </trkpt>
      <trkpt lat="45.44189" lon="4.70716">
        <ele>491.7</ele>
        <time>2021-04-22T14:35:06Z</time>
      </trkpt>
      <trkpt lat="45.44192" lon="4.70741">
        <ele>493.6</ele>
        <time>2021-04-22T14:35:11Z</time>
      </trkpt>
      <trkpt lat="45.44195" lon="4.70757">
        <ele>492.8</ele>
        <time>2021-04-22T14:35:17Z</time>
      </trkpt>
      <trkpt lat="45.44201" lon="4.70785">
        <ele>493.9</ele>
        <time>2021-04-22T14:35:22Z</time>
      </trkpt>
      <trkpt lat="45.44206" lon="4.7081">
        <ele>494.9</ele>
        <time>2021-04-22T14:35:27Z</time>
      </trkpt>
      <trkpt lat="45.4421" lon="4.70834">
        <ele>495.6</ele>
        <time>2021-04-22T14:35:33Z</time>
      </trkpt>
      <trkpt lat="45.44216" lon="4.7086">
        <ele>494</ele>
        <time>2021-04-22T14:35:38Z</time>
      </trkpt>
      <trkpt lat="45.44231" lon="4.70898">
        <ele>492.8</ele>
        <time>2021-04-22T14:35:44Z</time>
      </trkpt>
      <trkpt lat="45.44249" lon="4.70936">
        <ele>494.8</ele>
        <time>2021-04-22T14:35:50Z</time>
      </trkpt>
      <trkpt lat="45.44262" lon="4.7097">
        <ele>495.7</ele>
        <time>2021-04-22T14:35:55Z</time>
      </trkpt>
      <trkpt lat="45.44275" lon="4.70994">
        <ele>496.3</ele>
        <time>2021-04-22T14:36:00Z</time>
      </trkpt>
      <trkpt lat="45.44292" lon="4.71021">
        <ele>495</ele>
        <time>2021-04-22T14:36:06Z</time>
      </trkpt>
      <trkpt lat="45.44308" lon="4.71063">
        <ele>491.2</ele>
        <time>2021-04-22T14:36:11Z</time>
      </trkpt>
      <trkpt lat="45.44315" lon="4.71104">
        <ele>487</ele>
        <time>2021-04-22T14:36:16Z</time>
      </trkpt>
      <trkpt lat="45.44319" lon="4.7112">
        <ele>485.5</ele>
        <time>2021-04-22T14:36:21Z</time>
      </trkpt>
      <trkpt lat="45.4432" lon="4.71152">
        <ele>483.8</ele>
        <time>2021-04-22T14:36:27Z</time>
      </trkpt>
      <trkpt lat="45.44319" lon="4.71187">
        <ele>483.8</ele>
        <time>2021-04-22T14:36:32Z</time>
      </trkpt>
      <trkpt lat="45.44325" lon="4.71226">
        <ele>482.4</ele>
        <time>2021-04-22T14:36:38Z</time>
      </trkpt>
      <trkpt lat="45.44334" lon="4.71276">
        <ele>480.6</ele>
        <time>2021-04-22T14:36:44Z</time>
      </trkpt>
      <trkpt lat="45.44346" lon="4.71317">
        <ele>478.5</ele>
        <time>2021-04-22T14:36:49Z</time>
      </trkpt>
      <trkpt lat="45.44357" lon="4.71354">
        <ele>475.4</ele>
        <time>2021-04-22T14:36:54Z</time>
      </trkpt>
      <trkpt lat="45.44379" lon="4.7135">
        <ele>478.7</ele>
        <time>2021-04-22T14:37:00Z</time>
      </trkpt>
      <trkpt lat="45.44396" lon="4.71347">
        <ele>485.4</ele>
        <time>2021-04-22T14:37:05Z</time>
      </trkpt>
      <trkpt lat="45.44432" lon="4.71343">
        <ele>485.5</ele>
        <time>2021-04-22T14:37:11Z</time>
      </trkpt>
      <trkpt lat="45.44465" lon="4.71328">
        <ele>485.6</ele>
        <time>2021-04-22T14:37:16Z</time>
      </trkpt>
      <trkpt lat="45.4449" lon="4.71294">
        <ele>485.7</ele>
        <time>2021-04-22T14:37:21Z</time>
      </trkpt>
      <trkpt lat="45.44537" lon="4.71267">
        <ele>485.8</ele>
        <time>2021-04-22T14:37:27Z</time>
      </trkpt>
      <trkpt lat="45.44587" lon="4.71243">
        <ele>485.8</ele>
        <time>2021-04-22T14:37:32Z</time>
      </trkpt>
      <trkpt lat="45.44627" lon="4.71178">
        <ele>485.8</ele>
        <time>2021-04-22T14:37:38Z</time>
      </trkpt>
      <trkpt lat="45.4467" lon="4.71118">
        <ele>485.7</ele>
        <time>2021-04-22T14:37:44Z</time>
      </trkpt>
      <trkpt lat="45.44709" lon="4.71057">
        <ele>485.7</ele>
        <time>2021-04-22T14:37:50Z</time>
      </trkpt>
      <trkpt lat="45.44729" lon="4.70986">
        <ele>485.7</ele>
        <time>2021-04-22T14:37:56Z</time>
      </trkpt>
      <trkpt lat="45.44757" lon="4.70947">
        <ele>485.7</ele>
        <time>2021-04-22T14:38:02Z</time>
      </trkpt>
      <trkpt lat="45.44778" lon="4.70935">
        <ele>440.8</ele>
        <time>2021-04-22T14:38:08Z</time>
      </trkpt>
      <trkpt lat="45.4479" lon="4.70922">
        <ele>441</ele>
        <time>2021-04-22T14:38:13Z</time>
      </trkpt>
      <trkpt lat="45.44801" lon="4.70909">
        <ele>441</ele>
        <time>2021-04-22T14:38:18Z</time>
      </trkpt>
      <trkpt lat="45.44811" lon="4.70894">
        <ele>441</ele>
        <time>2021-04-22T14:38:23Z</time>
      </trkpt>
      <trkpt lat="45.44819" lon="4.70884">
        <ele>441</ele>
        <time>2021-04-22T14:38:28Z</time>
      </trkpt>
      <trkpt lat="45.44828" lon="4.70875">
        <ele>441</ele>
        <time>2021-04-22T14:38:34Z</time>
      </trkpt>
      <trkpt lat="45.44835" lon="4.70869">
        <ele>441.1</ele>
        <time>2021-04-22T14:38:39Z</time>
      </trkpt>
      <trkpt lat="45.44842" lon="4.70861">
        <ele>441.1</ele>
        <time>2021-04-22T14:38:44Z</time>
      </trkpt>
      <trkpt lat="45.44847" lon="4.70856">
        <ele>441.1</ele>
        <time>2021-04-22T14:38:49Z</time>
      </trkpt>
      <trkpt lat="45.44856" lon="4.70855">
        <ele>441.1</ele>
        <time>2021-04-22T14:38:54Z</time>
      </trkpt>
      <trkpt lat="45.44864" lon="4.70859">
        <ele>441.1</ele>
        <time>2021-04-22T14:38:59Z</time>
      </trkpt>
      <trkpt lat="45.44873" lon="4.70865">
        <ele>441.1</ele>
        <time>2021-04-22T14:39:04Z</time>
      </trkpt>
      <trkpt lat="45.44882" lon="4.7087">
        <ele>441</ele>
        <time>2021-04-22T14:39:10Z</time>
      </trkpt>
      <trkpt lat="45.44895" lon="4.70873">
        <ele>452.1</ele>
        <time>2021-04-22T14:39:16Z</time>
      </trkpt>
      <trkpt lat="45.44905" lon="4.70875">
        <ele>452</ele>
        <time>2021-04-22T14:39:21Z</time>
      </trkpt>
      <trkpt lat="45.44917" lon="4.70877">
        <ele>452.6</ele>
        <time>2021-04-22T14:39:27Z</time>
      </trkpt>
      <trkpt lat="45.44927" lon="4.70878">
        <ele>452.7</ele>
        <time>2021-04-22T14:39:32Z</time>
      </trkpt>
      <trkpt lat="45.44936" lon="4.70878">
        <ele>453.8</ele>
        <time>2021-04-22T14:39:37Z</time>
      </trkpt>
      <trkpt lat="45.44945" lon="4.70878">
        <ele>454.6</ele>
        <time>2021-04-22T14:39:43Z</time>
      </trkpt>
      <trkpt lat="45.44954" lon="4.70878">
        <ele>454.8</ele>
        <time>2021-04-22T14:39:48Z</time>
      </trkpt>
      <trkpt lat="45.44963" lon="4.7088">
        <ele>456.1</ele>
        <time>2021-04-22T14:39:53Z</time>
      </trkpt>
      <trkpt lat="45.44974" lon="4.7088">
        <ele>455.7</ele>
        <time>2021-04-22T14:39:59Z</time>
      </trkpt>
      <trkpt lat="45.44984" lon="4.70881">
        <ele>456.3</ele>
        <time>2021-04-22T14:40:04Z</time>
      </trkpt>
      <trkpt lat="45.44999" lon="4.70882">
        <ele>456.8</ele>
        <time>2021-04-22T14:40:09Z</time>
      </trkpt>
      <trkpt lat="45.45" lon="4.70894">
        <ele>456.8</ele>
        <time>2021-04-22T14:40:15Z</time>
      </trkpt>
      <trkpt lat="45.44995" lon="4.70932">
        <ele>456.9</ele>
        <time>2021-04-22T14:40:21Z</time>
      </trkpt>
      <trkpt lat="45.44994" lon="4.7098">
        <ele>455.7</ele>
        <time>2021-04-22T14:40:27Z</time>
      </trkpt>
      <trkpt lat="45.44992" lon="4.71039">
        <ele>451.9</ele>
        <time>2021-04-22T14:40:33Z</time>
      </trkpt>
      <trkpt lat="45.44994" lon="4.71097">
        <ele>449.8</ele>
        <time>2021-04-22T14:40:38Z</time>
      </trkpt>
      <trkpt lat="45.44996" lon="4.71176">
        <ele>443.5</ele>
        <time>2021-04-22T14:40:44Z</time>
      </trkpt>
      <trkpt lat="45.45023" lon="4.7118">
        <ele>441.3</ele>
        <time>2021-04-22T14:40:50Z</time>
      </trkpt>
      <trkpt lat="45.45047" lon="4.71166">
        <ele>439.1</ele>
        <time>2021-04-22T14:40:55Z</time>
      </trkpt>
      <trkpt lat="45.45075" lon="4.71148">
        <ele>438.2</ele>
        <time>2021-04-22T14:41:01Z</time>
      </trkpt>
      <trkpt lat="45.45099" lon="4.71131">
        <ele>437.2</ele>
        <time>2021-04-22T14:41:06Z</time>
      </trkpt>
      <trkpt lat="45.4513" lon="4.71113">
        <ele>437.2</ele>
        <time>2021-04-22T14:41:12Z</time>
      </trkpt>
      <trkpt lat="45.45151" lon="4.71103">
        <ele>436.6</ele>
        <time>2021-04-22T14:41:17Z</time>
      </trkpt>
      <trkpt lat="45.45175" lon="4.71109">
        <ele>436.1</ele>
        <time>2021-04-22T14:41:23Z</time>
      </trkpt>
      <trkpt lat="45.45197" lon="4.71123">
        <ele>436</ele>
        <time>2021-04-22T14:41:28Z</time>
      </trkpt>
      <trkpt lat="45.45221" lon="4.71127">
        <ele>436</ele>
        <time>2021-04-22T14:41:33Z</time>
      </trkpt>
      <trkpt lat="45.45248" lon="4.71129">
        <ele>435.9</ele>
        <time>2021-04-22T14:41:39Z</time>
      </trkpt>
      <trkpt lat="45.45269" lon="4.71144">
        <ele>436</ele>
        <time>2021-04-22T14:41:44Z</time>
      </trkpt>
      <trkpt lat="45.45289" lon="4.71157">
        <ele>436</ele>
        <time>2021-04-22T14:41:50Z</time>
      </trkpt>
      <trkpt lat="45.45305" lon="4.71178">
        <ele>436</ele>
        <time>2021-04-22T14:41:55Z</time>
      </trkpt>
      <trkpt lat="45.45326" lon="4.71193">
        <ele>435.9</ele>
        <time>2021-04-22T14:42:01Z</time>
      </trkpt>
      <trkpt lat="45.45338" lon="4.71203">
        <ele>435.9</ele>
        <time>2021-04-22T14:42:06Z</time>
      </trkpt>
      <trkpt lat="45.45372" lon="4.71197">
        <ele>435.8</ele>
        <time>2021-04-22T14:42:12Z</time>
      </trkpt>
      <trkpt lat="45.45396" lon="4.71176">
        <ele>435.9</ele>
        <time>2021-04-22T14:42:17Z</time>
      </trkpt>
      <trkpt lat="45.45427" lon="4.71147">
        <ele>435.9</ele>
        <time>2021-04-22T14:42:23Z</time>
      </trkpt>
      <trkpt lat="45.45452" lon="4.71127">
        <ele>431.3</ele>
        <time>2021-04-22T14:42:28Z</time>
      </trkpt>
      <trkpt lat="45.45475" lon="4.71109">
        <ele>430.3</ele>
        <time>2021-04-22T14:42:34Z</time>
      </trkpt>
      <trkpt lat="45.45478" lon="4.71107">
        <ele>430.6</ele>
        <time>2021-04-22T14:42:39Z</time>
      </trkpt>
      <trkpt lat="45.45478" lon="4.71107">
        <ele>430.7</ele>
        <time>2021-04-22T14:42:45Z</time>
      </trkpt>
      <trkpt lat="45.45478" lon="4.71107">
        <ele>433.4</ele>
        <time>2021-04-22T14:42:50Z</time>
      </trkpt>
      <trkpt lat="45.45478" lon="4.71109">
        <ele>433.6</ele>
        <time>2021-04-22T14:42:56Z</time>
      </trkpt>
      <trkpt lat="45.45478" lon="4.71109">
        <ele>433.7</ele>
        <time>2021-04-22T14:43:01Z</time>
      </trkpt>
      <trkpt lat="45.45478" lon="4.71108">
        <ele>433.6</ele>
        <time>2021-04-22T14:43:06Z</time>
      </trkpt>
      <trkpt lat="45.45477" lon="4.71107">
        <ele>433.6</ele>
        <time>2021-04-22T14:43:12Z</time>
      </trkpt>
      <trkpt lat="45.45477" lon="4.71107">
        <ele>433.6</ele>
        <time>2021-04-22T14:43:17Z</time>
      </trkpt>
      <trkpt lat="45.45477" lon="4.71107">
        <ele>433.7</ele>
        <time>2021-04-22T14:43:24Z</time>
      </trkpt>
      <trkpt lat="45.45477" lon="4.71108">
        <ele>433.8</ele>
        <time>2021-04-22T14:43:30Z</time>
      </trkpt>
      <trkpt lat="45.45477" lon="4.71108">
        <ele>433.7</ele>
        <time>2021-04-22T14:43:36Z</time>
      </trkpt>
      <trkpt lat="45.45477" lon="4.71108">
        <ele>433.6</ele>
        <time>2021-04-22T14:43:41Z</time>
      </trkpt>
      <trkpt lat="45.45477" lon="4.71108">
        <ele>433.8</ele>
        <time>2021-04-22T14:43:46Z</time>
      </trkpt>
      <trkpt lat="45.45477" lon="4.71108">
        <ele>433.7</ele>
        <time>2021-04-22T14:43:52Z</time>
      </trkpt>
      <trkpt lat="45.45477" lon="4.71108">
        <ele>437.1</ele>
        <time>2021-04-22T14:43:58Z</time>
      </trkpt>
      <trkpt lat="45.45477" lon="4.71107">
        <ele>437.2</ele>
        <time>2021-04-22T14:44:03Z</time>
      </trkpt>
      <trkpt lat="45.45477" lon="4.71107">
        <ele>437.2</ele>
        <time>2021-04-22T14:44:09Z</time>
      </trkpt>
      <trkpt lat="45.45477" lon="4.71108">
        <ele>437.2</ele>
        <time>2021-04-22T14:44:14Z</time>
      </trkpt>
      <trkpt lat="45.45477" lon="4.71108">
        <ele>437.4</ele>
        <time>2021-04-22T14:44:19Z</time>
      </trkpt>
      <trkpt lat="45.45477" lon="4.71108">
        <ele>437.4</ele>
        <time>2021-04-22T14:44:24Z</time>
      </trkpt>
      <trkpt lat="45.45477" lon="4.71108">
        <ele>433.9</ele>
        <time>2021-04-22T14:44:30Z</time>
      </trkpt>
      <trkpt lat="45.45478" lon="4.71108">
        <ele>433.7</ele>
        <time>2021-04-22T14:44:36Z</time>
      </trkpt>
      <trkpt lat="45.45477" lon="4.71108">
        <ele>433.7</ele>
        <time>2021-04-22T14:44:41Z</time>
      </trkpt>
      <trkpt lat="45.45479" lon="4.71106">
        <ele>433.7</ele>
        <time>2021-04-22T14:44:47Z</time>
      </trkpt>
      <trkpt lat="45.45488" lon="4.71079">
        <ele>433.6</ele>
        <time>2021-04-22T14:44:53Z</time>
      </trkpt>
      <trkpt lat="45.45497" lon="4.7105">
        <ele>433.7</ele>
        <time>2021-04-22T14:44:58Z</time>
      </trkpt>
      <trkpt lat="45.45506" lon="4.7102">
        <ele>433.7</ele>
        <time>2021-04-22T14:45:03Z</time>
      </trkpt>
      <trkpt lat="45.45534" lon="4.7104">
        <ele>433.7</ele>
        <time>2021-04-22T14:45:09Z</time>
      </trkpt>
      <trkpt lat="45.45574" lon="4.71066">
        <ele>433.7</ele>
        <time>2021-04-22T14:45:15Z</time>
      </trkpt>
      <trkpt lat="45.45603" lon="4.71087">
        <ele>433.6</ele>
        <time>2021-04-22T14:45:20Z</time>
      </trkpt>
      <trkpt lat="45.45632" lon="4.71104">
        <ele>433.6</ele>
        <time>2021-04-22T14:45:26Z</time>
      </trkpt>
      <trkpt lat="45.45653" lon="4.71116">
        <ele>433.7</ele>
        <time>2021-04-22T14:45:31Z</time>
      </trkpt>
      <trkpt lat="45.45672" lon="4.7113">
        <ele>433.7</ele>
        <time>2021-04-22T14:45:37Z</time>
      </trkpt>
      <trkpt lat="45.45689" lon="4.7114">
        <ele>433.7</ele>
        <time>2021-04-22T14:45:42Z</time>
      </trkpt>
      <trkpt lat="45.4571" lon="4.71148">
        <ele>433.9</ele>
        <time>2021-04-22T14:45:47Z</time>
      </trkpt>
      <trkpt lat="45.45729" lon="4.71156">
        <ele>433.8</ele>
        <time>2021-04-22T14:45:53Z</time>
      </trkpt>
      <trkpt lat="45.45747" lon="4.71163">
        <ele>433.8</ele>
        <time>2021-04-22T14:45:58Z</time>
      </trkpt>
      <trkpt lat="45.45766" lon="4.71169">
        <ele>433.7</ele>
        <time>2021-04-22T14:46:03Z</time>
      </trkpt>
      <trkpt lat="45.45778" lon="4.71184">
        <ele>433.7</ele>
        <time>2021-04-22T14:46:09Z</time>
      </trkpt>
      <trkpt lat="45.45792" lon="4.71203">
        <ele>433.7</ele>
        <time>2021-04-22T14:46:14Z</time>
      </trkpt>
      <trkpt lat="45.45807" lon="4.71218">
        <ele>433.7</ele>
        <time>2021-04-22T14:46:19Z</time>
      </trkpt>
      <trkpt lat="45.4582" lon="4.71231">
        <ele>433.9</ele>
        <time>2021-04-22T14:46:24Z</time>
      </trkpt>
      <trkpt lat="45.45834" lon="4.71242">
        <ele>434</ele>
        <time>2021-04-22T14:46:30Z</time>
      </trkpt>
      <trkpt lat="45.45847" lon="4.7125">
        <ele>434</ele>
        <time>2021-04-22T14:46:35Z</time>
      </trkpt>
      <trkpt lat="45.4586" lon="4.71256">
        <ele>428.2</ele>
        <time>2021-04-22T14:46:40Z</time>
      </trkpt>
      <trkpt lat="45.45875" lon="4.71266">
        <ele>428.7</ele>
        <time>2021-04-22T14:46:45Z</time>
      </trkpt>
      <trkpt lat="45.45888" lon="4.71276">
        <ele>429.7</ele>
        <time>2021-04-22T14:46:50Z</time>
      </trkpt>
      <trkpt lat="45.45899" lon="4.71287">
        <ele>431.8</ele>
        <time>2021-04-22T14:46:56Z</time>
      </trkpt>
      <trkpt lat="45.45908" lon="4.71296">
        <ele>432</ele>
        <time>2021-04-22T14:47:01Z</time>
      </trkpt>
      <trkpt lat="45.45919" lon="4.71308">
        <ele>433.4</ele>
        <time>2021-04-22T14:47:06Z</time>
      </trkpt>
      <trkpt lat="45.45928" lon="4.71318">
        <ele>433.3</ele>
        <time>2021-04-22T14:47:12Z</time>
      </trkpt>
      <trkpt lat="45.45939" lon="4.71328">
        <ele>435.1</ele>
        <time>2021-04-22T14:47:17Z</time>
      </trkpt>
      <trkpt lat="45.45947" lon="4.71335">
        <ele>435.2</ele>
        <time>2021-04-22T14:47:22Z</time>
      </trkpt>
      <trkpt lat="45.45956" lon="4.71342">
        <ele>435.6</ele>
        <time>2021-04-22T14:47:28Z</time>
      </trkpt>
      <trkpt lat="45.45965" lon="4.71349">
        <ele>436.3</ele>
        <time>2021-04-22T14:47:33Z</time>
      </trkpt>
      <trkpt lat="45.45975" lon="4.71356">
        <ele>437.3</ele>
        <time>2021-04-22T14:47:39Z</time>
      </trkpt>
      <trkpt lat="45.45985" lon="4.71363">
        <ele>438.8</ele>
        <time>2021-04-22T14:47:45Z</time>
      </trkpt>
      <trkpt lat="45.45994" lon="4.71369">
        <ele>439.5</ele>
        <time>2021-04-22T14:47:50Z</time>
      </trkpt>
      <trkpt lat="45.46004" lon="4.71377">
        <ele>439.8</ele>
        <time>2021-04-22T14:47:55Z</time>
      </trkpt>
      <trkpt lat="45.46015" lon="4.71385">
        <ele>439.1</ele>
        <time>2021-04-22T14:48:01Z</time>
      </trkpt>
      <trkpt lat="45.46027" lon="4.71396">
        <ele>438.7</ele>
        <time>2021-04-22T14:48:07Z</time>
      </trkpt>
      <trkpt lat="45.46035" lon="4.7141">
        <ele>439.4</ele>
        <time>2021-04-22T14:48:12Z</time>
      </trkpt>
      <trkpt lat="45.46044" lon="4.71428">
        <ele>438.5</ele>
        <time>2021-04-22T14:48:18Z</time>
      </trkpt>
      <trkpt lat="45.46057" lon="4.71449">
        <ele>438.5</ele>
        <time>2021-04-22T14:48:24Z</time>
      </trkpt>
      <trkpt lat="45.46068" lon="4.7147">
        <ele>439.1</ele>
        <time>2021-04-22T14:48:29Z</time>
      </trkpt>
      <trkpt lat="45.46081" lon="4.71489">
        <ele>439.8</ele>
        <time>2021-04-22T14:48:35Z</time>
      </trkpt>
      <trkpt lat="45.4609" lon="4.71506">
        <ele>440.6</ele>
        <time>2021-04-22T14:48:40Z</time>
      </trkpt>
      <trkpt lat="45.461" lon="4.71524">
        <ele>440.6</ele>
        <time>2021-04-22T14:48:45Z</time>
      </trkpt>
      <trkpt lat="45.46112" lon="4.71539">
        <ele>439.6</ele>
        <time>2021-04-22T14:48:50Z</time>
      </trkpt>
      <trkpt lat="45.46121" lon="4.71552">
        <ele>440</ele>
        <time>2021-04-22T14:48:56Z</time>
      </trkpt>
      <trkpt lat="45.46129" lon="4.71565">
        <ele>440.3</ele>
        <time>2021-04-22T14:49:01Z</time>
      </trkpt>
      <trkpt lat="45.46138" lon="4.71576">
        <ele>441.9</ele>
        <time>2021-04-22T14:49:06Z</time>
      </trkpt>
      <trkpt lat="45.46146" lon="4.71589">
        <ele>442.6</ele>
        <time>2021-04-22T14:49:12Z</time>
      </trkpt>
      <trkpt lat="45.46153" lon="4.71598">
        <ele>444</ele>
        <time>2021-04-22T14:49:17Z</time>
      </trkpt>
      <trkpt lat="45.46159" lon="4.71609">
        <ele>446</ele>
        <time>2021-04-22T14:49:22Z</time>
      </trkpt>
      <trkpt lat="45.46166" lon="4.7162">
        <ele>445.4</ele>
        <time>2021-04-22T14:49:27Z</time>
      </trkpt>
      <trkpt lat="45.46172" lon="4.71631">
        <ele>447.4</ele>
        <time>2021-04-22T14:49:33Z</time>
      </trkpt>
      <trkpt lat="45.46179" lon="4.71644">
        <ele>446.3</ele>
        <time>2021-04-22T14:49:38Z</time>
      </trkpt>
      <trkpt lat="45.46185" lon="4.71656">
        <ele>447.7</ele>
        <time>2021-04-22T14:49:43Z</time>
      </trkpt>
      <trkpt lat="45.46192" lon="4.71669">
        <ele>447.4</ele>
        <time>2021-04-22T14:49:48Z</time>
      </trkpt>
      <trkpt lat="45.46199" lon="4.71682">
        <ele>448.2</ele>
        <time>2021-04-22T14:49:53Z</time>
      </trkpt>
      <trkpt lat="45.46205" lon="4.71694">
        <ele>448.5</ele>
        <time>2021-04-22T14:49:58Z</time>
      </trkpt>
      <trkpt lat="45.46211" lon="4.71706">
        <ele>447.8</ele>
        <time>2021-04-22T14:50:04Z</time>
      </trkpt>
      <trkpt lat="45.46219" lon="4.71719">
        <ele>448.8</ele>
        <time>2021-04-22T14:50:09Z</time>
      </trkpt>
      <trkpt lat="45.46226" lon="4.71731">
        <ele>448.9</ele>
        <time>2021-04-22T14:50:14Z</time>
      </trkpt>
      <trkpt lat="45.46232" lon="4.71743">
        <ele>449.4</ele>
        <time>2021-04-22T14:50:20Z</time>
      </trkpt>
      <trkpt lat="45.4624" lon="4.71755">
        <ele>450.2</ele>
        <time>2021-04-22T14:50:25Z</time>
      </trkpt>
      <trkpt lat="45.46248" lon="4.71771">
        <ele>449.7</ele>
        <time>2021-04-22T14:50:31Z</time>
      </trkpt>
      <trkpt lat="45.46256" lon="4.71786">
        <ele>449.3</ele>
        <time>2021-04-22T14:50:36Z</time>
      </trkpt>
      <trkpt lat="45.46266" lon="4.71804">
        <ele>450.6</ele>
        <time>2021-04-22T14:50:41Z</time>
      </trkpt>
      <trkpt lat="45.46278" lon="4.71822">
        <ele>448.9</ele>
        <time>2021-04-22T14:50:47Z</time>
      </trkpt>
      <trkpt lat="45.46289" lon="4.71841">
        <ele>451.2</ele>
        <time>2021-04-22T14:50:53Z</time>
      </trkpt>
      <trkpt lat="45.46304" lon="4.71861">
        <ele>451.4</ele>
        <time>2021-04-22T14:50:58Z</time>
      </trkpt>
      <trkpt lat="45.46319" lon="4.71878">
        <ele>451.2</ele>
        <time>2021-04-22T14:51:04Z</time>
      </trkpt>
      <trkpt lat="45.4633" lon="4.71894">
        <ele>451</ele>
        <time>2021-04-22T14:51:09Z</time>
      </trkpt>
      <trkpt lat="45.46336" lon="4.71926">
        <ele>449.6</ele>
        <time>2021-04-22T14:51:15Z</time>
      </trkpt>
      <trkpt lat="45.46349" lon="4.71959">
        <ele>453.4</ele>
        <time>2021-04-22T14:51:21Z</time>
      </trkpt>
      <trkpt lat="45.46382" lon="4.71983">
        <ele>450.1</ele>
        <time>2021-04-22T14:51:27Z</time>
      </trkpt>
      <trkpt lat="45.46415" lon="4.72016">
        <ele>448.8</ele>
        <time>2021-04-22T14:51:33Z</time>
      </trkpt>
      <trkpt lat="45.4645" lon="4.72043">
        <ele>446.7</ele>
        <time>2021-04-22T14:51:39Z</time>
      </trkpt>
      <trkpt lat="45.46479" lon="4.72069">
        <ele>443.7</ele>
        <time>2021-04-22T14:51:44Z</time>
      </trkpt>
      <trkpt lat="45.46504" lon="4.72104">
        <ele>442.2</ele>
        <time>2021-04-22T14:51:49Z</time>
      </trkpt>
      <trkpt lat="45.46528" lon="4.72153">
        <ele>440.4</ele>
        <time>2021-04-22T14:51:55Z</time>
      </trkpt>
      <trkpt lat="45.46548" lon="4.72202">
        <ele>436.5</ele>
        <time>2021-04-22T14:52:00Z</time>
      </trkpt>
      <trkpt lat="45.46575" lon="4.72245">
        <ele>433.6</ele>
        <time>2021-04-22T14:52:05Z</time>
      </trkpt>
      <trkpt lat="45.46616" lon="4.72274">
        <ele>432.9</ele>
        <time>2021-04-22T14:52:11Z</time>
      </trkpt>
      <trkpt lat="45.46649" lon="4.72315">
        <ele>431.5</ele>
        <time>2021-04-22T14:52:17Z</time>
      </trkpt>
      <trkpt lat="45.46663" lon="4.72375">
        <ele>426.7</ele>
        <time>2021-04-22T14:52:23Z</time>
      </trkpt>
      <trkpt lat="45.46678" lon="4.72443">
        <ele>422.2</ele>
        <time>2021-04-22T14:52:29Z</time>
      </trkpt>
      <trkpt lat="45.467" lon="4.72499">
        <ele>419</ele>
        <time>2021-04-22T14:52:35Z</time>
      </trkpt>
      <trkpt lat="45.4673" lon="4.72553">
        <ele>412.3</ele>
        <time>2021-04-22T14:52:41Z</time>
      </trkpt>
      <trkpt lat="45.4675" lon="4.72594">
        <ele>408.7</ele>
        <time>2021-04-22T14:52:46Z</time>
      </trkpt>
      <trkpt lat="45.46766" lon="4.72632">
        <ele>405.5</ele>
        <time>2021-04-22T14:52:52Z</time>
      </trkpt>
      <trkpt lat="45.46772" lon="4.72662">
        <ele>406.5</ele>
        <time>2021-04-22T14:52:58Z</time>
      </trkpt>
      <trkpt lat="45.46779" lon="4.72673">
        <ele>417.8</ele>
        <time>2021-04-22T14:53:03Z</time>
      </trkpt>
      <trkpt lat="45.46785" lon="4.72686">
        <ele>417.8</ele>
        <time>2021-04-22T14:53:08Z</time>
      </trkpt>
      <trkpt lat="45.4679" lon="4.72699">
        <ele>417.9</ele>
        <time>2021-04-22T14:53:13Z</time>
      </trkpt>
      <trkpt lat="45.46793" lon="4.72713">
        <ele>417.9</ele>
        <time>2021-04-22T14:53:19Z</time>
      </trkpt>
      <trkpt lat="45.46794" lon="4.72729">
        <ele>417.9</ele>
        <time>2021-04-22T14:53:24Z</time>
      </trkpt>
      <trkpt lat="45.46794" lon="4.72747">
        <ele>417.9</ele>
        <time>2021-04-22T14:53:29Z</time>
      </trkpt>
      <trkpt lat="45.46794" lon="4.72763">
        <ele>417.8</ele>
        <time>2021-04-22T14:53:34Z</time>
      </trkpt>
      <trkpt lat="45.46793" lon="4.72781">
        <ele>417.7</ele>
        <time>2021-04-22T14:53:40Z</time>
      </trkpt>
      <trkpt lat="45.46793" lon="4.72806">
        <ele>417.7</ele>
        <time>2021-04-22T14:53:45Z</time>
      </trkpt>
      <trkpt lat="45.46795" lon="4.72831">
        <ele>417.6</ele>
        <time>2021-04-22T14:53:51Z</time>
      </trkpt>
      <trkpt lat="45.46802" lon="4.72855">
        <ele>417.6</ele>
        <time>2021-04-22T14:53:56Z</time>
      </trkpt>
      <trkpt lat="45.46809" lon="4.72876">
        <ele>417.6</ele>
        <time>2021-04-22T14:54:01Z</time>
      </trkpt>
      <trkpt lat="45.46817" lon="4.72897">
        <ele>409.9</ele>
        <time>2021-04-22T14:54:07Z</time>
      </trkpt>
      <trkpt lat="45.46826" lon="4.72919">
        <ele>408.8</ele>
        <time>2021-04-22T14:54:12Z</time>
      </trkpt>
      <trkpt lat="45.46832" lon="4.72948">
        <ele>408</ele>
        <time>2021-04-22T14:54:18Z</time>
      </trkpt>
      <trkpt lat="45.46837" lon="4.72976">
        <ele>407.5</ele>
        <time>2021-04-22T14:54:23Z</time>
      </trkpt>
      <trkpt lat="45.46843" lon="4.72997">
        <ele>410.4</ele>
        <time>2021-04-22T14:54:29Z</time>
      </trkpt>
      <trkpt lat="45.46847" lon="4.7302">
        <ele>410.7</ele>
        <time>2021-04-22T14:54:34Z</time>
      </trkpt>
      <trkpt lat="45.46849" lon="4.73047">
        <ele>409</ele>
        <time>2021-04-22T14:54:39Z</time>
      </trkpt>
      <trkpt lat="45.46854" lon="4.73075">
        <ele>410.6</ele>
        <time>2021-04-22T14:54:44Z</time>
      </trkpt>
      <trkpt lat="45.46857" lon="4.73103">
        <ele>410.1</ele>
        <time>2021-04-22T14:54:50Z</time>
      </trkpt>
      <trkpt lat="45.4686" lon="4.73131">
        <ele>410</ele>
        <time>2021-04-22T14:54:55Z</time>
      </trkpt>
      <trkpt lat="45.46864" lon="4.73158">
        <ele>409.6</ele>
        <time>2021-04-22T14:55:01Z</time>
      </trkpt>
      <trkpt lat="45.46869" lon="4.73193">
        <ele>409.1</ele>
        <time>2021-04-22T14:55:07Z</time>
      </trkpt>
      <trkpt lat="45.46875" lon="4.73226">
        <ele>408.8</ele>
        <time>2021-04-22T14:55:12Z</time>
      </trkpt>
      <trkpt lat="45.46881" lon="4.73256">
        <ele>409.9</ele>
        <time>2021-04-22T14:55:18Z</time>
      </trkpt>
      <trkpt lat="45.46889" lon="4.73293">
        <ele>408.7</ele>
        <time>2021-04-22T14:55:24Z</time>
      </trkpt>
      <trkpt lat="45.46899" lon="4.7333">
        <ele>405.3</ele>
        <time>2021-04-22T14:55:29Z</time>
      </trkpt>
      <trkpt lat="45.46901" lon="4.73388">
        <ele>402.2</ele>
        <time>2021-04-22T14:55:35Z</time>
      </trkpt>
      <trkpt lat="45.46899" lon="4.73439">
        <ele>400.1</ele>
        <time>2021-04-22T14:55:40Z</time>
      </trkpt>
      <trkpt lat="45.46895" lon="4.73496">
        <ele>398.6</ele>
        <time>2021-04-22T14:55:46Z</time>
      </trkpt>
      <trkpt lat="45.46893" lon="4.73559">
        <ele>396.5</ele>
        <time>2021-04-22T14:55:52Z</time>
      </trkpt>
      <trkpt lat="45.4689" lon="4.73623">
        <ele>394.6</ele>
        <time>2021-04-22T14:55:58Z</time>
      </trkpt>
      <trkpt lat="45.46888" lon="4.73676">
        <ele>391.9</ele>
        <time>2021-04-22T14:56:03Z</time>
      </trkpt>
      <trkpt lat="45.46885" lon="4.73734">
        <ele>390.7</ele>
        <time>2021-04-22T14:56:09Z</time>
      </trkpt>
      <trkpt lat="45.46871" lon="4.73791">
        <ele>389.9</ele>
        <time>2021-04-22T14:56:15Z</time>
      </trkpt>
      <trkpt lat="45.46865" lon="4.73842">
        <ele>390.5</ele>
        <time>2021-04-22T14:56:20Z</time>
      </trkpt>
      <trkpt lat="45.46867" lon="4.739">
        <ele>390.9</ele>
        <time>2021-04-22T14:56:26Z</time>
      </trkpt>
      <trkpt lat="45.46865" lon="4.73946">
        <ele>390.1</ele>
        <time>2021-04-22T14:56:31Z</time>
      </trkpt>
      <trkpt lat="45.46859" lon="4.74003">
        <ele>388.1</ele>
        <time>2021-04-22T14:56:37Z</time>
      </trkpt>
      <trkpt lat="45.46856" lon="4.74053">
        <ele>387.1</ele>
        <time>2021-04-22T14:56:42Z</time>
      </trkpt>
      <trkpt lat="45.46852" lon="4.74105">
        <ele>386.6</ele>
        <time>2021-04-22T14:56:47Z</time>
      </trkpt>
      <trkpt lat="45.46839" lon="4.74168">
        <ele>384.9</ele>
        <time>2021-04-22T14:56:53Z</time>
      </trkpt>
      <trkpt lat="45.46824" lon="4.74226">
        <ele>382.2</ele>
        <time>2021-04-22T14:56:58Z</time>
      </trkpt>
      <trkpt lat="45.46807" lon="4.7429">
        <ele>380.3</ele>
        <time>2021-04-22T14:57:03Z</time>
      </trkpt>
      <trkpt lat="45.46783" lon="4.74371">
        <ele>375.2</ele>
        <time>2021-04-22T14:57:09Z</time>
      </trkpt>
      <trkpt lat="45.46767" lon="4.74434">
        <ele>373.5</ele>
        <time>2021-04-22T14:57:14Z</time>
      </trkpt>
      <trkpt lat="45.46753" lon="4.74496">
        <ele>373.9</ele>
        <time>2021-04-22T14:57:20Z</time>
      </trkpt>
      <trkpt lat="45.46752" lon="4.7454">
        <ele>372.8</ele>
        <time>2021-04-22T14:57:25Z</time>
      </trkpt>
      <trkpt lat="45.46759" lon="4.74588">
        <ele>372.2</ele>
        <time>2021-04-22T14:57:31Z</time>
      </trkpt>
      <trkpt lat="45.46765" lon="4.74632">
        <ele>372.5</ele>
        <time>2021-04-22T14:57:37Z</time>
      </trkpt>
      <trkpt lat="45.46764" lon="4.74669">
        <ele>372.4</ele>
        <time>2021-04-22T14:57:42Z</time>
      </trkpt>
      <trkpt lat="45.46753" lon="4.7471">
        <ele>373.6</ele>
        <time>2021-04-22T14:57:48Z</time>
      </trkpt>
      <trkpt lat="45.46725" lon="4.74712">
        <ele>372</ele>
        <time>2021-04-22T14:57:53Z</time>
      </trkpt>
      <trkpt lat="45.46684" lon="4.74718">
        <ele>369.7</ele>
        <time>2021-04-22T14:57:59Z</time>
      </trkpt>
      <trkpt lat="45.46646" lon="4.74718">
        <ele>367.5</ele>
        <time>2021-04-22T14:58:05Z</time>
      </trkpt>
      <trkpt lat="45.46613" lon="4.7473">
        <ele>363.6</ele>
        <time>2021-04-22T14:58:10Z</time>
      </trkpt>
      <trkpt lat="45.46562" lon="4.7475">
        <ele>358</ele>
        <time>2021-04-22T14:58:16Z</time>
      </trkpt>
      <trkpt lat="45.46528" lon="4.74764">
        <ele>355</ele>
        <time>2021-04-22T14:58:21Z</time>
      </trkpt>
      <trkpt lat="45.46535" lon="4.74729">
        <ele>351.8</ele>
        <time>2021-04-22T14:58:26Z</time>
      </trkpt>
      <trkpt lat="45.46544" lon="4.74669">
        <ele>346.3</ele>
        <time>2021-04-22T14:58:31Z</time>
      </trkpt>
      <trkpt lat="45.46528" lon="4.74619">
        <ele>343.3</ele>
        <time>2021-04-22T14:58:37Z</time>
      </trkpt>
      <trkpt lat="45.46499" lon="4.74625">
        <ele>344.9</ele>
        <time>2021-04-22T14:58:42Z</time>
      </trkpt>
      <trkpt lat="45.46484" lon="4.74631">
        <ele>345.6</ele>
        <time>2021-04-22T14:58:48Z</time>
      </trkpt>
      <trkpt lat="45.4648" lon="4.74643">
        <ele>345.9</ele>
        <time>2021-04-22T14:58:53Z</time>
      </trkpt>
      <trkpt lat="45.46474" lon="4.74655">
        <ele>345.9</ele>
        <time>2021-04-22T14:58:58Z</time>
      </trkpt>
      <trkpt lat="45.46469" lon="4.74667">
        <ele>346</ele>
        <time>2021-04-22T14:59:04Z</time>
      </trkpt>
      <trkpt lat="45.4646" lon="4.74676">
        <ele>345.9</ele>
        <time>2021-04-22T14:59:10Z</time>
      </trkpt>
      <trkpt lat="45.46452" lon="4.74687">
        <ele>345.9</ele>
        <time>2021-04-22T14:59:15Z</time>
      </trkpt>
      <trkpt lat="45.46443" lon="4.74695">
        <ele>345.8</ele>
        <time>2021-04-22T14:59:20Z</time>
      </trkpt>
      <trkpt lat="45.4643" lon="4.74703">
        <ele>345.7</ele>
        <time>2021-04-22T14:59:26Z</time>
      </trkpt>
      <trkpt lat="45.46416" lon="4.74711">
        <ele>345.7</ele>
        <time>2021-04-22T14:59:31Z</time>
      </trkpt>
      <trkpt lat="45.46401" lon="4.74721">
        <ele>345.7</ele>
        <time>2021-04-22T14:59:36Z</time>
      </trkpt>
      <trkpt lat="45.46388" lon="4.74729">
        <ele>345.7</ele>
        <time>2021-04-22T14:59:42Z</time>
      </trkpt>
      <trkpt lat="45.46374" lon="4.74738">
        <ele>345.7</ele>
        <time>2021-04-22T14:59:48Z</time>
      </trkpt>
      <trkpt lat="45.46361" lon="4.7475">
        <ele>355.9</ele>
        <time>2021-04-22T14:59:53Z</time>
      </trkpt>
      <trkpt lat="45.46347" lon="4.74764">
        <ele>356.5</ele>
        <time>2021-04-22T14:59:58Z</time>
      </trkpt>
      <trkpt lat="45.4633" lon="4.74779">
        <ele>355.6</ele>
        <time>2021-04-22T15:00:03Z</time>
      </trkpt>
      <trkpt lat="45.46311" lon="4.74798">
        <ele>357.6</ele>
        <time>2021-04-22T15:00:09Z</time>
      </trkpt>
      <trkpt lat="45.46295" lon="4.7482">
        <ele>356</ele>
        <time>2021-04-22T15:00:14Z</time>
      </trkpt>
      <trkpt lat="45.46275" lon="4.7485">
        <ele>355.8</ele>
        <time>2021-04-22T15:00:20Z</time>
      </trkpt>
      <trkpt lat="45.46252" lon="4.74877">
        <ele>354.5</ele>
        <time>2021-04-22T15:00:26Z</time>
      </trkpt>
      <trkpt lat="45.46232" lon="4.74909">
        <ele>352.8</ele>
        <time>2021-04-22T15:00:32Z</time>
      </trkpt>
      <trkpt lat="45.46212" lon="4.74964">
        <ele>348.3</ele>
        <time>2021-04-22T15:00:38Z</time>
      </trkpt>
      <trkpt lat="45.46177" lon="4.75021">
        <ele>340.9</ele>
        <time>2021-04-22T15:00:44Z</time>
      </trkpt>
      <trkpt lat="45.46139" lon="4.75062">
        <ele>332.1</ele>
        <time>2021-04-22T15:00:50Z</time>
      </trkpt>
      <trkpt lat="45.46122" lon="4.75087">
        <ele>326.2</ele>
        <time>2021-04-22T15:00:55Z</time>
      </trkpt>
      <trkpt lat="45.46132" lon="4.75142">
        <ele>322.4</ele>
        <time>2021-04-22T15:01:00Z</time>
      </trkpt>
      <trkpt lat="45.46132" lon="4.75197">
        <ele>316.4</ele>
        <time>2021-04-22T15:01:06Z</time>
      </trkpt>
      <trkpt lat="45.46129" lon="4.75241">
        <ele>314.4</ele>
        <time>2021-04-22T15:01:11Z</time>
      </trkpt>
      <trkpt lat="45.46105" lon="4.75292">
        <ele>312</ele>
        <time>2021-04-22T15:01:17Z</time>
      </trkpt>
      <trkpt lat="45.46103" lon="4.75334">
        <ele>307.8</ele>
        <time>2021-04-22T15:01:22Z</time>
      </trkpt>
      <trkpt lat="45.46088" lon="4.75359">
        <ele>304.3</ele>
        <time>2021-04-22T15:01:27Z</time>
      </trkpt>
      <trkpt lat="45.46061" lon="4.75402">
        <ele>299.4</ele>
        <time>2021-04-22T15:01:33Z</time>
      </trkpt>
      <trkpt lat="45.46042" lon="4.75461">
        <ele>292.5</ele>
        <time>2021-04-22T15:01:39Z</time>
      </trkpt>
      <trkpt lat="45.46035" lon="4.75506">
        <ele>287.7</ele>
        <time>2021-04-22T15:01:44Z</time>
      </trkpt>
      <trkpt lat="45.46034" lon="4.75562">
        <ele>283.5</ele>
        <time>2021-04-22T15:01:49Z</time>
      </trkpt>
      <trkpt lat="45.46033" lon="4.75605">
        <ele>272.9</ele>
        <time>2021-04-22T15:01:55Z</time>
      </trkpt>
      <trkpt lat="45.46032" lon="4.75641">
        <ele>265.5</ele>
        <time>2021-04-22T15:02:00Z</time>
      </trkpt>
      <trkpt lat="45.46038" lon="4.75699">
        <ele>259.8</ele>
        <time>2021-04-22T15:02:06Z</time>
      </trkpt>
      <trkpt lat="45.46061" lon="4.75747">
        <ele>255.4</ele>
        <time>2021-04-22T15:02:12Z</time>
      </trkpt>
      <trkpt lat="45.46065" lon="4.75772">
        <ele>251.8</ele>
        <time>2021-04-22T15:02:17Z</time>
      </trkpt>
      <trkpt lat="45.46073" lon="4.75753">
        <ele>247.6</ele>
        <time>2021-04-22T15:02:22Z</time>
      </trkpt>
      <trkpt lat="45.46058" lon="4.75702">
        <ele>244.1</ele>
        <time>2021-04-22T15:02:28Z</time>
      </trkpt>
      <trkpt lat="45.46056" lon="4.75663">
        <ele>243.1</ele>
        <time>2021-04-22T15:02:33Z</time>
      </trkpt>
      <trkpt lat="45.46062" lon="4.75682">
        <ele>240.7</ele>
        <time>2021-04-22T15:02:38Z</time>
      </trkpt>
      <trkpt lat="45.46086" lon="4.75734">
        <ele>234.5</ele>
        <time>2021-04-22T15:02:44Z</time>
      </trkpt>
      <trkpt lat="45.46098" lon="4.75778">
        <ele>227.9</ele>
        <time>2021-04-22T15:02:50Z</time>
      </trkpt>
      <trkpt lat="45.46093" lon="4.75835">
        <ele>221.7</ele>
        <time>2021-04-22T15:02:56Z</time>
      </trkpt>
      <trkpt lat="45.46093" lon="4.75895">
        <ele>213</ele>
        <time>2021-04-22T15:03:02Z</time>
      </trkpt>
      <trkpt lat="45.46074" lon="4.75923">
        <ele>210</ele>
        <time>2021-04-22T15:03:08Z</time>
      </trkpt>
      <trkpt lat="45.46038" lon="4.75933">
        <ele>205.1</ele>
        <time>2021-04-22T15:03:13Z</time>
      </trkpt>
      <trkpt lat="45.46011" lon="4.75943">
        <ele>202.5</ele>
        <time>2021-04-22T15:03:18Z</time>
      </trkpt>
      <trkpt lat="45.45993" lon="4.75943">
        <ele>202.2</ele>
        <time>2021-04-22T15:03:23Z</time>
      </trkpt>
      <trkpt lat="45.45965" lon="4.75955">
        <ele>207.3</ele>
        <time>2021-04-22T15:03:29Z</time>
      </trkpt>
      <trkpt lat="45.45949" lon="4.75939">
        <ele>205.2</ele>
        <time>2021-04-22T15:03:34Z</time>
      </trkpt>
      <trkpt lat="45.45925" lon="4.75914">
        <ele>203.1</ele>
        <time>2021-04-22T15:03:40Z</time>
      </trkpt>
      <trkpt lat="45.459" lon="4.75891">
        <ele>200.8</ele>
        <time>2021-04-22T15:03:46Z</time>
      </trkpt>
      <trkpt lat="45.45872" lon="4.75903">
        <ele>198.2</ele>
        <time>2021-04-22T15:03:51Z</time>
      </trkpt>
      <trkpt lat="45.45852" lon="4.7593">
        <ele>197.3</ele>
        <time>2021-04-22T15:03:56Z</time>
      </trkpt>
      <trkpt lat="45.45836" lon="4.75963">
        <ele>195.3</ele>
        <time>2021-04-22T15:04:02Z</time>
      </trkpt>
      <trkpt lat="45.45831" lon="4.75974">
        <ele>197.9</ele>
        <time>2021-04-22T15:04:07Z</time>
      </trkpt>
      <trkpt lat="45.45806" lon="4.75984">
        <ele>197.5</ele>
        <time>2021-04-22T15:04:13Z</time>
      </trkpt>
      <trkpt lat="45.45776" lon="4.75988">
        <ele>196.6</ele>
        <time>2021-04-22T15:04:18Z</time>
      </trkpt>
      <trkpt lat="45.45746" lon="4.75967">
        <ele>194.5</ele>
        <time>2021-04-22T15:04:24Z</time>
      </trkpt>
      <trkpt lat="45.45724" lon="4.75936">
        <ele>195.2</ele>
        <time>2021-04-22T15:04:30Z</time>
      </trkpt>
      <trkpt lat="45.45713" lon="4.75926">
        <ele>195.2</ele>
        <time>2021-04-22T15:04:35Z</time>
      </trkpt>
      <trkpt lat="45.45705" lon="4.75885">
        <ele>195.6</ele>
        <time>2021-04-22T15:04:41Z</time>
      </trkpt>
      <trkpt lat="45.45698" lon="4.75844">
        <ele>195.2</ele>
        <time>2021-04-22T15:04:47Z</time>
      </trkpt>
      <trkpt lat="45.45692" lon="4.75814">
        <ele>197</ele>
        <time>2021-04-22T15:04:52Z</time>
      </trkpt>
      <trkpt lat="45.45685" lon="4.75771">
        <ele>196.6</ele>
        <time>2021-04-22T15:04:58Z</time>
      </trkpt>
      <trkpt lat="45.45671" lon="4.75734">
        <ele>197.8</ele>
        <time>2021-04-22T15:05:04Z</time>
      </trkpt>
      <trkpt lat="45.4566" lon="4.75704">
        <ele>197</ele>
        <time>2021-04-22T15:05:09Z</time>
      </trkpt>
      <trkpt lat="45.45649" lon="4.75676">
        <ele>197.3</ele>
        <time>2021-04-22T15:05:14Z</time>
      </trkpt>
      <trkpt lat="45.45638" lon="4.75651">
        <ele>197.2</ele>
        <time>2021-04-22T15:05:19Z</time>
      </trkpt>
      <trkpt lat="45.45629" lon="4.75626">
        <ele>197.3</ele>
        <time>2021-04-22T15:05:24Z</time>
      </trkpt>
      <trkpt lat="45.45617" lon="4.75595">
        <ele>197.3</ele>
        <time>2021-04-22T15:05:30Z</time>
      </trkpt>
      <trkpt lat="45.45604" lon="4.75559">
        <ele>197.3</ele>
        <time>2021-04-22T15:05:36Z</time>
      </trkpt>
      <trkpt lat="45.45594" lon="4.75534">
        <ele>197.2</ele>
        <time>2021-04-22T15:05:41Z</time>
      </trkpt>
      <trkpt lat="45.45594" lon="4.7551">
        <ele>197.5</ele>
        <time>2021-04-22T15:05:46Z</time>
      </trkpt>
      <trkpt lat="45.456" lon="4.75482">
        <ele>197.4</ele>
        <time>2021-04-22T15:05:52Z</time>
      </trkpt>
      <trkpt lat="45.45587" lon="4.75469">
        <ele>197.2</ele>
        <time>2021-04-22T15:05:57Z</time>
      </trkpt>
      <trkpt lat="45.45586" lon="4.75467">
        <ele>197.3</ele>
        <time>2021-04-22T15:06:03Z</time>
      </trkpt>
      <trkpt lat="45.45587" lon="4.75467">
        <ele>197.7</ele>
        <time>2021-04-22T15:06:08Z</time>
      </trkpt>
      <trkpt lat="45.45586" lon="4.75469">
        <ele>198.2</ele>
        <time>2021-04-22T15:06:13Z</time>
      </trkpt>
      <trkpt lat="45.45584" lon="4.75473">
        <ele>198.5</ele>
        <time>2021-04-22T15:06:19Z</time>
      </trkpt>
      <trkpt lat="45.45584" lon="4.75472">
        <ele>198.7</ele>
        <time>2021-04-22T15:06:24Z</time>
      </trkpt>
      <trkpt lat="45.45583" lon="4.75472">
        <ele>198.9</ele>
        <time>2021-04-22T15:06:29Z</time>
      </trkpt>
      <trkpt lat="45.45583" lon="4.75472">
        <ele>199.1</ele>
        <time>2021-04-22T15:06:34Z</time>
      </trkpt>
      <trkpt lat="45.45583" lon="4.75472">
        <ele>199.1</ele>
        <time>2021-04-22T15:06:40Z</time>
      </trkpt>
      <trkpt lat="45.45583" lon="4.75472">
        <ele>199.2</ele>
        <time>2021-04-22T15:06:45Z</time>
      </trkpt>
      <trkpt lat="45.45583" lon="4.75472">
        <ele>199.6</ele>
        <time>2021-04-22T15:06:50Z</time>
      </trkpt>
      <trkpt lat="45.45583" lon="4.75472">
        <ele>199.8</ele>
        <time>2021-04-22T15:06:55Z</time>
      </trkpt>
    </trkseg>
  </trk>
</gpx>